[[{"header":{"parameterUnit":"m.s-1","parameterCategory":1,"la1":31.0,"la2":29.5877,"lo1":-88.7671,"lo2":-86.6584,"dy":0.0162,"dx":0.0185,"nx":115,"ny":88,"refTime":"2023-08-09T00:00:00:Z","depth":0,"parameterNumber":2,"parameterNumberName":"U-component_of_WINDS"},"data":[0.0,0.0,0.0,0.0,0.0,0.0,0.0,0.0,0.0,0.0,0.0,0.0,0.0,0.0,0.0,0.0,0.0,0.0,0.0,0.0,0.0,0.0,0.0,0.0,0.0,0.0,0.0,0.0,0.0,0.0,0.0,0.0,0.0,0.0,0.0,0.0,0.0,0.0,0.0,0.0,0.0,0.0,0.0,0.0,0.0,0.0,0.0,0.0,0.0,0.0,0.0,0.0,0.0,0.0,0.0,0.0,0.0,0.0,0.0,0.0,0.0,0.0,0.0,0.0,0.0,0.0,0.0,0.0,0.0,0.0,0.0,0.0,0.0,0.0,0.0,0.0,0.0,0.0,0.0,0.0,0.0,0.0,0.0,0.0,0.0,0.0,0.0,0.0,0.0,0.0,0.0,0.0,0.0,0.0,0.0,0.0,0.0,0.0,0.0,0.0,0.0,0.0,0.0,0.0,0.0,0.0,0.0,0.0,0.0,0.0,0.0,0.0,0.0,0.0,0.0,0.0,0.0,0.0,0.0,0.0,0.0,0.0,0.0,0.0,0.0,0.0,0.0,0.0,0.0,0.0,0.0,0.0,0.0,0.0,0.0,0.0,0.0,0.0,0.0,0.0,0.0,0.0,0.0,0.0,0.0,0.0,0.0,0.0,0.0,0.0,0.0,0.0,0.0,0.0,0.0,0.0,0.0,0.0,0.0,0.0,0.0,0.0,0.0,0.0,0.0,0.0,0.0,0.0,0.0,0.0,0.0,0.0,0.0,0.0,0.0,0.0,0.0,0.0,0.0,0.0,0.0,0.0,0.0,0.0,0.0,0.0,0.0,0.0,0.0,0.0,0.0,0.0,0.0,0.0,0.0,0.0,0.0,0.0,0.0,0.0,0.0,0.0,0.0,0.0,0.0,0.0,0.0,0.0,0.0,0.0,0.0,0.0,0.0,0.0,0.0,0.0,0.0,0.0,0.0,0.0,0.0,0.0,0.0,0.0,0.0,0.0,0.0,0.0,0.0,0.0,0.0,0.0,0.0,0.0,0.0,0.0,0.0,0.0,0.0,0.0,0.0,0.0,0.0,0.0,0.0,0.0,0.0,0.0,0.0,0.0,0.0,0.0,0.0,0.0,0.0,0.0,0.0,0.0,0.0,0.0,0.0,0.0,0.0,0.0,0.0,0.0,0.0,0.0,0.0,0.0,0.0,0.0,0.0,0.0,0.0,0.0,0.0,0.0,0.0,0.0,0.0,0.0,0.0,0.0,0.0,0.0,0.0,0.0,0.0,0.0,0.0,0.0,0.0,0.0,0.0,0.0,0.0,0.0,0.0,0.0,0.0,0.0,0.0,0.0,0.0,0.0,0.0,0.0,0.0,0.0,0.0,0.0,0.0,0.0,0.0,0.0,0.0,0.0,0.0,0.0,0.0,0.0,0.0,0.0,0.0,0.0,0.0,0.0,0.0,0.0,0.0,0.0,0.0,0.0,0.0,0.0,0.0,0.0,0.0,0.0,0.0,0.0,0.0,0.0,0.0,0.0,0.0,0.0,0.0,0.0,0.0,0.0,0.0,0.0,0.0,0.0,0.0,0.0,0.0,0.0,0.0,0.0,0.0,0.0,0.0,0.0,0.0,0.0,0.0,0.0,0.0,0.0,0.0,0.0,0.0,0.0,0.0,0.0,0.0,0.0,0.0,0.0,0.0,0.0,0.0,0.0,0.0,0.0,0.0,0.0,0.0,0.0,0.0,0.0,0.0,0.0,0.0,0.0,0.0,0.0,0.0,0.0,0.0,0.0,0.0,0.0,0.0,0.0,0.0,0.0,0.0,0.0,0.0,0.0,0.0,0.0,0.0,0.0,0.0,0.0,0.0,0.0,0.0,0.0,0.0,0.0,0.0,0.0,0.0,0.0,0.0,0.0,0.0,0.0,0.0,0.0,0.0,0.0,0.0,0.0,0.0,0.0,0.0,0.0,0.0,0.0,0.0,0.0,0.0,0.0,0.0,0.0,0.0,0.0,0.0,0.0,0.0,0.0,0.0,0.0,0.0,0.0,0.0,0.0,0.0,0.0,0.0,0.0,0.0,0.0,0.0,0.0,0.0,0.0,0.0,0.0,0.0,0.0,0.0,0.0,0.0,0.0,0.0,0.0,0.0,0.0,0.0,0.0,0.0,0.0,0.0,0.0,0.0,0.0,0.0,0.0,0.0,0.0,0.0,0.0,0.0,0.0,0.0,0.0,0.0,0.0,0.0,0.0,0.0,0.0,0.0,0.0,0.0,0.0,0.0,0.0,0.0,0.0,0.0,0.0,0.0,0.0,0.0,0.0,0.0,0.0,0.0,0.0,0.0,0.0,0.0,0.0,0.0,0.0,0.0,0.0,0.0,0.0,0.0,0.0,0.0,0.0,0.0,0.0,0.0,0.0,0.0,0.0,0.0,0.0,0.0,0.0,0.0,0.0,0.0,0.0,0.0,0.0,0.0,0.0,0.0,0.0,0.0,0.0,0.0,0.0,0.0,0.0,0.0,0.0,0.0,0.0,0.0,0.0,0.0,0.0,0.0,0.0,0.0,0.0,0.0,0.0,0.0,0.0,0.0,0.0,0.0,0.0,0.0,0.0,0.0,0.0,0.0,0.0,0.0,0.0,0.0,0.0,0.0,0.0,0.0,0.0,0.0,0.0,0.0,0.0,0.0,0.0,0.0,0.0,0.0,0.0,0.0,0.0,0.0,0.0,0.0,0.0,0.0,0.0,0.0,0.0,0.0,0.0,0.0,0.0,0.0,0.0,0.0,0.0,0.0,0.0,0.0,0.0,0.0,0.0,0.0,0.0,0.0,0.0,0.0,0.0,0.0,0.0,0.0,0.0,0.0,0.0,0.0,0.0,0.0,0.0,0.0,0.0,0.0,0.0,0.0,0.0,0.0,0.0,0.0,0.0,0.0,0.0,0.0,0.0,0.0,0.0,0.0,0.0,0.0,0.0,0.0,0.0,0.0,0.0,0.0,0.0,0.0,0.0,0.0,0.0,0.0,0.0,0.0,0.0,0.0,0.0,0.0,0.0,0.0,0.0,0.0,0.0,0.0,0.0,0.0,0.0,0.0,0.0,0.0,0.0,0.0,0.0,0.0,0.0,0.0,0.0,0.0,0.0,0.0,0.0,0.0,0.0,0.0,0.0,0.0,0.0,0.0,0.0,0.0,0.0,0.0,0.0,0.0,0.0,0.0,0.0,0.0,0.0,0.0,0.0,0.0,0.0,0.0,0.0,0.0,0.0,0.0,0.0,0.0,0.0,0.0,0.0,0.0,0.0,0.0,0.0,0.0,0.0,0.0,0.0,0.0,0.0,0.0,0.0,0.0,0.0,0.0,0.0,0.0,0.0,0.0,0.0,0.0,0.0,0.0,0.0,0.0,0.0,0.0,0.0,0.0,0.0,0.0,0.0,0.0,0.0,0.0,0.0,0.0,0.0,0.0,0.0,0.0,0.0,0.0,0.0,0.0,0.0,0.0,0.0,0.0,0.0,0.0,0.0,0.0,0.0,0.0,0.0,0.0,0.0,0.0,0.0,0.0,0.0,0.0,0.0,0.0,0.0,0.0,0.0,0.0,0.0,0.0,0.0,0.0,0.0,0.0,0.0,0.0,0.0,0.0,0.0,0.0,0.0,0.0,0.0,0.0,0.0,0.0,0.0,0.0,0.0,0.0,0.0,0.0,0.0,0.0,0.0,0.0,0.0,0.0,0.0,0.0,0.0,0.0,0.0,0.0,0.0,0.0,0.0,0.0,0.0,0.0,0.0,0.0,0.0,0.0,0.0,0.0,0.0,0.0,0.0,0.0,0.0,0.0,0.0,0.0,0.0,0.0,0.0,0.0,0.0,0.0,0.0,0.0,0.0,0.0,0.0,0.0,0.0,0.0,0.0,0.0,0.0,0.0,0.0,0.0,0.0,0.0,0.0,0.0,0.0,0.0,0.0,0.0,0.0,0.0,0.0,0.0,0.0,0.0,0.0,0.0,0.0,0.0,0.0,0.0,0.0,0.0,0.0,0.0,0.0,0.0,0.0,0.0,0.0,0.0,0.0,0.0,0.0,0.0,0.0,0.0,0.0,0.0,0.0,0.0,0.0,0.0,0.0,0.0,0.0,0.0,0.0,0.0,0.0,0.0,0.0,0.0,0.0,0.0,0.0,0.0,0.0,0.0,0.0,0.0,0.0,0.0,0.0,0.0,0.0,0.0,0.0,0.0,0.0,0.0,0.0,0.0,0.0,0.0,0.0,0.0,0.0,-3.8483,0.0,0.0,0.0,0.0,0.0,0.0,0.0,0.0,0.0,0.0,0.0,0.0,0.0,0.0,0.0,0.0,0.0,0.0,0.0,0.0,0.0,0.0,0.0,0.0,0.0,0.0,0.0,0.0,0.0,0.0,0.0,0.0,0.0,0.0,0.0,0.0,0.0,0.0,0.0,0.0,0.0,0.0,0.0,0.0,0.0,0.0,0.0,0.0,0.0,0.0,0.0,0.0,0.0,0.0,0.0,0.0,0.0,0.0,0.0,0.0,0.0,0.0,0.0,0.0,0.0,0.0,0.0,0.0,0.0,0.0,0.0,0.0,0.0,0.0,0.0,0.0,0.0,0.0,0.0,0.0,0.0,0.0,0.0,0.0,0.0,0.0,0.0,0.0,0.0,0.0,0.0,0.0,0.0,0.0,0.0,0.0,0.0,0.0,0.0,0.0,0.0,0.0,0.0,0.0,0.0,0.0,0.0,0.0,0.0,0.0,-3.8542,-3.8091,-4.0318,-4.1184,-4.0426,0.0,0.0,0.0,0.0,0.0,0.0,0.0,0.0,0.0,0.0,0.0,0.0,0.0,0.0,0.0,0.0,0.0,0.0,0.0,0.0,0.0,0.0,0.0,0.0,0.0,0.0,0.0,0.0,0.0,0.0,0.0,0.0,0.0,0.0,0.0,0.0,0.0,0.0,0.0,0.0,0.0,0.0,0.0,0.0,0.0,0.0,0.0,0.0,0.0,0.0,0.0,0.0,0.0,0.0,0.0,0.0,0.0,0.0,0.0,0.0,0.0,0.0,0.0,0.0,0.0,0.0,0.0,0.0,0.0,0.0,0.0,0.0,0.0,0.0,0.0,0.0,0.0,0.0,0.0,0.0,0.0,0.0,0.0,0.0,0.0,0.0,0.0,0.0,0.0,0.0,0.0,0.0,0.0,0.0,0.0,0.0,0.0,0.0,0.0,0.0,0.0,0.0,0.0,0.0,0.0,0.0,0.0,0.0,0.0,0.0,0.0,0.0,-4.2309,-4.3436,-4.317,0.0,0.0,0.0,0.0,0.0,0.0,0.0,0.0,0.0,0.0,0.0,0.0,0.0,0.0,0.0,0.0,0.0,0.0,0.0,0.0,0.0,0.0,0.0,0.0,0.0,0.0,0.0,0.0,0.0,0.0,0.0,0.0,0.0,0.0,0.0,0.0,0.0,0.0,0.0,0.0,0.0,0.0,0.0,0.0,0.0,0.0,0.0,0.0,0.0,0.0,0.0,0.0,0.0,0.0,0.0,0.0,0.0,0.0,0.0,0.0,0.0,0.0,0.0,0.0,0.0,0.0,0.0,0.0,0.0,0.0,0.0,0.0,0.0,0.0,0.0,0.0,0.0,0.0,0.0,0.0,0.0,0.0,0.0,0.0,0.0,0.0,0.0,0.0,0.0,0.0,0.0,0.0,0.0,0.0,0.0,0.0,0.0,0.0,0.0,0.0,0.0,0.0,0.0,0.0,0.0,0.0,0.0,0.0,0.0,0.0,-3.9628,-4.1884,-4.4319,0.0,-4.6794,0.0,0.0,0.0,0.0,0.0,0.0,0.0,0.0,0.0,0.0,0.0,0.0,0.0,0.0,0.0,0.0,0.0,0.0,0.0,0.0,0.0,0.0,0.0,0.0,0.0,0.0,0.0,0.0,0.0,0.0,0.0,0.0,0.0,0.0,0.0,0.0,0.0,0.0,0.0,0.0,0.0,0.0,0.0,0.0,0.0,0.0,0.0,0.0,0.0,0.0,0.0,0.0,0.0,0.0,0.0,0.0,0.0,0.0,0.0,0.0,0.0,0.0,0.0,0.0,0.0,0.0,0.0,0.0,0.0,0.0,0.0,0.0,0.0,0.0,0.0,0.0,0.0,0.0,0.0,0.0,0.0,0.0,0.0,0.0,0.0,0.0,0.0,0.0,0.0,0.0,0.0,0.0,0.0,0.0,0.0,0.0,0.0,0.0,0.0,0.0,0.0,0.0,0.0,0.0,0.0,0.0,0.0,0.0,0.0,0.0,-4.0788,-4.3542,-4.6193,-4.7193,0.0,0.0,0.0,0.0,0.0,0.0,0.0,0.0,0.0,0.0,0.0,0.0,0.0,0.0,0.0,0.0,0.0,0.0,0.0,0.0,0.0,0.0,0.0,0.0,0.0,0.0,0.0,0.0,0.0,0.0,0.0,0.0,0.0,0.0,0.0,0.0,0.0,0.0,0.0,0.0,0.0,0.0,0.0,0.0,0.0,0.0,0.0,0.0,0.0,0.0,0.0,0.0,0.0,0.0,0.0,0.0,0.0,0.0,0.0,0.0,0.0,0.0,0.0,0.0,0.0,0.0,0.0,0.0,0.0,0.0,0.0,0.0,0.0,0.0,0.0,0.0,0.0,0.0,0.0,0.0,0.0,0.0,0.0,0.0,0.0,0.0,0.0,0.0,0.0,0.0,0.0,0.0,0.0,0.0,0.0,0.0,0.0,0.0,0.0,0.0,0.0,0.0,0.0,0.0,0.0,0.0,0.0,0.0,0.0,0.0,-4.0166,-4.2932,-4.6758,-4.7807,-4.7859,-4.7119,0.0,0.0,0.0,0.0,0.0,0.0,0.0,0.0,0.0,0.0,0.0,0.0,0.0,0.0,0.0,0.0,0.0,0.0,0.0,0.0,0.0,0.0,0.0,0.0,0.0,0.0,0.0,0.0,0.0,0.0,0.0,0.0,0.0,0.0,0.0,0.0,0.0,0.0,0.0,0.0,0.0,0.0,0.0,0.0,0.0,0.0,0.0,0.0,0.0,0.0,0.0,0.0,0.0,0.0,0.0,0.0,0.0,0.0,0.0,0.0,0.0,0.0,0.0,0.0,0.0,0.0,0.0,0.0,0.0,0.0,0.0,0.0,0.0,0.0,0.0,0.0,0.0,0.0,0.0,0.0,0.0,0.0,0.0,0.0,0.0,0.0,0.0,0.0,0.0,0.0,0.0,0.0,0.0,0.0,0.0,0.0,0.0,0.0,0.0,0.0,0.0,0.0,0.0,0.0,0.0,0.0,0.0,0.0,-4.4662,-4.3849,-4.6356,-5.2636,-4.9079,-4.8251,0.0,0.0,0.0,0.0,0.0,0.0,0.0,0.0,0.0,0.0,0.0,0.0,0.0,0.0,0.0,0.0,0.0,0.0,0.0,0.0,0.0,0.0,0.0,0.0,0.0,0.0,0.0,0.0,0.0,0.0,0.0,0.0,0.0,0.0,0.0,0.0,0.0,0.0,0.0,0.0,0.0,0.0,0.0,0.0,0.0,0.0,0.0,0.0,0.0,0.0,0.0,0.0,0.0,0.0,0.0,0.0,0.0,0.0,0.0,0.0,0.0,0.0,0.0,0.0,0.0,0.0,0.0,0.0,0.0,0.0,0.0,0.0,0.0,0.0,0.0,0.0,0.0,0.0,0.0,0.0,0.0,0.0,0.0,0.0,0.0,0.0,0.0,0.0,0.0,0.0,0.0,0.0,0.0,0.0,0.0,0.0,0.0,0.0,0.0,0.0,0.0,0.0,0.0,0.0,0.0,0.0,0.0,0.0,0.0,-4.1069,-4.4007,-4.7591,-5.1672,-4.9573,-4.9124,0.0,0.0,0.0,0.0,0.0,0.0,0.0,0.0,0.0,0.0,0.0,0.0,0.0,0.0,0.0,0.0,0.0,0.0,0.0,0.0,0.0,0.0,0.0,0.0,0.0,0.0,0.0,0.0,0.0,0.0,0.0,0.0,0.0,0.0,0.0,0.0,0.0,0.0,0.0,0.0,0.0,0.0,0.0,0.0,0.0,0.0,0.0,0.0,0.0,0.0,0.0,0.0,0.0,0.0,0.0,0.0,0.0,0.0,0.0,0.0,0.0,0.0,0.0,0.0,0.0,0.0,0.0,0.0,0.0,0.0,0.0,0.0,0.0,0.0,0.0,0.0,0.0,0.0,0.0,0.0,0.0,0.0,0.0,0.0,0.0,0.0,0.0,0.0,0.0,0.0,0.0,0.0,0.0,0.0,0.0,0.0,0.0,0.0,0.0,0.0,0.0,0.0,0.0,0.0,0.0,0.0,0.0,0.0,0.0,-4.131,0.0,-4.9795,-5.1928,-5.0704,-4.987,0.0,0.0,0.0,0.0,0.0,0.0,0.0,0.0,0.0,0.0,0.0,0.0,0.0,0.0,0.0,0.0,0.0,0.0,0.0,0.0,0.0,0.0,0.0,0.0,0.0,0.0,0.0,0.0,0.0,0.0,0.0,0.0,0.0,0.0,0.0,0.0,0.0,0.0,0.0,0.0,0.0,0.0,0.0,0.0,0.0,0.0,0.0,0.0,0.0,0.0,0.0,0.0,0.0,0.0,0.0,0.0,0.0,0.0,0.0,0.0,0.0,0.0,0.0,0.0,0.0,0.0,0.0,0.0,0.0,0.0,0.0,0.0,0.0,0.0,0.0,0.0,0.0,0.0,0.0,0.0,0.0,0.0,0.0,0.0,0.0,0.0,0.0,0.0,0.0,0.0,0.0,0.0,0.0,0.0,0.0,0.0,0.0,0.0,0.0,0.0,0.0,0.0,0.0,0.0,0.0,0.0,0.0,0.0,-4.0256,-4.648,-5.0405,-5.2942,-5.4128,-5.2467,-5.0519,0.0,0.0,0.0,0.0,0.0,0.0,0.0,0.0,0.0,0.0,0.0,0.0,0.0,0.0,0.0,0.0,0.0,0.0,0.0,0.0,0.0,0.0,0.0,0.0,0.0,0.0,0.0,0.0,0.0,0.0,0.0,0.0,0.0,0.0,0.0,0.0,0.0,0.0,0.0,0.0,0.0,0.0,0.0,0.0,0.0,0.0,0.0,0.0,0.0,0.0,0.0,0.0,0.0,0.0,0.0,0.0,0.0,0.0,0.0,0.0,0.0,0.0,0.0,0.0,0.0,0.0,0.0,0.0,0.0,0.0,0.0,0.0,0.0,0.0,0.0,0.0,0.0,0.0,0.0,0.0,0.0,0.0,0.0,0.0,0.0,0.0,0.0,0.0,0.0,0.0,0.0,0.0,0.0,0.0,0.0,0.0,0.0,0.0,0.0,0.0,0.0,0.0,0.0,0.0,0.0,0.0,0.0,0.0,0.0,-4.579,-4.9811,-5.3568,-5.6914,-5.3389,-5.1918,0.0,0.0,0.0,0.0,0.0,0.0,0.0,0.0,0.0,0.0,0.0,0.0,0.0,0.0,0.0,0.0,0.0,0.0,0.0,0.0,0.0,0.0,0.0,0.0,0.0,0.0,0.0,0.0,0.0,0.0,0.0,0.0,0.0,0.0,0.0,0.0,0.0,0.0,0.0,0.0,0.0,0.0,0.0,0.0,0.0,0.0,0.0,0.0,0.0,0.0,0.0,0.0,0.0,0.0,0.0,0.0,0.0,0.0,0.0,0.0,0.0,0.0,0.0,0.0,0.0,0.0,0.0,0.0,0.0,0.0,0.0,0.0,0.0,0.0,0.0,0.0,0.0,0.0,0.0,0.0,0.0,0.0,0.0,0.0,0.0,0.0,0.0,0.0,0.0,0.0,0.0,0.0,0.0,0.0,0.0,0.0,0.0,0.0,0.0,0.0,0.0,0.0,0.0,0.0,0.0,0.0,0.0,0.0,0.0,-4.776,-5.1133,-5.4875,-5.8723,-5.5348,-5.3638,-5.3835,0.0,0.0,0.0,0.0,0.0,0.0,0.0,0.0,0.0,0.0,0.0,0.0,0.0,0.0,0.0,0.0,0.0,0.0,0.0,0.0,0.0,0.0,0.0,0.0,0.0,0.0,0.0,0.0,0.0,0.0,0.0,0.0,0.0,0.0,0.0,0.0,0.0,0.0,0.0,0.0,0.0,0.0,0.0,0.0,0.0,0.0,0.0,0.0,0.0,0.0,0.0,0.0,0.0,0.0,0.0,0.0,0.0,0.0,0.0,0.0,0.0,0.0,0.0,0.0,0.0,0.0,0.0,0.0,0.0,0.0,0.0,0.0,0.0,0.0,0.0,0.0,0.0,0.0,0.0,0.0,0.0,0.0,0.0,0.0,0.0,0.0,0.0,0.0,0.0,0.0,0.0,0.0,0.0,0.0,0.0,0.0,0.0,0.0,0.0,0.0,0.0,0.0,0.0,0.0,0.0,0.0,0.0,0.0,-5.1495,-5.4251,-5.6895,-5.9398,-5.7978,-5.5561,0.0,0.0,0.0,0.0,0.0,0.0,0.0,0.0,0.0,0.0,0.0,0.0,0.0,0.0,0.0,0.0,0.0,0.0,0.0,0.0,0.0,0.0,0.0,0.0,0.0,0.0,0.0,0.0,0.0,0.0,0.0,0.0,0.0,0.0,0.0,0.0,0.0,0.0,0.0,0.0,0.0,0.0,0.0,0.0,0.0,0.0,0.0,0.0,0.0,0.0,0.0,0.0,0.0,0.0,0.0,0.0,0.0,0.0,0.0,0.0,0.0,0.0,0.0,0.0,0.0,0.0,0.0,0.0,0.0,0.0,0.0,0.0,0.0,0.0,0.0,0.0,0.0,0.0,0.0,0.0,0.0,0.0,0.0,0.0,0.0,0.0,0.0,0.0,0.0,0.0,0.0,0.0,0.0,0.0,0.0,0.0,0.0,0.0,0.0,0.0,0.0,0.0,0.0,0.0,0.0,0.0,0.0,0.0,0.0,-5.3104,-5.5926,-5.9009,-6.2309,-5.9503,-5.7094,0.0,0.0,0.0,0.0,0.0,0.0,0.0,0.0,0.0,0.0,0.0,0.0,0.0,0.0,0.0,0.0,0.0,0.0,0.0,0.0,0.0,0.0,0.0,0.0,0.0,0.0,0.0,0.0,0.0,0.0,0.0,0.0,0.0,0.0,0.0,0.0,0.0,0.0,0.0,0.0,0.0,0.0,0.0,0.0,0.0,0.0,0.0,0.0,0.0,0.0,0.0,0.0,0.0,0.0,0.0,0.0,0.0,0.0,0.0,0.0,0.0,0.0,0.0,0.0,0.0,0.0,0.0,0.0,0.0,0.0,0.0,0.0,0.0,0.0,0.0,0.0,0.0,0.0,0.0,0.0,0.0,0.0,0.0,0.0,0.0,0.0,0.0,0.0,0.0,0.0,0.0,0.0,0.0,0.0,0.0,0.0,0.0,0.0,0.0,0.0,0.0,0.0,0.0,0.0,0.0,0.0,0.0,0.0,-4.9401,-5.3559,-5.7499,-6.0652,-6.2954,-6.0726,-5.8392,0.0,0.0,0.0,0.0,0.0,0.0,0.0,0.0,0.0,0.0,0.0,0.0,0.0,0.0,0.0,0.0,0.0,0.0,0.0,0.0,0.0,0.0,0.0,0.0,0.0,0.0,0.0,0.0,0.0,0.0,0.0,0.0,0.0,0.0,0.0,0.0,0.0,0.0,0.0,0.0,0.0,0.0,0.0,0.0,0.0,0.0,0.0,0.0,0.0,0.0,0.0,0.0,0.0,0.0,0.0,0.0,0.0,0.0,0.0,0.0,0.0,0.0,0.0,0.0,0.0,0.0,0.0,0.0,0.0,0.0,0.0,0.0,0.0,0.0,0.0,0.0,0.0,0.0,0.0,0.0,0.0,0.0,0.0,0.0,0.0,0.0,0.0,0.0,0.0,0.0,0.0,0.0,0.0,0.0,0.0,0.0,0.0,0.0,0.0,0.0,0.0,0.0,0.0,0.0,0.0,0.0,0.0,0.0,-5.0496,-5.3493,-5.8605,-6.1477,-6.1896,-6.1547,-5.9288,0.0,0.0,0.0,0.0,0.0,0.0,0.0,0.0,0.0,0.0,0.0,0.0,0.0,0.0,0.0,0.0,0.0,0.0,0.0,0.0,0.0,0.0,0.0,0.0,0.0,0.0,0.0,0.0,0.0,0.0,0.0,0.0,0.0,0.0,0.0,0.0,0.0,0.0,0.0,0.0,0.0,0.0,0.0,0.0,0.0,0.0,0.0,0.0,0.0,0.0,0.0,0.0,0.0,0.0,0.0,0.0,0.0,0.0,0.0,0.0,0.0,0.0,0.0,0.0,0.0,0.0,0.0,0.0,0.0,0.0,0.0,0.0,0.0,0.0,0.0,0.0,0.0,0.0,0.0,0.0,0.0,0.0,0.0,0.0,0.0,0.0,0.0,0.0,0.0,0.0,0.0,0.0,0.0,0.0,0.0,0.0,0.0,0.0,0.0,0.0,0.0,0.0,0.0,0.0,0.0,0.0,0.0,0.0,-4.9904,-5.4208,-5.7615,-6.0051,-6.1301,-6.0833,-5.8855,0.0,0.0,0.0,0.0,0.0,0.0,0.0,0.0,0.0,0.0,0.0,0.0,0.0,0.0,0.0,0.0,0.0,0.0,0.0,0.0,0.0,0.0,0.0,0.0,0.0,0.0,0.0,0.0,0.0,0.0,0.0,0.0,0.0,0.0,0.0,0.0,0.0,0.0,0.0,0.0,0.0,0.0,0.0,0.0,0.0,0.0,0.0,0.0,-4.3741,0.0,0.0,0.0,0.0,0.0,0.0,0.0,0.0,0.0,0.0,0.0,0.0,0.0,0.0,0.0,0.0,0.0,0.0,0.0,0.0,0.0,0.0,0.0,0.0,0.0,0.0,0.0,0.0,0.0,0.0,0.0,0.0,0.0,0.0,0.0,0.0,0.0,0.0,0.0,0.0,0.0,0.0,0.0,0.0,0.0,0.0,0.0,0.0,0.0,0.0,0.0,0.0,0.0,0.0,0.0,0.0,0.0,0.0,0.0,-5.0211,-5.4003,-5.7263,-5.9595,-6.0986,-6.0826,-5.8763,0.0,0.0,0.0,0.0,0.0,0.0,0.0,0.0,0.0,0.0,0.0,0.0,0.0,0.0,0.0,0.0,0.0,0.0,0.0,0.0,0.0,0.0,0.0,0.0,0.0,0.0,0.0,0.0,0.0,0.0,0.0,0.0,0.0,0.0,0.0,0.0,0.0,0.0,0.0,0.0,0.0,0.0,0.0,0.0,0.0,0.0,0.0,0.0,0.0,0.0,0.0,0.0,0.0,0.0,0.0,0.0,0.0,0.0,0.0,0.0,0.0,0.0,0.0,0.0,0.0,0.0,0.0,0.0,0.0,0.0,0.0,0.0,0.0,0.0,0.0,0.0,0.0,0.0,0.0,0.0,0.0,0.0,0.0,0.0,0.0,0.0,0.0,0.0,0.0,0.0,0.0,0.0,0.0,0.0,0.0,0.0,0.0,0.0,0.0,0.0,0.0,0.0,0.0,0.0,0.0,0.0,0.0,-4.6733,-5.053,-5.3611,-5.7134,-5.9661,-6.1218,-6.1384,-5.9201,-5.4558,0.0,0.0,0.0,0.0,0.0,0.0,0.0,0.0,0.0,0.0,0.0,0.0,0.0,0.0,0.0,0.0,0.0,0.0,0.0,0.0,0.0,0.0,0.0,0.0,0.0,0.0,0.0,0.0,0.0,0.0,0.0,0.0,0.0,0.0,0.0,0.0,0.0,0.0,-3.516,-3.6773,0.0,0.0,0.0,0.0,0.0,0.0,0.0,0.0,-4.8826,0.0,0.0,0.0,0.0,0.0,0.0,0.0,0.0,0.0,0.0,0.0,0.0,0.0,0.0,0.0,0.0,0.0,0.0,0.0,0.0,0.0,0.0,0.0,0.0,0.0,0.0,0.0,0.0,0.0,0.0,0.0,0.0,0.0,0.0,0.0,0.0,0.0,0.0,0.0,0.0,0.0,0.0,0.0,0.0,0.0,0.0,0.0,0.0,0.0,0.0,0.0,0.0,0.0,0.0,0.0,0.0,-4.3575,-4.6346,-4.9931,-5.423,-5.7282,-5.9893,-6.1914,-6.261,-6.0687,-5.6067,0.0,0.0,0.0,0.0,0.0,0.0,0.0,0.0,0.0,0.0,0.0,0.0,0.0,0.0,0.0,0.0,0.0,0.0,0.0,0.0,0.0,0.0,0.0,0.0,0.0,0.0,0.0,0.0,0.0,0.0,0.0,0.0,0.0,0.0,0.0,0.0,0.0,0.0,0.0,-3.8438,-4.013,0.0,0.0,0.0,0.0,0.0,0.0,0.0,0.0,-4.9074,0.0,0.0,0.0,0.0,0.0,0.0,0.0,0.0,0.0,0.0,0.0,0.0,0.0,0.0,0.0,0.0,0.0,0.0,0.0,0.0,0.0,0.0,0.0,0.0,0.0,0.0,0.0,0.0,0.0,0.0,0.0,0.0,0.0,0.0,0.0,0.0,0.0,0.0,0.0,0.0,0.0,0.0,0.0,0.0,0.0,0.0,0.0,0.0,0.0,0.0,0.0,0.0,0.0,0.0,0.0,-4.2489,-4.6001,-4.979,-5.3904,-5.6705,-5.9481,-6.2047,-6.1053,-5.8987,0.0,0.0,0.0,0.0,0.0,0.0,0.0,0.0,0.0,0.0,0.0,0.0,0.0,0.0,0.0,0.0,0.0,0.0,0.0,0.0,0.0,0.0,0.0,0.0,0.0,0.0,0.0,0.0,0.0,0.0,0.0,0.0,0.0,0.0,0.0,0.0,0.0,0.0,0.0,0.0,-4.044,-4.2637,-4.5157,0.0,0.0,0.0,0.0,0.0,0.0,-5.0723,-5.0184,0.0,0.0,0.0,0.0,0.0,0.0,0.0,0.0,0.0,0.0,0.0,0.0,0.0,0.0,0.0,0.0,0.0,0.0,0.0,0.0,0.0,0.0,0.0,0.0,0.0,0.0,0.0,0.0,0.0,0.0,0.0,0.0,0.0,0.0,0.0,0.0,0.0,0.0,0.0,0.0,0.0,0.0,0.0,0.0,0.0,0.0,0.0,0.0,0.0,0.0,0.0,0.0,0.0,0.0,0.0,-4.1418,-4.5507,-4.9481,-5.3097,-5.5665,-5.8345,-6.1238,-5.9004,-5.6874,0.0,0.0,0.0,0.0,0.0,0.0,0.0,0.0,0.0,0.0,0.0,0.0,0.0,0.0,0.0,0.0,0.0,0.0,0.0,0.0,0.0,0.0,0.0,0.0,0.0,0.0,0.0,0.0,0.0,0.0,0.0,0.0,0.0,0.0,0.0,0.0,0.0,0.0,0.0,0.0,0.0,-4.5165,-4.8313,-4.9911,0.0,0.0,0.0,0.0,-5.2395,-5.2581,0.0,0.0,0.0,0.0,0.0,0.0,0.0,0.0,0.0,0.0,0.0,0.0,0.0,0.0,0.0,0.0,0.0,0.0,0.0,0.0,0.0,0.0,0.0,0.0,0.0,0.0,0.0,0.0,0.0,0.0,0.0,0.0,0.0,0.0,0.0,0.0,0.0,0.0,0.0,0.0,0.0,0.0,0.0,0.0,0.0,0.0,0.0,0.0,0.0,0.0,0.0,0.0,0.0,0.0,0.0,0.0,-4.2,-4.5161,-4.8627,-5.2031,-5.409,-5.6183,-5.8605,-5.7777,-5.6201,0.0,0.0,0.0,0.0,0.0,0.0,0.0,0.0,0.0,0.0,0.0,0.0,0.0,0.0,0.0,0.0,0.0,0.0,0.0,0.0,0.0,0.0,0.0,0.0,0.0,0.0,0.0,0.0,0.0,0.0,0.0,0.0,0.0,0.0,0.0,0.0,0.0,0.0,0.0,0.0,0.0,-4.7169,-4.7976,-5.0144,-5.1691,0.0,0.0,-5.448,-5.5896,-5.6829,0.0,0.0,0.0,0.0,0.0,0.0,0.0,0.0,0.0,0.0,0.0,0.0,0.0,0.0,0.0,0.0,0.0,0.0,0.0,0.0,0.0,0.0,0.0,0.0,0.0,0.0,0.0,0.0,0.0,0.0,0.0,0.0,0.0,0.0,0.0,0.0,0.0,0.0,0.0,0.0,0.0,0.0,0.0,0.0,0.0,0.0,0.0,0.0,0.0,0.0,0.0,0.0,0.0,0.0,0.0,-3.9596,-4.2063,-4.4988,-4.8207,-5.1637,-5.3009,-5.4789,-5.7147,-5.504,-5.3278,0.0,0.0,0.0,0.0,0.0,0.0,0.0,0.0,0.0,0.0,0.0,0.0,0.0,0.0,0.0,0.0,0.0,0.0,0.0,0.0,0.0,0.0,0.0,0.0,0.0,0.0,0.0,0.0,0.0,0.0,0.0,0.0,0.0,0.0,0.0,0.0,0.0,0.0,0.0,0.0,0.0,0.0,-5.1828,-5.3692,0.0,0.0,0.0,-5.6534,-5.6537,0.0,0.0,0.0,0.0,0.0,0.0,0.0,0.0,0.0,0.0,0.0,0.0,0.0,0.0,0.0,0.0,0.0,0.0,0.0,0.0,0.0,0.0,0.0,0.0,0.0,0.0,0.0,0.0,0.0,0.0,0.0,0.0,0.0,0.0,0.0,0.0,0.0,0.0,0.0,0.0,0.0,0.0,0.0,0.0,0.0,0.0,0.0,0.0,0.0,0.0,0.0,0.0,0.0,0.0,0.0,0.0,0.0,-4.2557,-4.4938,-4.7818,-5.1083,-5.19,-5.3125,-5.5132,-5.2356,0.0,0.0,0.0,0.0,0.0,0.0,0.0,0.0,0.0,0.0,0.0,0.0,0.0,0.0,0.0,0.0,0.0,0.0,0.0,0.0,0.0,0.0,0.0,0.0,0.0,0.0,0.0,-3.2611,0.0,0.0,0.0,0.0,0.0,0.0,0.0,0.0,0.0,0.0,0.0,0.0,0.0,0.0,-5.1132,-5.4877,-5.6509,-5.777,0.0,0.0,-5.8328,-5.7172,-5.7348,-5.6331,0.0,0.0,0.0,0.0,0.0,0.0,0.0,0.0,0.0,0.0,0.0,0.0,0.0,0.0,0.0,0.0,0.0,0.0,0.0,0.0,0.0,0.0,0.0,0.0,0.0,0.0,0.0,0.0,0.0,0.0,0.0,0.0,0.0,0.0,0.0,0.0,0.0,0.0,0.0,0.0,0.0,0.0,0.0,0.0,0.0,0.0,0.0,0.0,0.0,0.0,0.0,0.0,0.0,0.0,0.0,-4.3805,-4.5198,-4.7328,-5.0066,-5.0212,-5.0758,-5.1795,-5.0337,-4.8913,0.0,0.0,0.0,0.0,0.0,0.0,0.0,0.0,0.0,0.0,0.0,0.0,0.0,0.0,0.0,0.0,0.0,0.0,0.0,0.0,0.0,0.0,0.0,0.0,0.0,0.0,0.0,0.0,0.0,0.0,0.0,0.0,0.0,0.0,0.0,0.0,0.0,0.0,0.0,0.0,0.0,-5.196,-5.5041,-5.6869,-5.8757,0.0,0.0,-5.9309,-5.8624,-6.0753,-6.0229,-5.3173,0.0,0.0,0.0,0.0,0.0,0.0,0.0,0.0,0.0,0.0,0.0,0.0,0.0,0.0,0.0,0.0,0.0,0.0,0.0,0.0,0.0,0.0,0.0,0.0,0.0,0.0,0.0,0.0,0.0,0.0,0.0,0.0,0.0,0.0,0.0,0.0,0.0,0.0,0.0,0.0,0.0,0.0,0.0,0.0,0.0,0.0,0.0,0.0,0.0,0.0,0.0,0.0,0.0,-4.1802,-4.3979,-4.5634,-4.7614,-4.9747,-4.9514,-4.9397,-4.9756,-4.853,-4.704,0.0,0.0,0.0,0.0,0.0,0.0,0.0,0.0,0.0,0.0,0.0,0.0,0.0,0.0,0.0,0.0,0.0,0.0,0.0,0.0,0.0,0.0,0.0,0.0,0.0,0.0,0.0,0.0,-3.3209,-3.3779,-3.3131,0.0,0.0,0.0,0.0,0.0,0.0,0.0,0.0,0.0,0.0,-5.3331,-5.6397,-5.801,0.0,0.0,-5.9836,-5.9333,-5.9066,-5.8519,-5.6887,-5.3261,-4.9753,0.0,0.0,0.0,0.0,0.0,0.0,0.0,0.0,0.0,0.0,0.0,0.0,0.0,0.0,0.0,0.0,0.0,0.0,0.0,0.0,0.0,0.0,0.0,0.0,0.0,0.0,0.0,0.0,0.0,0.0,0.0,0.0,0.0,0.0,0.0,0.0,0.0,0.0,0.0,0.0,0.0,0.0,0.0,0.0,0.0,0.0,0.0,0.0,0.0,0.0,0.0,0.0,-4.2237,-4.3979,-4.5866,-4.7753,-4.964,-4.9233,-4.8914,-4.8711,-4.7695,-4.6123,0.0,0.0,0.0,0.0,0.0,0.0,0.0,0.0,0.0,0.0,0.0,0.0,0.0,0.0,0.0,0.0,0.0,0.0,0.0,0.0,0.0,0.0,0.0,0.0,0.0,0.0,0.0,0.0,-3.3993,-3.4418,-3.3699,0.0,0.0,0.0,0.0,0.0,0.0,0.0,0.0,0.0,0.0,-5.4211,-5.6815,-5.815,-5.9138,-5.9816,-5.8991,-5.8202,-5.8202,-5.6129,-5.3917,-5.1889,0.0,0.0,0.0,0.0,0.0,0.0,0.0,0.0,0.0,0.0,0.0,0.0,0.0,0.0,0.0,0.0,0.0,0.0,0.0,0.0,0.0,0.0,0.0,0.0,0.0,0.0,0.0,0.0,0.0,0.0,0.0,0.0,0.0,0.0,0.0,0.0,0.0,0.0,0.0,0.0,0.0,0.0,0.0,0.0,0.0,0.0,0.0,0.0,0.0,0.0,0.0,0.0,0.0,-4.2702,-4.4008,-4.5895,-4.7782,-4.9611,-4.964,-4.932,-4.8711,-4.8072,-4.6639,-4.4167,0.0,0.0,0.0,0.0,0.0,0.0,0.0,0.0,0.0,0.0,0.0,0.0,0.0,0.0,0.0,0.0,0.0,0.0,0.0,0.0,0.0,0.0,0.0,0.0,0.0,0.0,-3.5774,-3.4782,-3.41,0.0,0.0,0.0,0.0,0.0,0.0,0.0,0.0,0.0,0.0,-5.0356,-5.4387,-5.5703,-5.721,-5.8379,-5.9138,-5.7416,-5.5967,-5.5996,-5.4591,-5.2403,0.0,0.0,0.0,0.0,0.0,0.0,0.0,0.0,0.0,0.0,0.0,0.0,0.0,0.0,0.0,0.0,0.0,0.0,0.0,0.0,0.0,0.0,0.0,0.0,0.0,0.0,0.0,-4.7593,-4.7107,0.0,0.0,0.0,0.0,0.0,0.0,0.0,0.0,0.0,0.0,0.0,-4.5285,-4.5895,0.0,0.0,0.0,0.0,0.0,0.0,0.0,0.0,0.0,0.0,0.0,0.0,-4.2934,-4.4589,-4.6475,-4.8188,-4.9582,-4.8856,-4.8304,-4.8101,-4.6374,-4.4362,-4.2139,0.0,0.0,0.0,0.0,0.0,0.0,0.0,0.0,0.0,0.0,0.0,0.0,0.0,0.0,0.0,0.0,0.0,0.0,0.0,0.0,0.0,0.0,0.0,0.0,0.0,-3.6049,0.0,0.0,0.0,0.0,0.0,0.0,0.0,0.0,0.0,0.0,0.0,-4.3369,-4.6686,-4.9553,-5.1821,-5.3107,-5.4002,-5.4734,0.0,0.0,0.0,0.0,0.0,0.0,0.0,0.0,0.0,0.0,0.0,0.0,0.0,0.0,-4.5077,-4.1238,-4.0128,-3.9652,-3.9414,0.0,0.0,0.0,0.0,0.0,0.0,0.0,0.0,0.0,0.0,0.0,0.0,0.0,0.0,0.0,0.0,-4.7119,0.0,0.0,0.0,0.0,0.0,0.0,0.0,0.0,-4.5866,-4.6992,-4.7211,-4.7601,-4.7478,0.0,-4.6253,-4.4784,0.0,0.0,0.0,0.0,0.0,0.0,0.0,0.0,-4.2596,-4.4119,-4.5987,-4.7453,-4.8431,-4.7712,-4.7195,-4.6936,-4.4641,-4.2593,-4.1079,-3.9023,-3.7615,0.0,0.0,0.0,0.0,0.0,0.0,0.0,0.0,0.0,0.0,0.0,0.0,0.0,0.0,0.0,0.0,0.0,0.0,0.0,0.0,0.0,0.0,0.0,-3.6742,0.0,0.0,0.0,0.0,0.0,0.0,0.0,0.0,0.0,-3.9934,-4.2048,-4.4672,-4.7564,-4.9118,-5.0232,-5.0803,0.0,0.0,0.0,0.0,0.0,0.0,0.0,-4.7642,-4.7878,-4.5761,-4.4284,-4.4479,-4.5447,-4.5871,-4.4767,0.0,0.0,-4.2519,-4.1492,-4.1125,-4.0765,-4.0877,-4.0974,-4.0974,-4.1305,-4.1208,0.0,0.0,0.0,0.0,0.0,0.0,0.0,0.0,-4.9173,-4.9358,0.0,-4.721,0.0,0.0,0.0,0.0,0.0,0.0,0.0,0.0,-4.7456,-4.8384,-4.7966,-4.7932,-4.7645,-4.7178,-4.7673,-4.6963,-4.5127,-4.3199,0.0,0.0,0.0,0.0,0.0,0.0,-4.1924,-4.2654,-4.4397,-4.5605,-4.6349,-4.632,-4.5982,-4.5155,-4.3009,-4.1542,-4.0935,-3.983,-3.8189,-3.5844,-3.5583,0.0,0.0,0.0,0.0,0.0,0.0,0.0,0.0,0.0,0.0,0.0,0.0,0.0,0.0,0.0,0.0,0.0,0.0,0.0,0.0,-3.6683,0.0,0.0,0.0,0.0,0.0,0.0,0.0,0.0,0.0,0.0,-4.0363,-4.2996,-4.5549,-4.7649,0.0,0.0,0.0,0.0,-4.9816,-4.9729,-4.9702,-4.9918,-5.0344,-4.8991,-4.7328,-4.6036,0.0,0.0,-4.3143,-4.4274,-4.489,-4.3479,-4.4184,-4.5132,-4.5983,-4.4767,-4.3892,-4.3506,-4.271,-4.2038,-4.2038,-4.2375,-4.2399,-5.3281,0.0,0.0,0.0,0.0,-5.0875,-5.1789,-5.326,-5.2542,-5.194,-5.1265,-4.8977,0.0,0.0,0.0,0.0,0.0,0.0,-4.5704,-4.5902,-4.7461,-4.8453,-4.8675,-4.9161,-4.9059,-4.8443,-4.8223,-4.7377,-4.5886,-4.4358,-4.2927,-4.134,0.0,0.0,0.0,0.0,-4.2345,-4.3835,-4.479,-4.5577,-4.632,-4.5802,-4.4752,-4.2898,-4.2159,-4.1141,-3.9885,-3.9081,-3.8553,-3.8243,-3.5738,0.0,0.0,0.0,0.0,0.0,0.0,0.0,0.0,0.0,0.0,0.0,0.0,0.0,0.0,0.0,0.0,0.0,0.0,0.0,-3.5849,-3.5683,-3.617,0.0,0.0,0.0,0.0,0.0,0.0,0.0,0.0,0.0,-4.047,-4.3264,-4.5669,0.0,0.0,-4.7118,-4.6553,-4.6964,-4.7324,-4.7324,0.0,0.0,0.0,-4.6315,-4.5263,-4.5196,-4.4873,-4.4639,-4.4377,-4.4768,-4.4597,-4.3651,-4.3675,-4.3868,-4.3771,-4.3747,-4.3626,-4.3481,-4.3265,-4.3072,-4.3072,-4.3192,-4.2976,-5.5841,-5.4008,-5.3186,-5.2755,-5.2671,-5.2784,-5.3632,-5.4882,-5.3744,-5.2948,-5.2276,-4.9961,-4.7975,-4.6268,-4.4738,0.0,0.0,0.0,-4.6126,-4.6546,-4.7628,-4.8313,-4.8666,-4.9042,-4.8938,-4.8326,-4.7476,-4.6696,-4.5968,-4.4429,-4.3155,-4.2076,0.0,0.0,-4.1068,-4.1501,-4.227,-4.3443,-4.4054,-4.4553,-4.4914,-4.4303,-4.3283,-4.1928,-4.1434,-4.065,-3.9671,-3.9074,-3.8539,-3.8086,-3.5765,-3.4142,0.0,0.0,0.0,0.0,0.0,0.0,0.0,0.0,0.0,0.0,0.0,-3.148,-3.1072,0.0,0.0,0.0,-3.2541,-3.438,-3.6377,-3.5945,0.0,0.0,0.0,0.0,0.0,0.0,0.0,-3.8521,-3.9734,-4.073,-4.1078,-4.3037,-4.4648,-4.5323,-4.5254,-4.5078,-4.4869,0.0,-4.5279,-4.5385,-4.561,-4.5689,-4.5889,-4.5072,-4.4314,-4.4294,-4.4081,-4.3939,-4.399,-4.4087,-4.3844,-4.3433,-4.3216,-4.3048,-4.2543,-4.2687,-4.2976,-4.3168,-4.3216,-4.3216,-4.3216,-4.3216,-4.2952,-5.7895,-5.7137,-5.5241,-5.4301,-5.404,-5.47,-5.4925,-5.4867,-5.3468,-5.2863,-5.277,-5.0162,-4.8283,-4.6911,-4.5845,0.0,0.0,-4.6504,-4.7035,-4.7063,-4.7668,-4.7949,-4.8089,-4.7996,-4.7688,-4.7267,-4.6017,-4.5468,-4.5343,-4.3742,-4.2928,-4.2873,-4.223,-4.1838,-4.181,-4.1895,-4.2032,-4.2086,-4.2575,-4.2792,-4.2738,-4.2276,-4.1951,-4.1842,-4.073,-4.0015,-3.9934,-3.9419,-3.8229,-3.6341,-3.566,-3.425,-3.1986,0.0,0.0,0.0,0.0,0.0,0.0,0.0,0.0,0.0,0.0,0.0,0.0,0.0,0.0,0.0,-3.2533,0.0,-3.7021,-3.6858,0.0,0.0,0.0,-3.638,-3.7292,-3.7808,-3.8393,-3.9423,0.0,0.0,0.0,0.0,-4.2897,-4.3738,-4.3631,-4.3547,-4.3751,-4.3547,-4.3556,-4.4078,-4.4265,-4.4615,-4.4861,-4.4516,-4.3737,-4.2992,-4.2756,-4.2541,-4.2565,-4.2447,-4.2495,-4.2423,-4.2495,-4.2327,-4.1846,-4.1725,-4.1942,-4.2351,-4.2543,-4.2615,-4.2519,-4.2471,-4.2303,-5.818,-5.799,-5.7484,-5.6979,-5.6325,-5.6119,-5.631,-5.6371,-5.4669,-5.3296,-5.2141,-5.001,-4.7808,-4.5757,-4.5951,-4.5834,-4.5586,-4.6326,-4.6682,-4.6654,-4.6353,-4.6414,-4.6855,-4.6359,-4.6168,-4.5967,-4.5663,-4.5165,-4.4203,-4.3769,-4.3335,-4.29,-4.2698,-4.2412,-4.1976,-4.2018,-4.2222,-4.2656,-4.2358,-4.2005,-4.1571,-4.1842,-4.1544,-4.0621,-3.9436,-3.8575,-3.8033,-3.7427,-3.6612,-3.5685,-3.4211,-3.3146,-3.255,-3.1126,0.0,0.0,0.0,0.0,0.0,0.0,0.0,0.0,0.0,-3.2106,-3.023,0.0,-3.2219,0.0,-3.1967,-3.4259,-3.7284,-3.5916,0.0,0.0,-3.737,-3.744,-3.8575,-3.8712,-3.8704,-3.8959,-3.9466,-3.9661,-3.9588,-4.0048,-4.0546,-4.1003,-4.2528,-4.3721,-4.3696,-4.335,-4.3037,-4.3111,-4.2963,-4.284,-4.2963,-4.2291,-4.1696,-4.1184,-4.0643,-4.0355,-4.0355,-4.0355,-4.0355,-4.0355,-4.0355,-4.0306,-4.0234,-4.0162,-4.0234,-4.0379,-4.098,-4.1437,-4.1052,-4.098,-4.0812,-5.8274,-5.8274,-5.8274,-5.7929,-5.7491,-5.7121,-5.6933,-5.6765,-5.4458,-5.2836,-5.1439,-4.8977,-4.7129,-4.5915,-4.6216,-4.6277,-4.5994,-4.6319,-4.6319,-4.6075,-4.575,-4.5614,-4.5668,-4.5343,-4.5207,-4.518,-4.4908,-4.4447,-4.3796,-4.3497,-4.3199,-4.29,-4.29,-4.2738,-4.2412,-4.2385,-4.2575,-4.2873,-4.2304,-4.1842,-4.1517,-4.1019,-4.0588,-4.0187,-3.8421,-3.7258,-3.7061,-3.6067,-3.534,-3.4679,-3.3495,-3.2513,-3.2007,-3.1016,-3.0206,0.0,0.0,0.0,0.0,0.0,0.0,0.0,0.0,0.0,0.0,0.0,-3.2461,0.0,-3.2999,0.0,-3.7267,-3.6568,-3.6579,-3.8202,-3.8025,-3.8087,-3.8911,-3.8849,-3.8897,-3.9104,-3.9261,-3.937,-3.9176,-3.9417,-3.9585,-3.9806,-4.1047,-4.2005,-4.2209,-4.185,-4.1678,-4.1541,-4.1321,-4.1038,-4.1038,-4.0488,-3.9999,-3.9922,-3.9393,-3.9032,-3.9513,-3.9393,-3.932,-3.9537,-3.9609,-3.9513,-3.932,-3.9248,-3.9176,-3.9008,-3.9345,-3.9777,-3.9994,-4.0042,-3.9922,-5.8274,-5.8274,-5.8274,-5.8026,-5.7527,-5.7339,-5.696,-5.6225,-5.368,-5.1815,-5.0509,-4.7757,-4.6482,-4.6482,-4.6482,-4.6482,-4.6482,-4.6482,-4.6184,-4.5695,-4.556,-4.5234,-4.4827,-4.4664,-4.4556,-4.4447,-4.3904,-4.3579,-4.3416,-4.29,-4.2656,-4.2656,-4.2575,-4.2548,-4.2424,-4.237,-4.2397,-4.256,-4.2208,-4.1815,-4.1477,-3.9947,-3.9389,-3.9661,-3.7286,-3.6018,-3.6113,-3.496,-3.3983,-3.3295,-3.2835,-3.2105,-3.0989,-3.0879,-3.0639,0.0,-3.1023,0.0,0.0,0.0,0.0,0.0,0.0,0.0,0.0,-3.1793,-3.2605,-3.4384,-3.4695,-3.5426,-3.7071,-3.7559,-3.7971,-3.8348,-3.8469,-3.85,-3.8767,-3.8815,-3.896,-3.9345,-3.9393,-3.9393,-3.9224,-3.9345,-3.9393,-3.9224,-3.9248,-3.9491,-3.9854,-3.9916,-3.9867,-3.9722,-3.9358,-3.9165,-3.9165,-3.8767,-3.8623,-3.8936,-3.8407,-3.8142,-3.8912,-3.8743,-3.8623,-3.9008,-3.896,-3.8839,-3.8551,-3.8431,-3.8238,-3.7853,-3.7829,-3.819,-3.908,-3.9345,-3.9369,-5.8274,-5.8274,-5.8058,-5.7121,-5.5807,-5.5773,-5.5516,-5.4903,-5.3473,-5.1041,-4.8098,-4.6992,-4.6482,-4.6482,-4.6482,-4.6482,-4.6482,-4.6482,-4.6401,-4.6265,-4.5316,-4.5071,-4.5343,-4.4393,-4.3687,-4.3226,-4.3118,-4.2575,-4.1625,-4.1517,-4.1462,-4.1435,-4.0947,-4.0399,0.0,0.0,0.0,0.0,-4.1285,-4.0728,-3.8817,-3.9449,-3.9107,-3.7701,-3.5339,0.0,-3.3481,-3.2747,-3.1952,-3.1477,-3.1743,0.0,0.0,0.0,0.0,0.0,0.0,0.0,0.0,0.0,0.0,0.0,-3.2394,-3.1937,-3.1721,-3.2466,-3.3546,-3.4847,-3.5065,-3.5649,-3.7095,-3.7115,-3.7351,-3.8299,-3.8597,-3.8719,-3.8815,-3.8815,-3.8695,-3.831,-3.8286,-3.8142,-3.7781,-3.8022,-3.8118,-3.7781,-3.7661,-3.7469,-3.7315,-3.8248,-3.8851,-3.8466,-3.7637,-3.7084,-3.7012,-3.6964,-3.6964,-3.694,-3.6892,-3.6819,-3.7036,-3.7012,-3.6892,-3.7084,-3.6675,-3.6555,-3.6843,-3.6531,-3.6435,-3.6651,-3.6723,-3.7012,-3.8046,-3.8286,-3.8166,-5.8274,0.0,-5.7684,-5.6867,0.0,-5.5424,-5.4413,-5.3,-5.1816,-4.9586,-4.6482,-4.6157,-4.6048,-4.6048,-4.6347,-4.6319,-4.6048,-4.6048,-4.5723,-4.5126,-4.4529,-4.4094,-4.3796,-4.3199,-4.2602,-4.2032,-4.2005,-4.1707,-4.1137,-4.1137,-4.0923,-4.0522,-3.9999,-3.9336,-3.8658,-3.7738,-3.7738,-3.8684,-3.9477,-3.9154,-3.7689,-3.7869,-3.7612,-3.6673,0.0,0.0,0.0,0.0,0.0,0.0,0.0,0.0,0.0,0.0,0.0,-3.0543,-3.148,-3.1961,-3.1721,-3.2394,-3.2851,-3.2899,-3.3116,-3.3044,-3.2491,-3.3188,-3.3982,-3.4945,-3.5259,-3.5646,-3.6354,-3.6569,-3.6831,-3.7363,-3.7573,-3.7637,-3.7637,-3.7637,-3.7517,-3.7276,-3.7204,-3.7084,-3.6843,-3.7012,-3.7084,-3.6843,-3.6795,-3.6699,-3.6531,-3.7084,-3.7421,-3.6892,-3.6435,-3.6026,-3.5978,-3.5761,-3.5857,-3.6218,-3.5978,-3.5881,-3.6314,-3.5978,-3.5761,-3.6194,-3.5761,-3.5473,-3.617,-3.5978,-3.5761,-3.6141,-3.5979,-3.5789,-3.6355,-3.6868,-3.7132,-5.8274,-5.8182,-5.7401,-5.6642,-5.601,-5.4947,-5.3179,-5.0948,0.0,0.0,0.0,-4.5695,-4.5695,-4.5641,-4.6102,-4.6048,-4.5587,-4.5478,-4.4908,-4.3932,-4.3823,-4.3199,-4.2168,-4.2059,-4.1625,-4.0974,-4.0974,-4.08,-4.0599,-4.0599,-4.0228,-3.9465,-3.8833,-3.8043,-3.7092,-3.5987,-3.5762,-3.6361,-3.7253,-3.7483,-3.676,-3.6338,-3.6063,-3.5872,-3.4102,-3.2713,-3.1868,-3.1223,-3.0687,-3.0278,-3.0735,-3.0975,-3.0903,-3.1384,-3.1432,-3.0999,-3.2112,-3.2568,-3.18,-3.2927,-3.3383,-3.2803,-3.3549,-3.3909,-3.3573,-3.3933,-3.4366,-3.4799,-3.5232,-3.5497,-3.5617,-3.6002,-3.6314,-3.6386,-3.6411,-3.6435,-3.6435,-3.6411,-3.6435,-3.6314,-3.6386,-3.6362,-3.629,-3.6386,-3.6338,-3.629,-3.6266,-3.6146,-3.605,-3.605,-3.6002,-3.5497,-3.5208,-3.516,-3.5136,-3.4847,-3.4944,-3.5497,-3.504,-3.4919,-3.5449,-3.5136,-3.4992,-3.5521,-3.5016,-3.4774,-3.5346,-3.496,-3.496,-3.5212,-3.4606,-3.3823,-3.3925,-3.4466,-3.5017,-5.8274,-5.8182,-5.718,-5.5608,-5.3646,-5.3,-5.1204,-4.8534,-4.794,-4.6936,-4.5614,-4.613,-4.6075,-4.5587,-4.5668,-4.5668,-4.556,-4.5071,-4.4746,0.0,-4.4013,-4.3416,-4.2765,-4.2249,-4.1408,-4.0377,-4.0323,-3.9752,-3.8686,-3.8633,-3.8267,-3.7464,-3.6444,-3.5111,-3.357,-3.3154,-3.2859,-3.2536,-3.5531,-3.6403,-3.5235,-3.6232,-3.5985,-3.4338,-3.3184,-3.2171,-3.11,-3.0965,-3.0831,-3.0783,-3.1264,-3.136,-3.0927,-3.1384,-3.1432,-3.0951,-3.1063,-3.138,-3.1663,-3.1899,-3.2533,-3.3647,-3.3958,-3.4198,-3.4583,-3.4679,-3.4751,-3.4823,-3.4871,-3.5136,-3.5545,-3.5641,-3.5833,-3.6266,-3.6362,-3.6386,-3.629,-3.629,-3.6098,-3.5713,-3.6146,-3.6146,-3.5737,-3.6002,-3.605,-3.5809,-3.5569,-3.5376,-3.4703,-3.4751,-3.4799,-3.4342,-3.3885,-3.3645,-3.3645,-3.3573,-3.3597,-3.3669,-3.3669,-3.3621,-3.3861,-3.3741,-3.3669,-3.3741,-3.3239,-3.2792,-3.2674,-3.2016,-3.1754,-3.1495,-3.0994,-3.0511,-3.0339,-3.0201,-3.0734,-5.8058,-5.7527,-5.63,-5.491,-5.3426,-5.1424,-4.9506,-4.7671,-4.6751,-4.6065,-4.5641,-4.5885,-4.5668,-4.5153,-4.5451,-4.5234,-4.4583,-4.4312,-4.404,-4.3715,-4.3416,-4.2792,-4.1951,-4.1247,-4.0281,-3.912,-3.8674,-3.8083,-3.7222,-3.717,-3.665,-3.5679,-3.4805,-3.4022,-3.329,-3.2797,-3.2592,-3.2754,-3.4132,-3.4457,-3.3597,-3.4457,-3.4214,-3.2779,-3.2274,-3.1529,-3.0494,-3.0735,-3.0879,-3.0879,-3.1384,-3.1464,-3.0985,-3.1086,-3.1021,-3.0519,-3.0528,-3.0901,-3.1689,-3.2272,-3.2838,-3.3573,-3.3621,-3.3717,-3.3982,-3.4246,-3.4294,-3.403,-3.3982,-3.4102,-3.4318,-3.4366,-3.4463,-3.4679,-3.4727,-3.4703,-3.4703,-3.4727,-3.4631,-3.4414,-3.4559,-3.4607,-3.439,-3.4559,-3.4655,-3.439,-3.4366,-3.4054,-3.3332,-3.314,-3.3164,-3.3164,-3.302,-3.2731,-3.2466,-3.2418,-3.2418,-3.2418,-3.2683,-3.2827,-3.2851,-3.2851,-3.2851,-3.2711,-3.1817,-3.1035,-3.0859,-3.0193,-2.9572,-2.9371,-2.8709,-2.8179,-2.7926,-2.7494,-2.7977,-5.7871,-5.6927,-5.573,-5.4359,-5.2935,-5.0035,-4.8219,-4.726,-4.6201,-4.5777,-4.5777,-4.5668,-4.5261,-4.4773,-4.5207,-4.4719,-4.366,-4.3443,-4.3118,-4.2711,-4.2683,-4.21,-4.1073,-4.0292,-3.9401,-3.8175,-3.7309,-3.6647,-3.608,-3.5927,-3.5284,-3.4247,-3.3523,-3.3457,-3.3852,-3.3082,-3.3046,-3.3578,-3.3374,-3.3083,-3.2851,-3.3044,-3.2707,-3.1937,-3.1625,-3.1096,-3.035,-3.0663,-3.0927,-3.1048,-3.1456,-3.1472,-3.0937,-3.096,-3.0621,-3.0145,-2.9942,-3.026,-3.0991,-3.1988,-3.2711,-3.2923,-3.3044,-3.3116,-3.314,-3.3452,-3.3597,-3.3332,-3.3332,-3.3332,-3.3356,-3.3332,-3.3284,-3.3284,-3.3284,-3.3404,-3.3308,-3.3284,-3.3284,-3.3284,-3.3284,-3.3332,-3.3284,-3.3284,-3.3356,-3.3404,-3.3284,-3.3092,-3.2563,-3.201,-3.1865,-3.1961,-3.2034,-3.1769,-3.1384,-3.1312,-3.1312,-3.1312,-3.1625,-3.1704,-3.1776,-3.1645,-3.1759,-3.1437,-3.0183,-2.9304,-2.933,-2.8431,-2.764,-2.7345,-2.6537,-2.5987,-2.5545,-2.5267,-2.5754,-5.7778,-5.6988,-5.6091,-5.4012,-5.0944,-4.9003,-4.7857,-4.7288,-4.661,-4.6374,-4.6265,-4.5831,-4.5234,-4.4746,-4.4773,-4.4122,-4.2982,-4.2412,-4.2168,-4.2114,-4.2086,-4.1624,-4.0781,-4.0235,-3.9328,-3.7938,-3.6801,-3.5923,-3.5219,-3.4794,-3.4206,-3.3421,-3.2846,-3.3203,-3.408,-3.3283,-3.322,-3.4304,-3.3256,-3.3122,-3.3765,-3.302,-3.2515,-3.2418,-3.1456,-3.0903,-3.0711,-3.0855,-3.1096,-3.1553,-3.1625,-3.1472,-3.0937,-3.0847,-3.0458,-2.9573,-2.9194,-2.8946,-2.9109,-2.994,-3.092,-3.1793,-3.225,-3.2515,-3.2515,-3.2587,-3.2851,-3.3092,-3.3236,-3.3212,-3.3284,-3.3212,-3.314,-3.314,-3.314,-3.3284,-3.3212,-3.3284,-3.3284,-3.3284,-3.3068,-3.326,-3.3044,-3.302,-3.3116,-3.2947,-3.2875,-3.2755,-3.2298,-3.1769,-3.1288,-3.1023,-3.0663,-3.0374,-3.0278,-3.023,-3.0278,-3.0254,-3.0278,-3.0252,-2.9957,-2.9589,-2.9167,-2.9619,-2.8581,-2.7569,-2.695,-2.6235,-2.526,-2.4782,-2.4074,-2.3362,-2.2768,-2.2775,-2.3782,-5.6892,-5.5659,-5.49,-5.2776,-4.9728,-4.8545,-4.7568,-4.6742,-4.6179,-4.594,-4.5885,-4.5316,-4.4936,-4.4691,-4.4339,-4.3497,-4.2385,-4.2114,-4.1788,-4.1517,-4.1489,-4.0898,-3.9865,-3.9155,-3.7921,-3.6326,-3.5332,-3.444,-3.3668,-3.3015,-3.2861,-3.295,-3.273,-3.3083,-3.3871,-3.3421,-3.3568,-3.4289,-3.3465,-3.3368,-3.3717,-3.2394,-3.1384,-3.1023,-3.0326,-2.9941,-2.9965,-3.023,-3.0663,-3.1168,-3.1216,-3.0885,-3.0136,-2.978,-2.9194,-2.8365,-2.8584,-2.8706,-2.8626,-2.9603,-3.0348,-3.0711,-3.0951,-3.1072,-3.1096,-3.136,-3.1649,-3.1841,-3.213,-3.2322,-3.2322,-3.2058,-3.1985,-3.2202,-3.2058,-3.1985,-3.2298,-3.2034,-3.1865,-3.1841,-3.1577,-3.1408,-3.1384,-3.1384,-3.1408,-3.1408,-3.1408,-3.1297,-3.1096,-3.0591,-3.023,-2.9941,-2.9508,-2.934,-2.9532,-2.9629,-2.9426,-2.8987,-2.9024,-2.9022,-2.8603,-2.8734,-2.8632,-2.814,-2.7041,-2.6019,-2.5222,-2.4432,-2.3563,-2.2934,-2.2535,-2.2184,-2.1946,-2.1949,-2.2609,-5.5986,-5.4666,-5.352,-5.1424,-4.8994,-4.821,-4.7363,-4.6533,-4.6021,-4.575,-4.5533,-4.4963,-4.461,-4.4366,-4.3796,-4.29,-4.1842,-4.1571,-4.1272,-4.0892,-4.0865,-4.0333,-3.9295,-3.8204,-3.7006,-3.5407,-3.4165,-3.314,-3.2298,-3.1889,-3.201,-3.2548,-3.2537,-3.2934,-3.373,-3.3496,-3.3742,-3.4371,-3.379,-3.3494,-3.3501,-3.1889,-3.0687,-3.0278,-2.9508,-2.9148,-2.9292,-2.9677,-3.0025,-3.0467,-3.0501,-3.0085,-2.9209,-2.8744,-2.8166,-2.7436,-2.8014,-2.8486,-2.8445,-2.9308,-2.9869,-2.9893,-2.9989,-3.0086,-3.0158,-3.0446,-3.0639,-3.0711,-3.1023,-3.1264,-3.1408,-3.1096,-3.1023,-3.1192,-3.0879,-3.0831,-3.1144,-3.0855,-3.0687,-3.0615,-3.0494,-3.0086,-3.011,-3.0013,-2.9806,-2.9782,-2.9541,-2.9385,-2.9315,-2.8925,-2.8574,-2.8586,-2.8187,-2.8288,-2.8922,-2.8913,-2.8559,-2.793,-2.7905,-2.7653,-2.7211,-2.7316,-2.7473,-2.6216,-2.5527,-2.4943,-2.4236,-2.331,-2.2568,-2.2106,-2.1839,-2.175,-2.1731,-2.175,-2.175,-5.5491,-5.4272,-5.2034,-5.0247,-4.9052,-4.7889,-4.7081,-4.6482,-4.6401,-4.6102,-4.5505,-4.4936,-4.4366,-4.3742,-4.3145,-4.2276,-4.1218,-4.0621,-4.0323,-4.0241,-4.0214,-4.0118,-3.9702,-3.8049,-3.6709,-3.5511,-3.3655,-3.237,-3.1769,-3.1697,-3.1937,-3.2461,-3.2026,-3.2625,-3.3891,-3.3344,-3.3568,-3.4718,-3.4008,-3.344,-3.316,-3.1721,-3.0855,-3.0639,-2.9364,-2.8811,-2.9196,-2.9316,-2.9415,-2.9494,-2.9503,-2.9137,-2.8336,-2.8139,-2.7892,-2.7464,-2.7741,-2.7975,-2.8103,-2.8807,-2.934,-2.9388,-2.9725,-3.0037,-2.9941,-3.0062,-3.011,-3.011,-3.0206,-3.0446,-3.0783,-3.0735,-3.0591,-3.0302,-3.0158,-3.0158,-3.0206,-3.0206,-3.0134,-3.011,-3.0013,-2.9893,-2.9989,-2.9277,-2.8905,-2.8648,-2.8091,-2.7611,-2.7565,-2.7103,-2.686,-2.6834,-2.6819,-2.7021,-2.8146,-2.8265,-2.7708,-2.7231,-2.6843,-2.6201,-2.5126,-2.4378,-2.4571,-2.442,-2.3767,-2.3418,-2.3232,-2.2843,-2.2264,-2.182,-2.182,-2.1731,-2.1731,-2.1731,-2.1731,-5.3621,-5.2121,-5.0834,-4.9575,-4.8526,-4.7647,-4.7005,-4.6428,-4.6048,-4.5587,-4.499,-4.4366,-4.3552,-4.2602,-4.2032,-4.1517,-4.1082,-4.0458,-3.997,-3.9671,-3.9617,-3.8879,-3.7638,-3.6882,-3.5789,-3.4279,-3.3015,-3.2202,-3.1721,-3.1673,-3.1769,-3.1985,-3.213,-3.2599,-3.3095,-3.3436,-3.3873,-3.4311,-3.3995,-3.3615,-3.314,-3.1721,-3.0735,-3.0326,-2.9172,-2.8595,-2.8787,-2.9124,-2.9306,-2.9332,-2.9366,-2.9075,-2.8495,-2.7836,-2.7744,-2.8064,-2.8,-2.8042,-2.8307,-2.8611,-2.8787,-2.8811,-2.8955,-2.91,-2.9124,-2.9364,-2.9581,-2.9629,-2.9917,-3.0086,-2.9869,-2.9869,-2.9941,-3.0013,-2.9797,-2.9701,-2.9917,-2.9797,-2.9581,-2.9532,-2.9316,-2.9076,-2.8879,-2.8316,-2.7796,-2.7713,-2.6959,-2.645,-2.6343,-2.6168,-2.5934,-2.5912,-2.5866,-2.5902,-2.6152,-2.7103,-2.7267,-2.6857,-2.6362,-2.5801,-2.4935,-2.4423,-2.4464,-2.36,-2.2794,-2.2618,-2.2687,-2.2422,-2.182,-2.182,-2.1731,-2.1731,-2.1731,-2.1731,-2.1731,-5.2236,-5.0616,-4.9904,-4.9042,-4.7906,-4.7356,-4.6764,-4.6157,-4.575,-4.5153,-4.4393,-4.3769,-4.2928,-4.1978,-4.1191,-4.0811,-4.0784,-4.035,-3.997,-3.9617,-3.9321,-3.8432,-3.7066,-3.6134,-3.4861,-3.3454,-3.2581,-3.201,-3.1745,-3.1841,-3.1937,-3.1985,-3.2491,-3.2755,-3.2875,-3.3308,-3.3597,-3.3741,-3.3621,-3.3356,-3.2875,-3.1625,-3.0615,-3.0013,-2.9051,-2.8522,-2.8522,-2.8859,-2.897,-2.8855,-2.8893,-2.8667,-2.8128,-2.772,-2.7673,-2.8222,-2.8231,-2.8203,-2.8443,-2.8522,-2.8522,-2.8522,-2.8522,-2.8522,-2.8546,-2.8835,-2.9027,-2.9124,-2.9316,-2.9388,-2.9172,-2.9051,-2.9196,-2.9484,-2.9268,-2.9172,-2.9508,-2.9244,-2.9076,-2.9003,-2.8626,-2.825,-2.7914,-2.7021,-2.655,-2.6423,-2.5484,-2.4808,-2.4999,-2.4808,-2.4638,-2.4553,-2.4573,-2.4573,-2.4723,-2.5316,-2.5652,-2.5316,-2.5253,-2.4914,-2.4594,-2.4251,-2.382,-2.2882,-2.2441,-2.2353,-2.2087,-2.182,-2.1731,-2.1731,-2.1731,-2.1731,-2.1731,-2.1731,-2.1731,-5.1506,-4.9876,-4.9269,-4.8349,-4.7322,-4.675,-4.6102,-4.5695,-4.5533,-4.4773,-4.3769,-4.3145,-4.2493,-4.1761,-4.0638,-4.0123,-4.0096,-4.0059,-3.9978,-3.9843,-3.9401,-3.8714,-3.7808,-3.5745,-3.4354,-3.3514,-3.2342,-3.1721,-3.1769,-3.2178,-3.2418,-3.2563,-3.2996,-3.3284,-3.3284,-3.302,-3.2923,-3.3119,-3.2855,-3.2496,-3.237,-3.1297,-3.0481,-2.9954,-2.8994,-2.8419,-2.8522,-2.8546,-2.8435,-2.8089,-2.8032,-2.7743,-2.765,-2.7743,-2.7904,-2.8056,-2.8307,-2.8522,-2.8522,-2.8522,-2.8522,-2.8522,-2.8522,-2.8522,-2.8522,-2.857,-2.8595,-2.8619,-2.8619,-2.857,-2.8595,-2.8595,-2.8595,-2.8546,-2.8619,-2.8643,-2.8619,-2.8546,-2.8522,-2.8491,-2.8203,-2.7615,-2.6835,-2.5986,-2.5337,-2.4829,-2.3887,-2.3125,-2.356,-2.3299,-2.2706,-2.2706,-2.3038,-2.3387,-2.3387,-2.3474,-2.3541,-2.3521,-2.3541,-2.3474,-2.3212,-2.2862,-2.2862,-2.2176,-2.2176,-2.1998,-2.1998,-2.1731,-2.1731,-2.1731,-2.1731,-2.1731,-2.1731,-2.1731,-2.1731,-5.0396,-4.8677,-4.8098,-4.751,-4.6699,-4.6102,-4.575,-4.5505,-4.4746,-4.3877,-4.3145,-4.2548,-4.1734,-4.0773,-3.9865,-3.9241,-3.8831,-3.9122,-3.9055,-3.8925,-3.9388,-3.8574,-3.6904,-3.5887,-3.4706,-3.3527,-3.2672,-3.225,-3.225,-3.2418,-3.2491,-3.2659,-3.338,-3.3789,-3.3813,-3.3645,-3.3481,-3.3173,-3.2438,-3.1828,-3.1412,-3.0085,-2.9464,-2.9484,-2.8668,-2.8203,-2.8522,-2.8522,-2.8419,-2.8283,-2.8363,-2.8426,-2.8583,-2.8474,-2.8474,-2.8817,-2.8635,-2.8522,-2.8522,-2.8522,-2.8522,-2.8522,-2.8522,-2.8522,-2.8522,-2.8522,-2.8522,-2.8522,-2.8522,-2.8522,-2.8522,-2.8522,-2.8522,-2.8522,-2.8522,-2.8522,-2.8522,-2.8522,-2.8522,-2.8443,-2.8122,-2.7615,-2.6835,-2.5902,-2.5084,-2.4231,-2.3474,-2.3057,-2.2794,-2.2618,-2.2353,-2.2264,-2.2441,-2.2441,-2.253,-2.2599,-2.2599,-2.2755,-2.2775,-2.2706,-2.2353,-2.2087,-2.1998,-2.1909,-2.182,-2.182,-2.182,-2.182,-2.1731,-2.1731,-2.1731,-2.1731,-2.1731,-2.1731,-2.1731,-4.9687,-4.7782,-4.7284,-4.6672,-4.6102,-4.5505,-4.5126,-4.48,-4.3877,-4.3118,-4.2493,-4.1396,-4.0548,-3.9692,-3.8754,-3.8292,-3.8173,-3.8582,-3.8486,-3.8187,-3.891,-3.8252,-3.65,-3.5593,-3.4548,-3.3256,-3.2851,-3.2563,-3.2226,-3.2587,-3.2803,-3.2947,-3.3621,-3.415,-3.415,-3.3744,-3.3363,-3.3126,-3.1879,-3.1157,-3.0968,-2.9741,-2.913,-2.9437,-2.8668,-2.8331,-2.8522,-2.8522,-2.8522,-2.8522,-2.8522,-2.8691,-2.8931,-2.8691,-2.8667,-2.8835,-2.8739,-2.8522,-2.8522,-2.8522,-2.8522,-2.8522,-2.8522,-2.8522,-2.8522,-2.8522,-2.8522,-2.8522,-2.8522,-2.8522,-2.8522,-2.8522,-2.8522,-2.8522,-2.8522,-2.8522,-2.8522,-2.8522,-2.8443,-2.8283,-2.7881,-2.7267,-2.6505,-2.5568,-2.4829,-2.3887,-2.3212,-2.2969,-2.253,-2.2353,-2.2087,-2.1998,-2.1998,-2.1909,-2.182,-2.1731,-2.1731,-2.2069,-2.2334,-2.2334,-2.2087,-2.2087,-2.1998,-2.182,-2.1731,-2.1731,-2.1731,-2.1731,-2.1731,-2.1731,-2.1731,-2.1731,-2.1731,-2.1731,-2.1731,-4.942,-4.7426,-4.6796,-4.6184,-4.5587,-4.5017,-4.4393,-4.3715,-4.3118,-4.2466,-4.1612,-4.0161,-3.9203,-3.878,-3.7712,-3.7271,-3.7807,-3.8201,-3.8038,-3.7717,-3.809,-3.7989,-3.7146,-3.5503,-3.4125,-3.3116,-3.3116,-3.2731,-3.1985,-3.2683,-3.3236,-3.3188,-3.3693,-3.4126,-3.4102,-3.3126,-3.2724,-3.2534,-3.1112,-3.0738,-3.1318,-3.0107,-2.9518,-2.9893,-2.9056,-2.8587,-2.8522,-2.8522,-2.8522,-2.8522,-2.8522,-2.8522,-2.8546,-2.8522,-2.8522,-2.857,-2.8522,-2.8522,-2.8522,-2.8522,-2.8522,-2.8522,-2.8522,-2.8522,-2.8522,-2.8522,-2.8522,-2.8522,-2.8522,-2.8522,-2.8522,-2.8522,-2.8522,-2.8522,-2.8522,-2.8522,-2.8522,-2.8522,-2.8259,-2.7857,-2.7348,-2.667,-2.5568,-2.4467,-2.3973,-2.3367,-2.2599,-2.2441,-2.2353,-2.2087,-2.182,-2.1731,-2.182,-2.1731,-2.1731,-2.1731,-2.1731,-2.182,-2.2069,-2.1998,-2.1998,-2.1909,-2.1909,-2.1731,-2.1731,-2.1731,-2.1731,-2.1731,-2.1731,-2.1731,-2.1731,-2.1731,-2.1731,-2.1731,-2.1731,-4.9098,-4.8415,-4.7065,-4.613,-4.556,-4.4963,-4.4094,-4.3118,-4.2493,-4.1652,-4.0572,-3.9588,-3.8727,-3.8359,-3.6973,-3.6338,-3.6618,-3.6875,-3.6993,-3.6836,-3.7661,-3.7733,-3.7273,-3.6271,-3.5184,-3.4222,-3.3597,-3.2947,-3.2346,-3.2587,-3.2755,-3.2755,-3.3573,-3.3672,-3.3055,-3.2724,-3.1902,-3.1157,-3.0652,-3.0125,-3.0124,-2.9773,-2.9502,-2.9555,-2.9272,-2.8916,-2.8539,-2.8522,-2.8522,-2.8522,-2.8522,-2.8522,-2.8522,-2.8522,-2.8522,-2.8522,-2.8522,-2.8522,-2.8522,-2.8522,-2.8522,-2.8522,-2.8522,-2.8522,-2.8522,-2.8522,-2.8522,-2.8522,-2.8522,-2.8522,-2.8522,-2.8522,-2.8522,-2.8522,-2.8419,-2.8419,-2.8443,-2.8522,-2.8179,-2.7267,-2.667,-2.5757,-2.4553,-2.3867,-2.3367,-2.2687,-2.2353,-2.2264,-2.2087,-2.1998,-2.1731,-2.1731,-2.1731,-2.1731,-2.1731,-2.1731,-2.1731,-2.1731,-2.182,-2.182,-2.182,-2.182,-2.1731,-2.1731,-2.1731,-2.1731,-2.1731,-2.1731,-2.1731,-2.1731,-2.1731,-2.1731,-2.1731,-2.1731,-2.1731,-4.8761,-4.8144,-4.649,-4.5533,-4.5126,-4.4312,-4.3389,-4.2424,-4.1585,-4.0616,-3.9627,-3.8303,-3.7577,-3.7201,-3.6048,-3.5622,-3.5819,-3.6227,-3.6507,-3.6892,-3.7589,-3.7637,-3.7204,-3.6819,-3.6074,-3.4871,-3.4222,-3.3573,-3.2899,-3.2611,-3.2611,-3.2851,-3.3188,-3.3028,-3.2536,-3.2043,-3.167,-3.0928,-3.0308,-2.9943,-3.0351,-3.0001,-2.9893,-2.9886,-2.9867,-2.9404,-2.8955,-2.8835,-2.8763,-2.8595,-2.8522,-2.8522,-2.8522,-2.8522,-2.8522,-2.8522,-2.8522,-2.8522,-2.8522,-2.8522,-2.8522,-2.8522,-2.8522,-2.8522,-2.8522,-2.8522,-2.8522,-2.8522,-2.8522,-2.8522,-2.8522,-2.8522,-2.8339,-2.8018,-2.7938,-2.7938,-2.7938,-2.7834,-2.7162,-2.634,-2.5589,-2.5084,-2.3714,-2.3454,-2.3038,-2.2441,-2.2264,-2.2087,-2.182,-2.1731,-2.1731,-2.1731,-2.1731,-2.1731,-2.1731,-2.1731,-2.1731,-2.1731,-2.1731,-2.1731,-2.1731,-2.1731,-2.1731,-2.1731,-2.1731,-2.1731,-2.1731,-2.1731,-2.1731,-2.1731,-2.1731,-2.1731,-2.1731,-2.1731,-2.1731,-4.8275,-4.7205,-4.5567,-4.4719,-4.4474,-4.347,-4.2641,-4.1692,-4.0733,-3.9717,-3.871,-3.6919,-3.6388,-3.5978,-3.5404,-3.5064,-3.5521,-3.6098,-3.6675,-3.7108,-3.7565,-3.7541,-3.706,-3.6964,-3.6074,-3.4847,-3.4727,-3.3958,-3.3068,-3.2563,-3.2731,-3.2947,-3.2687,-3.2599,-3.2394,-3.1669,-3.1414,-3.1298,-3.0514,-3.0489,-3.1026,-3.0738,-3.0541,-3.0563,-3.0217,-2.9834,-2.9484,-2.9292,-2.9051,-2.8522,-2.8522,-2.8522,-2.8522,-2.8522,-2.8522,-2.8522,-2.8522,-2.8522,-2.8546,-2.8595,-2.8643,-2.8667,-2.8643,-2.8595,-2.8643,-2.8595,-2.8522,-2.8522,-2.8522,-2.8522,-2.8419,-2.8419,-2.8018,-2.7429,-2.7185,-2.7021,-2.6835,-2.673,-2.6152,-2.4914,-2.4488,-2.4145,-2.3627,-2.3125,-2.2618,-2.2264,-2.2087,-2.1909,-2.1731,-2.1731,-2.1731,-2.1731,-2.1731,-2.1731,-2.1731,-2.1731,-2.1731,-2.1731,-2.1731,-2.1731,-2.1731,-2.1731,-2.1731,-2.1731,-2.1731,-2.1731,-2.1731,-2.1731,-2.1731,-2.1731,-2.1731,-2.1731,-2.1731,-2.1731,-2.1731,-4.8218,-4.7819,-4.6107,-4.4854,-4.4013,-4.3687,-4.2663,-4.109,-4.0764,-3.9599,-3.8178,-3.701,-3.6326,-3.5978,-3.5211,-3.4895,-3.516,-3.593,-3.6675,-3.7156,-3.7276,-3.706,-3.6651,-3.6555,-3.5713,-3.4631,-3.4246,-3.3477,-3.2491,-3.2563,-3.2563,-3.2707,-3.2742,-3.2465,-3.2418,-3.225,-3.1803,-3.1298,-3.109,-3.104,-3.1163,-3.1288,-3.1201,-3.0927,-3.0422,-3.011,-2.9869,-2.9508,-2.9051,-2.8667,-2.8546,-2.857,-2.8522,-2.8546,-2.8546,-2.8522,-2.8522,-2.8522,-2.857,-2.8835,-2.91,-2.9076,-2.9051,-2.9124,-2.91,-2.8715,-2.8546,-2.8522,-2.8522,-2.8419,-2.8179,-2.7753,-2.7348,-2.6835,-2.6257,-2.5568,-2.5062,-2.54,-2.5062,-2.4125,-2.3607,-2.326,-2.2334,-2.2246,-2.1998,-2.1928,-2.182,-2.1731,-2.1731,-2.1731,-2.1731,-2.1731,-2.1731,-2.1731,-2.1731,-2.1731,-2.1731,-2.1731,-2.1731,-2.1731,-2.1731,-2.1731,-2.1731,-2.1731,-2.1731,-2.1731,-2.1731,-2.1731,-2.1731,-2.1731,-2.1731,-2.1731,-2.1731,-2.1731,-2.1731,-4.7808,-4.7197,-4.5805,-4.4637,-4.3796,-4.3049,-4.2039,-4.0807,-3.999,-3.8783,-3.7434,-3.6578,-3.5893,-3.5404,-3.5017,-3.4823,-3.4992,-3.5641,-3.6314,-3.6699,-3.6795,-3.6531,-3.6026,-3.5809,-3.5232,-3.4703,-3.4511,-3.3837,-3.3356,-3.2923,-3.302,-3.3164,-3.2981,-3.258,-3.223,-3.2369,-3.1879,-3.1228,-3.1412,-3.1569,-3.1389,-3.156,-3.1601,-3.1288,-3.0951,-3.0735,-3.0446,-2.9965,-2.9436,-2.9027,-2.8883,-2.8763,-2.8619,-2.8739,-2.8763,-2.8546,-2.8522,-2.8522,-2.8643,-2.8979,-2.9292,-2.9316,-2.9316,-2.9292,-2.9172,-2.8811,-2.8546,-2.8419,-2.8099,-2.7777,-2.7162,-2.6648,-2.6152,-2.5568,-2.5062,-2.4296,-2.3627,-2.3953,-2.4125,-2.3105,-2.2687,-2.2334,-2.1909,-2.1731,-2.1731,-2.182,-2.182,-2.1731,-2.1731,-2.1731,-2.1731,-2.1731,-2.1731,-2.1731,-2.1731,-2.1731,-2.1731,-2.1731,-2.1731,-2.1731,-2.1731,-2.1731,-2.1731,-2.1731,-2.1731,-2.1731,-2.1731,-2.1731,-2.1731,-2.1731,-2.1731,-2.1731,-2.1731,-2.1731,-2.1731,-4.727,-4.6155,-4.4901,-4.4003,-4.331,-4.2107,-4.1136,-4.0395,-3.9121,-3.7966,-3.6727,-3.5912,-3.5572,-3.4919,-3.4823,-3.4847,-3.5112,-3.5521,-3.6146,-3.6242,-3.629,-3.5978,-3.5521,-3.5184,-3.5112,-3.54,-3.4847,-3.4463,-3.4006,-3.3837,-3.3404,-3.3669,-3.3289,-3.284,-3.2369,-3.2324,-3.2371,-3.1852,-3.2156,-3.2035,-3.1872,-3.1865,-3.1841,-3.1793,-3.1577,-3.1456,-3.1096,-3.0591,-3.0013,-2.9581,-2.9532,-2.9244,-2.9003,-2.9076,-2.9268,-2.8811,-2.8883,-2.8931,-2.9051,-2.934,-2.9653,-2.9532,-2.9581,-2.9508,-2.9388,-2.9027,-2.853,-2.7962,-2.751,-2.6588,-2.5652,-2.5231,-2.4723,-2.4125,-2.38,-2.3125,-2.253,-2.2775,-2.2668,-2.2353,-2.2087,-2.1909,-2.182,-2.1731,-2.1731,-2.1731,-2.1731,-2.1731,-2.1731,-2.1731,-2.1731,-2.1731,-2.1731,-2.1731,-2.1731,-2.1731,-2.1731,-2.1731,-2.1731,-2.1731,-2.1731,-2.1731,-2.1731,-2.1731,-2.1731,-2.1731,-2.1731,-2.1731,-2.1731,-2.1731,-2.1731,-2.1731,-2.1731,-2.1731,-2.1731,-4.6256,-4.5448,-4.3748,-4.2584,-4.1981,-4.0971,-4.016,-3.9496,-3.9113,-3.8054,-3.6517,-3.6343,-3.5665,-3.504,-3.4823,-3.504,-3.54,-3.5785,-3.5954,-3.5809,-3.5737,-3.5473,-3.5088,-3.4919,-3.4895,-3.4775,-3.4487,-3.3958,-3.3549,-3.3477,-3.3645,-3.2999,-3.2792,-3.2865,-3.3196,-3.3387,-3.3126,-3.2957,-3.3148,-3.3071,-3.2563,-3.2298,-3.2226,-3.2178,-3.1841,-3.1841,-3.1913,-3.1264,-3.0687,-3.0615,-3.0615,-3.0302,-2.9941,-2.9917,-2.9917,-2.9749,-2.9677,-2.9629,-2.9725,-3.0206,-3.0543,-3.0615,-3.047,-3.0278,-2.9941,-2.933,-2.8373,-2.7254,-2.64,-2.5652,-2.5484,-2.4467,-2.4039,-2.3541,-2.295,-2.2353,-2.2176,-2.2087,-2.2069,-2.182,-2.1731,-2.1731,-2.1731,-2.1731,-2.1731,-2.1731,-2.1731,-2.1731,-2.1731,-2.1731,-2.1731,-2.1731,-2.1731,-2.1731,-2.1731,-2.1731,-2.1731,-2.1731,-2.1731,-2.1731,-2.1731,-2.1731,-2.1731,-2.1553,-2.1642,-2.1731,-2.1731,-2.1731,-2.1731,-2.1731,-2.1731,-2.1731,-2.1731,-2.1731,-2.1731,-4.622,-4.4966,-4.3606,-4.2488,-4.1576,-4.0338,-3.9622,-3.9183,-3.8521,-3.7545,-3.6609,-3.6122,-3.5761,-3.5256,-3.4919,-3.5016,-3.5256,-3.5425,-3.5425,-3.5232,-3.5184,-3.5112,-3.4847,-3.4823,-3.4823,-3.4775,-3.4535,-3.4198,-3.3789,-3.4198,-3.4078,-3.3791,-3.3458,-3.3386,-3.3623,-3.3601,-3.3434,-3.3549,-3.3717,-3.3693,-3.2923,-3.2683,-3.2394,-3.2058,-3.1913,-3.1985,-3.2178,-3.1456,-3.1048,-3.1144,-3.1023,-3.0759,-3.0639,-3.0663,-3.0639,-3.0254,-3.0134,-3.011,-3.0182,-3.0567,-3.0831,-3.0807,-3.0687,-3.0543,-3.0097,-2.9059,-2.7506,-2.599,-2.4957,-2.4211,-2.3714,-2.3105,-2.2775,-2.2687,-2.2176,-2.1998,-2.1928,-2.1731,-2.1731,-2.1731,-2.1731,-2.1731,-2.1731,-2.1731,-2.1731,-2.1731,-2.1731,-2.1731,-2.1731,-2.1731,-2.1731,-2.1731,-2.1731,-2.1731,-2.1642,-2.1642,-2.1553,-2.1642,-2.1553,-2.1553,-2.1553,-2.1463,-2.1374,-2.1266,-2.1374,-2.1553,-2.1642,-2.1642,-2.1642,-2.1731,-2.1731,-2.1731,-2.1731,-2.1731,-2.1731,-4.5895,-4.4199,-4.3459,-4.2262,-4.0919,-3.9597,-3.8921,-3.8718,-3.7879,-3.7108,-3.6531,-3.617,-3.5881,-3.5545,-3.5208,-3.4968,-3.4871,-3.4968,-3.504,-3.4895,-3.4871,-3.4847,-3.4823,-3.4823,-3.4823,-3.4823,-3.4775,-3.4751,-3.4463,-3.4655,-3.4679,-3.4246,-3.4006,-3.3861,-3.3669,-3.3791,-3.3404,-3.3501,-3.3669,-3.3885,-3.3308,-3.2779,-3.2298,-3.1889,-3.1841,-3.213,-3.2563,-3.1865,-3.1553,-3.1577,-3.1408,-3.1048,-3.112,-3.1432,-3.1264,-3.0591,-3.0422,-3.0398,-3.0543,-3.0783,-3.112,-3.1096,-3.0687,-3.0577,-2.9753,-2.8179,-2.5994,-2.4337,-2.3454,-2.3018,-2.2511,-2.1909,-2.182,-2.182,-2.182,-2.1731,-2.1731,-2.1731,-2.1731,-2.1731,-2.1731,-2.1731,-2.1731,-2.1731,-2.1731,-2.1731,-2.1731,-2.1731,-2.1731,-2.1731,-2.1731,-2.1731,-2.1731,-2.1731,-2.1642,-2.1463,-2.1463,-2.1374,-2.1195,-2.1105,-2.1105,-2.1015,-2.1015,-2.0907,-2.1177,-2.1374,-2.1553,-2.1642,-2.1553,-2.1553,-2.1642,-2.1731,-2.1731,-2.1731,-2.1731,-4.4657,-4.2876,-4.1931,-4.0542,-3.8993,-3.8411,-3.8185,-3.8137,-3.7911,-3.7589,-3.6964,-3.6892,-3.629,-3.5713,-3.5545,-3.5232,-3.5064,-3.516,-3.516,-3.4871,-3.4823,-3.4823,-3.4823,-3.4823,-3.4823,-3.4823,-3.4823,-3.4535,-3.4463,-3.4703,-3.439,-3.3885,-3.403,-3.3982,-3.3885,-3.3958,-3.4222,-3.4463,-3.4607,-3.4222,-3.3356,-3.2779,-3.2466,-3.2346,-3.237,-3.2587,-3.2947,-3.2442,-3.225,-3.2274,-3.1841,-3.1577,-3.1577,-3.1601,-3.1649,-3.1504,-3.148,-3.1456,-3.1384,-3.1432,-3.1368,-3.1344,-3.1225,-3.0754,-2.9026,-2.6976,-2.4923,-2.3973,-2.295,-2.2353,-2.2087,-2.182,-2.1731,-2.1731,-2.1731,-2.1731,-2.1731,-2.1731,-2.1731,-2.1731,-2.1731,-2.1731,-2.1731,-2.1731,-2.1731,-2.1731,-2.1731,-2.1731,-2.1731,-2.1731,-2.1553,-2.1553,-2.1642,-2.1731,-2.1642,-2.1553,-2.1463,-2.1284,-2.1015,-2.0744,-2.0744,-2.0744,-2.0473,-2.0564,-2.0835,-2.1087,-2.1284,-2.1284,-2.1374,-2.1463,-2.1642,-2.1731,-2.1731,-2.1731,-2.1731,-4.4197,-4.3016,-4.131,-3.9894,-3.8832,-3.8218,-3.7805,-3.7517,-3.7204,-3.6964,-3.6627,-3.6074,-3.5569,-3.5304,-3.5449,-3.5328,-3.4968,-3.5088,-3.5064,-3.4895,-3.4823,-3.4823,-3.4823,-3.4823,-3.4823,-3.4823,-3.4799,-3.4775,-3.4607,-3.4631,-3.4511,-3.4246,-3.4078,-3.403,-3.4102,-3.4054,-3.415,-3.427,-3.4318,-3.3982,-3.3356,-3.2779,-3.237,-3.2106,-3.2346,-3.2779,-3.3044,-3.2803,-3.2707,-3.2683,-3.2178,-3.1673,-3.1673,-3.1673,-3.1649,-3.1649,-3.1649,-3.1649,-3.1649,-3.1673,-3.1383,-3.0819,-3.0454,-2.9255,-2.7238,-2.5716,-2.4128,-2.292,-2.2264,-2.1909,-2.1928,-2.1731,-2.1731,-2.1731,-2.1731,-2.1731,-2.1731,-2.1731,-2.1731,-2.1731,-2.1731,-2.1731,-2.1731,-2.1731,-2.1642,-2.1642,-2.1642,-2.1642,-2.1642,-2.1731,-2.1463,-2.1284,-2.1463,-2.1731,-2.1642,-2.1642,-2.1553,-2.1463,-2.1087,-2.0817,-2.0637,-2.0546,-2.0292,-2.011,-2.0275,-2.0546,-2.0907,-2.1177,-2.1463,-2.1553,-2.1731,-2.1731,-2.1731,-2.1731,-2.1731,-4.3153,-4.2502,-4.0812,-3.9526,-3.862,-3.8097,-3.7565,-3.7156,-3.6651,-3.6435,-3.6122,-3.54,-3.4944,-3.4968,-3.5136,-3.4992,-3.4847,-3.4823,-3.4823,-3.4823,-3.4823,-3.4823,-3.4823,-3.4823,-3.4823,-3.4823,-3.4823,-3.4775,-3.4799,-3.4799,-3.4799,-3.4799,-3.4438,-3.4294,-3.4246,-3.4294,-3.4342,-3.4342,-3.4198,-3.3813,-3.3308,-3.2779,-3.2322,-3.2202,-3.2394,-3.2899,-3.314,-3.2971,-3.2996,-3.2755,-3.2178,-3.1673,-3.1673,-3.1673,-3.1673,-3.1673,-3.1673,-3.1673,-3.1673,-3.1673,-3.1116,-3.0325,-2.9014,-2.7778,-2.5723,-2.4754,-2.3919,-2.2419,-2.1946,-2.175,-2.1731,-2.1731,-2.1731,-2.1731,-2.1731,-2.1731,-2.175,-2.1768,-2.1768,-2.1731,-2.1731,-2.1731,-2.1731,-2.1731,-2.1642,-2.1553,-2.1463,-2.1463,-2.1463,-2.1374,-2.1284,-2.0997,-2.1266,-2.1553,-2.1642,-2.1642,-2.1642,-2.1463,-2.1087,-2.0817,-2.0637,-2.0275,-2.0002,-1.982,-2.0002,-2.0365,-2.0997,-2.1266,-2.1553,-2.1642,-2.1731,-2.1731,-2.1731,-2.1731,-2.1731,-4.0789,-4.029,-4.0134,-3.9013,-3.7404,-3.7252,-3.7228,-3.7084,-3.6579,-3.6338,-3.6122,-3.5352,-3.5064,-3.516,-3.4607,-3.4463,-3.4799,-3.4823,-3.4799,-3.4799,-3.4823,-3.4823,-3.4823,-3.4823,-3.4823,-3.4823,-3.4823,-3.4823,-3.4847,-3.4968,-3.4895,-3.4799,-3.4751,-3.4775,-3.4703,-3.4631,-3.4631,-3.4511,-3.4222,-3.3741,-3.326,-3.2827,-3.2466,-3.2563,-3.2899,-3.326,-3.3308,-3.3212,-3.3044,-3.2755,-3.2058,-3.1673,-3.1673,-3.1673,-3.1673,-3.1673,-3.1673,-3.1673,-3.1673,-3.1472,-3.1003,-2.9875,-2.8272,-2.6546,-2.5252,-2.4028,-2.3075,-2.2354,-2.1933,-2.175,-2.1731,-2.1731,-2.1731,-2.1768,-2.1805,-2.1896,-2.1878,-2.186,-2.1841,-2.1768,-2.1731,-2.1731,-2.1731,-2.1731,-2.1463,-2.1356,-2.0997,-2.1015,-2.0727,-2.0727,-2.0907,-2.0817,-2.0997,-2.1266,-2.1553,-2.1642,-2.1553,-2.1284,-2.0907,-2.0637,-2.0456,-2.0093,-1.9928,-2.0184,-2.0456,-2.0727,-2.0997,-2.1284,-2.1553,-2.1642,-2.1731,-2.1731,-2.1731,-2.1731,-2.1731,-3.9915,-3.8355,-3.8672,-3.8364,-3.7661,-3.7324,-3.7012,-3.6651,-3.6146,-3.5713,-3.5425,-3.5016,-3.4751,-3.4487,-3.403,-3.3861,-3.4294,-3.4342,-3.4559,-3.4751,-3.4823,-3.4823,-3.4823,-3.4823,-3.4823,-3.4823,-3.4847,-3.504,-3.5304,-3.5304,-3.5569,-3.5569,-3.5184,-3.4871,-3.4823,-3.4847,-3.4823,-3.4583,-3.4054,-3.3452,-3.326,-3.2803,-3.2491,-3.2539,-3.3404,-3.3693,-3.3717,-3.3428,-3.3212,-3.2827,-3.213,-3.1817,-3.1673,-3.1673,-3.1673,-3.1673,-3.1673,-3.1584,-3.1472,-3.1003,-3.0079,-2.8308,-2.6683,-2.5431,-2.4832,-2.3636,-2.2945,-2.2355,-2.197,-2.175,-2.1731,-2.1731,-2.175,-2.1786,-2.1896,-2.2025,-2.2025,-2.197,-2.1951,-2.1896,-2.1786,-2.1731,-2.1731,-2.1731,-2.1356,-2.1087,-2.0727,-2.0456,-2.0275,-2.0275,-2.0456,-2.0817,-2.0997,-2.1266,-2.1642,-2.1553,-2.1356,-2.1087,-2.0817,-2.0727,-2.0637,-2.0292,-2.0292,-2.0564,-2.0907,-2.1087,-2.1284,-2.1374,-2.1553,-2.1642,-2.1731,-2.1731,-2.1731,-2.1731,-2.1731,-3.912,-3.73,-3.7757,-3.7781,-3.7493,-3.7108,-3.6651,-3.6146,-3.5617,-3.5208,-3.4799,-3.4679,-3.4511,-3.415,-3.3789,-3.3861,-3.4246,-3.439,-3.4559,-3.4703,-3.4823,-3.4823,-3.4823,-3.4823,-3.4823,-3.4847,-3.5064,-3.5304,-3.5545,-3.5761,-3.6002,-3.6002,-3.5713,-3.5376,-3.504,-3.4895,-3.4823,-3.4583,-3.3885,-3.3308,-3.3212,-3.2803,-3.2683,-3.2803,-3.3597,-3.4078,-3.4078,-3.3861,-3.3452,-3.3044,-3.2491,-3.1913,-3.1745,-3.1673,-3.1673,-3.1649,-3.1472,-3.1294,-3.1003,-3.026,-2.8958,-2.7274,-2.5858,-2.4868,-2.4197,-2.3463,-2.2813,-2.2575,-2.2098,-2.1731,-2.1731,-2.1731,-2.1731,-2.1786,-2.208,-2.2208,-2.2116,-2.2043,-2.2043,-2.2025,-2.197,-2.1861,-2.1699,-2.1626,-2.1139,-2.0633,-2.0002,-1.982,-1.9911,-2.0002,-2.0365,-2.0727,-2.0997,-2.1374,-2.1642,-2.1553,-2.1553,-2.1463,-2.1195,-2.1087,-2.0997,-2.0654,-2.0654,-2.1105,-2.1284,-2.1374,-2.1463,-2.1553,-2.1642,-2.1642,-2.1731,-2.1731,-2.1731,-2.1731,-2.1731,-3.819,-3.73,-3.7757,-3.7397,-3.6555,-3.6459,-3.6146,-3.5689,-3.516,-3.4871,-3.4751,-3.4366,-3.4366,-3.4463,-3.4006,-3.4078,-3.4463,-3.4631,-3.4727,-3.4775,-3.4823,-3.4823,-3.4823,-3.4823,-3.4823,-3.4944,-3.5232,-3.5521,-3.5689,-3.617,-3.6411,-3.6405,-3.6261,-3.5877,-3.5569,-3.5064,-3.4847,-3.4679,-3.3789,-3.3477,-3.3284,-3.2947,-3.302,-3.3332,-3.3861,-3.4366,-3.4294,-3.4006,-3.3549,-3.3068,-3.2563,-3.2034,-3.1721,-3.1673,-3.1673,-3.1673,-3.0824,-3.0351,-3.0079,-2.9235,-2.8028,-2.6628,-2.5294,-2.4786,-2.4147,-2.3474,-2.2848,-2.2647,-2.219,-2.1805,-2.1731,-2.1731,-2.1731,-2.1841,-2.2116,-2.23,-2.219,-2.2153,-2.2153,-2.2172,-2.2208,-2.2208,-2.1951,-2.1529,-2.0893,-2.0297,-1.9428,-1.9271,-1.9637,-2.0002,-2.0456,-2.0727,-2.1087,-2.1374,-2.1642,-2.1642,-2.1642,-2.1553,-2.1463,-2.1445,-2.1356,-2.1195,-2.1284,-2.1553,-2.1642,-2.1553,-2.1642,-2.1642,-2.1731,-2.1731,-2.1731,-2.1731,-2.1731,-2.1731,-2.1731,-3.7974,-3.6747,-3.7613,-3.718,-3.6026,-3.6266,-3.6098,-3.5569,-3.5088,-3.4823,-3.4703,-3.427,-3.4102,-3.4102,-3.3933,-3.3909,-3.427,-3.4318,-3.439,-3.4799,-3.4823,-3.4823,-3.4823,-3.4823,-3.4823,-3.4968,-3.5352,-3.5881,-3.617,-3.6675,-3.7132,-3.73,-3.6582,-3.6026,-3.5489,-3.4817,-3.4335,-3.463,-3.4198,-3.3789,-3.3765,-3.3597,-3.3573,-3.3789,-3.4246,-3.4463,-3.4342,-3.3885,-3.3428,-3.2875,-3.2346,-3.1961,-3.1697,-3.1673,-3.1649,-3.1472,-3.0734,-2.9532,-2.868,-2.7746,-2.7105,-2.5974,-2.5216,-2.4745,-2.4356,-2.34,-2.307,-2.2777,-2.2171,-2.1823,-2.1731,-2.175,-2.1768,-2.1823,-2.2043,-2.2245,-2.2263,-2.2282,-2.2227,-2.2299,-2.2389,-2.1977,-2.162,-2.1637,-2.1216,-2.0703,-1.9979,-1.9795,-2.011,-2.0456,-2.0817,-2.0997,-2.1266,-2.1463,-2.1642,-2.1642,-2.1731,-2.1642,-2.1642,-2.1642,-2.1553,-2.1463,-2.1553,-2.1642,-2.1642,-2.1731,-2.1731,-2.1731,-2.1731,-2.1731,-2.1731,-2.1731,-2.1731,-2.1731,-2.1731,-3.7252,-3.6266,-3.706,-3.6747,-3.5809,-3.6194,-3.6026,-3.5376,-3.4968,-3.4823,-3.4751,-3.4463,-3.4342,-3.4246,-3.403,-3.3933,-3.4318,-3.4342,-3.439,-3.4799,-3.4823,-3.4823,-3.4823,-3.4823,-3.4823,-3.4992,-3.5545,-3.6098,-3.6386,-3.7132,-3.7565,-3.7556,-3.6754,-3.6145,-3.558,-3.5051,-3.4327,-3.4507,-3.4102,-3.3982,-3.3982,-3.3982,-3.3982,-3.415,-3.439,-3.4583,-3.4126,-3.3669,-3.3212,-3.2611,-3.2154,-3.1817,-3.1745,-3.1383,-3.1294,-3.0913,-2.9715,-2.8215,-2.6914,-2.6436,-2.5877,-2.5118,-2.4922,-2.4651,-2.4189,-2.3404,-2.3017,-2.2668,-2.2279,-2.215,-2.1986,-2.1986,-2.2041,-2.2115,-2.219,-2.241,-2.2135,-2.2153,-2.2062,-2.217,-2.212,-2.1717,-2.1394,-2.149,-2.1456,-2.1097,-2.0644,-2.064,-2.0542,-2.0835,-2.1087,-2.1266,-2.1356,-2.1553,-2.1642,-2.1642,-2.1731,-2.1731,-2.1731,-2.1731,-2.1642,-2.1642,-2.1642,-2.1731,-2.1731,-2.1731,-2.1731,-2.1731,-2.1731,-2.1731,-2.1731,-2.1731,-2.1731,-2.1731,-2.1731,-3.6122,-3.5737,-3.6194,-3.6122,-3.5761,-3.6074,-3.5713,-3.4871,-3.4847,-3.4823,-3.4799,-3.4799,-3.4727,-3.4775,-3.4751,-3.4727,-3.4727,-3.4751,-3.4775,-3.4799,-3.4823,-3.4823,-3.4823,-3.4823,-3.4823,-3.516,-3.5641,-3.6146,-3.6483,-3.7204,-3.7733,-3.7508,-3.6398,-3.59,-3.5646,-3.5189,-3.4539,-3.4335,-3.4294,-3.415,-3.4246,-3.4174,-3.4198,-3.4342,-3.4559,-3.4487,-3.415,-3.3813,-3.3191,-3.2596,-3.2189,-3.1878,-3.1461,-3.0644,-3.0351,-2.9465,-2.787,-2.6526,-2.5412,-2.5217,-2.502,-2.4726,-2.4726,-2.4305,-2.3929,-2.3481,-2.3186,-2.2926,-2.2625,-2.2644,-2.2553,-2.2537,-2.2501,-2.2539,-2.2575,-2.23,-2.188,-2.1735,-2.1662,-2.1731,-2.1896,-2.1586,-2.1377,-2.1444,-2.1816,-2.1621,-2.1371,-2.1671,-2.1514,-2.1032,-2.1302,-2.1553,-2.1642,-2.1642,-2.1731,-2.175,-2.1731,-2.1731,-2.1731,-2.1731,-2.1731,-2.175,-2.1731,-2.1731,-2.1731,-2.1731,-2.1731,-2.1731,-2.1731,-2.1731,-2.1731,-2.1731,-2.1731,-2.1731,-2.1731,-3.6098,-3.5689,-3.6194,-3.6098,-3.5617,-3.5376,-3.5088,-3.4847,-3.4823,-3.4823,-3.4823,-3.4823,-3.4823,-3.4823,-3.4823,-3.4823,-3.4823,-3.4823,-3.4799,-3.4823,-3.4823,-3.4823,-3.4823,-3.4823,-3.4823,-3.504,-3.5497,-3.6074,-3.6435,-3.7156,-3.7156,-3.6668,-3.6042,-3.571,-3.5324,-3.4987,-3.4762,-3.4528,-3.451,-3.4462,-3.4535,-3.4535,-3.4535,-3.4631,-3.4679,-3.4535,-3.415,-3.3741,-3.3002,-3.1785,-3.1178,-3.0557,-2.9577,-2.9212,-2.887,-2.7374,-2.6402,-2.567,-2.4717,-2.4771,-2.4745,-2.4529,-2.4529,-2.451,-2.4115,-2.3669,-2.3392,-2.311,-2.2938,-2.2938,-2.2924,-2.2945,-2.2889,-2.2778,-2.261,-2.2318,-2.1916,-2.1464,-2.1409,-2.1357,-2.151,-2.1455,-2.1229,-2.1779,-2.2141,-2.2097,-2.2224,-2.2416,-2.2335,-2.1844,-2.159,-2.1841,-2.1731,-2.1731,-2.175,-2.175,-2.175,-2.1731,-2.1786,-2.1805,-2.1805,-2.1786,-2.175,-2.1731,-2.1731,-2.1731,-2.1731,-2.1731,-2.1731,-2.1731,-2.1731,-2.1731,-2.1731,-2.1731,-2.1731,-3.5593,-3.5376,-3.5641,-3.5593,-3.528,-3.4968,-3.4823,-3.4823,-3.4823,-3.4823,-3.4823,-3.4823,-3.4823,-3.4823,-3.4823,-3.4823,-3.4823,-3.4823,-3.4823,-3.4823,-3.4823,-3.4823,-3.4823,-3.4823,-3.4823,-3.5016,-3.5328,-3.5809,-3.617,-3.6579,-3.6699,-3.6795,-3.6026,-3.5449,-3.5141,-3.5004,-3.4841,-3.4724,-3.4799,-3.4823,-3.4823,-3.4823,-3.4823,-3.4823,-3.4823,-3.4535,-3.4102,-3.3669,-3.2653,-3.1298,-3.0583,-2.9896,-2.8861,-2.8287,-2.7232,-2.5904,-2.5428,-2.4987,-2.4403,-2.4417,-2.451,-2.4449,-2.4449,-2.443,-2.4249,-2.3916,-2.3542,-2.324,-2.3271,-2.3233,-2.3315,-2.3243,-2.3056,-2.2868,-2.2555,-2.2244,-2.1771,-2.1302,-2.1112,-2.1045,-2.1088,-2.1048,-2.1344,-2.2013,-2.2567,-2.2723,-2.2886,-2.3021,-2.2811,-2.2354,-2.219,-2.2261,-2.1968,-2.1731,-2.1786,-2.1915,-2.1988,-2.2025,-2.2043,-2.2043,-2.1951,-2.1823,-2.175,-2.1731,-2.1731,-2.1731,-2.1731,-2.1731,-2.1731,-2.1731,-2.1731,-2.1731,-2.1731,-2.1731,-2.1731,-3.4847,-3.4847,-3.4823,-3.4895,-3.4823,-3.4823,-3.4823,-3.4799,-3.4751,-3.4751,-3.4727,-3.4679,-3.4631,-3.4607,-3.4655,-3.4751,-3.4775,-3.4823,-3.4823,-3.4823,-3.4823,-3.4823,-3.4823,-3.4823,-3.4823,-3.4992,-3.5208,-3.5449,-3.5665,-3.6026,-3.6483,-3.694,-3.5949,-3.5397,-3.5202,-3.4915,-3.4822,-3.4774,-3.4823,-3.4823,-3.4823,-3.4823,-3.4823,-3.4823,-3.4775,-3.4607,-3.4126,-3.3577,-3.296,-3.1646,-3.0441,-2.9635,-2.8271,-2.7076,-2.574,-2.4986,-2.4485,-2.4328,-2.4054,-2.4067,-2.4159,-2.4214,-2.4251,-2.435,-2.4189,-2.401,-2.3655,-2.356,-2.3632,-2.3578,-2.3617,-2.3709,-2.3592,-2.3294,-2.2848,-2.2426,-2.1989,-2.1369,-2.0864,-2.0786,-2.067,-2.07,-2.1443,-2.2114,-2.2736,-2.3114,-2.3404,-2.3578,-2.3382,-2.2887,-2.2704,-2.2612,-2.2354,-2.2135,-2.2135,-2.2263,-2.2355,-2.2392,-2.2373,-2.2263,-2.2171,-2.197,-2.1731,-2.1731,-2.1731,-2.1731,-2.1731,-2.1731,-2.1731,-2.1731,-2.1731,-2.1731,-2.1731,-2.1731,-2.1731,-3.4823,-3.4823,-3.4823,-3.4823,-3.4823,-3.4823,-3.4799,-3.4775,-3.439,-3.4246,-3.4174,-3.3909,-3.3933,-3.427,-3.4366,-3.4511,-3.4775,-3.4823,-3.4823,-3.4823,-3.4823,-3.4823,-3.4823,-3.4823,-3.4823,-3.4847,-3.4968,-3.5112,-3.528,-3.5569,-3.5641,-3.5473,-3.5088,-3.5112,-3.5088,-3.4823,-3.4823,-3.4823,-3.4823,-3.4726,-3.4628,-3.4726,-3.4823,-3.4702,-3.4654,-3.4435,-3.3861,-3.2957,-3.1938,-3.0622,-2.8804,-2.7535,-2.6187,-2.5218,-2.4583,-2.4044,-2.3758,-2.3736,-2.3749,-2.384,-2.3914,-2.4079,-2.4134,-2.4251,-2.4184,-2.4007,-2.386,-2.3937,-2.3994,-2.3956,-2.3955,-2.4044,-2.4152,-2.3643,-2.3121,-2.2626,-2.2134,-2.1485,-2.0755,-2.0487,-2.0263,-2.0816,-2.1677,-2.2215,-2.2719,-2.322,-2.38,-2.3987,-2.3956,-2.3607,-2.318,-2.3054,-2.2813,-2.2703,-2.263,-2.2648,-2.2758,-2.2795,-2.2795,-2.263,-2.241,-2.2116,-2.1878,-2.1768,-2.1731,-2.1731,-2.1731,-2.1731,-2.1731,-2.1731,-2.1731,-2.1731,-2.1731,-2.1731,-2.1731,-3.4342,-3.4174,-3.415,-3.415,-3.415,-3.415,-3.427,-3.4342,-3.3933,-3.3837,-3.4006,-3.3789,-3.3789,-3.4126,-3.427,-3.4463,-3.4799,-3.4823,-3.4823,-3.4823,-3.4823,-3.4823,-3.4823,-3.4823,-3.4823,-3.4823,-3.4847,-3.4944,-3.5088,-3.5112,-3.5112,-3.5064,-3.4992,-3.4823,-3.4823,-3.4823,-3.4823,-3.4823,-3.4726,-3.4531,-3.4213,-3.4115,-3.395,-3.3926,-3.3557,-3.3459,-3.2978,-3.1909,-3.1096,-2.9449,-2.76,-2.6267,-2.5294,-2.4673,-2.4249,-2.3999,-2.3828,-2.3584,-2.373,-2.3804,-2.3804,-2.3914,-2.4134,-2.4233,-2.3895,-2.3758,-2.3762,-2.3841,-2.3879,-2.3916,-2.3783,-2.3873,-2.411,-2.384,-2.3359,-2.2881,-2.2272,-2.1532,-2.1148,-2.0937,-2.1095,-2.166,-2.2364,-2.2719,-2.322,-2.3637,-2.4152,-2.4152,-2.4141,-2.4165,-2.3791,-2.3455,-2.3272,-2.3033,-2.2756,-2.2884,-2.318,-2.3121,-2.3217,-2.2997,-2.2758,-2.2318,-2.2006,-2.1951,-2.186,-2.1731,-2.1731,-2.1731,-2.1731,-2.1731,-2.1731,-2.1731,-2.1731,-2.1731,-2.1731,-3.3693,-3.3308,-3.3308,-3.3308,-3.3284,-3.3308,-3.3549,-3.3813,-3.3428,-3.3428,-3.3741,-3.3837,-3.3958,-3.4222,-3.4487,-3.4679,-3.4799,-3.4823,-3.4823,-3.4823,-3.4823,-3.4823,-3.4823,-3.4823,-3.4823,-3.4823,-3.4823,-3.5064,-3.5304,-3.516,-3.5088,-3.5352,-3.516,-3.4823,-3.4823,-3.4726,-3.4726,-3.4409,-3.4213,-3.3796,-3.3499,-3.3101,-3.2994,-3.2483,-3.184,-3.1337,-3.1227,-3.0687,-3.0034,-2.8524,-2.6625,-2.5448,-2.4824,-2.4473,-2.4295,-2.4122,-2.3975,-2.3914,-2.4042,-2.3969,-2.3804,-2.3767,-2.4005,-2.4005,-2.3767,-2.3791,-2.3795,-2.374,-2.3873,-2.391,-2.3855,-2.3814,-2.4049,-2.406,-2.3578,-2.3099,-2.2334,-2.176,-2.1596,-2.1508,-2.1913,-2.2391,-2.2828,-2.3203,-2.3538,-2.4053,-2.4152,-2.4152,-2.4233,-2.4196,-2.4049,-2.3767,-2.362,-2.3382,-2.3217,-2.3308,-2.3584,-2.362,-2.3602,-2.3363,-2.3052,-2.2557,-2.2245,-2.219,-2.208,-2.1823,-2.1731,-2.1731,-2.1731,-2.175,-2.1731,-2.1731,-2.1731,-2.1731,-2.1731,-3.338,-3.3284,-3.3284,-3.3284,-3.326,-3.326,-3.3356,-3.3332,-3.2899,-3.2731,-3.3044,-3.3332,-3.3621,-3.4054,-3.4102,-3.4366,-3.4823,-3.4823,-3.4823,-3.4823,-3.4823,-3.4823,-3.4823,-3.4823,-3.4823,-3.4847,-3.4847,-3.4919,-3.5184,-3.4992,-3.4871,-3.4992,-3.4968,-3.4823,-3.4823,-3.4628,-3.4311,-3.3918,-3.34,-3.3001,-3.2499,-3.2275,-3.2476,-3.1973,-3.1328,-3.1096,-3.0634,-2.9381,-2.8572,-2.7317,-2.5917,-2.4899,-2.4529,-2.435,-2.4251,-2.4196,-2.3969,-2.3987,-2.4024,-2.395,-2.3749,-2.3639,-2.384,-2.4067,-2.3877,-2.4067,-2.3956,-2.3864,-2.3999,-2.4165,-2.4049,-2.4049,-2.4134,-2.4042,-2.3785,-2.3112,-2.25,-2.2433,-2.2417,-2.2327,-2.2322,-2.2828,-2.3249,-2.3438,-2.3637,-2.3954,-2.4152,-2.4152,-2.4152,-2.4152,-2.417,-2.4005,-2.3859,-2.4005,-2.3932,-2.3804,-2.395,-2.3987,-2.3969,-2.373,-2.3327,-2.2722,-2.2465,-2.2447,-2.2135,-2.1823,-2.1768,-2.1731,-2.1786,-2.1805,-2.175,-2.1731,-2.175,-2.1786,-2.1823]},{"header":{"parameterUnit":"m.s-1","parameterCategory":1,"la1":31.0,"la2":29.5877,"lo1":-88.7671,"lo2":-86.6584,"dy":0.0162,"dx":0.0185,"nx":115,"ny":88,"refTime":"2023-08-09T00:00:00:Z","depth":0,"parameterNumber":3,"parameterNumberName":"V-component_of_WINDS"},"data":[0.0,0.0,0.0,0.0,0.0,0.0,0.0,0.0,0.0,0.0,0.0,0.0,0.0,0.0,0.0,0.0,0.0,0.0,0.0,0.0,0.0,0.0,0.0,0.0,0.0,0.0,0.0,0.0,0.0,0.0,0.0,0.0,0.0,0.0,0.0,0.0,0.0,0.0,0.0,0.0,0.0,0.0,0.0,0.0,0.0,0.0,0.0,0.0,0.0,0.0,0.0,0.0,0.0,0.0,0.0,0.0,0.0,0.0,0.0,0.0,0.0,0.0,0.0,0.0,0.0,0.0,0.0,0.0,0.0,0.0,0.0,0.0,0.0,0.0,0.0,0.0,0.0,0.0,0.0,0.0,0.0,0.0,0.0,0.0,0.0,0.0,0.0,0.0,0.0,0.0,0.0,0.0,0.0,0.0,0.0,0.0,0.0,0.0,0.0,0.0,0.0,0.0,0.0,0.0,0.0,0.0,0.0,0.0,0.0,0.0,0.0,0.0,0.0,0.0,0.0,0.0,0.0,0.0,0.0,0.0,0.0,0.0,0.0,0.0,0.0,0.0,0.0,0.0,0.0,0.0,0.0,0.0,0.0,0.0,0.0,0.0,0.0,0.0,0.0,0.0,0.0,0.0,0.0,0.0,0.0,0.0,0.0,0.0,0.0,0.0,0.0,0.0,0.0,0.0,0.0,0.0,0.0,0.0,0.0,0.0,0.0,0.0,0.0,0.0,0.0,0.0,0.0,0.0,0.0,0.0,0.0,0.0,0.0,0.0,0.0,0.0,0.0,0.0,0.0,0.0,0.0,0.0,0.0,0.0,0.0,0.0,0.0,0.0,0.0,0.0,0.0,0.0,0.0,0.0,0.0,0.0,0.0,0.0,0.0,0.0,0.0,0.0,0.0,0.0,0.0,0.0,0.0,0.0,0.0,0.0,0.0,0.0,0.0,0.0,0.0,0.0,0.0,0.0,0.0,0.0,0.0,0.0,0.0,0.0,0.0,0.0,0.0,0.0,0.0,0.0,0.0,0.0,0.0,0.0,0.0,0.0,0.0,0.0,0.0,0.0,0.0,0.0,0.0,0.0,0.0,0.0,0.0,0.0,0.0,0.0,0.0,0.0,0.0,0.0,0.0,0.0,0.0,0.0,0.0,0.0,0.0,0.0,0.0,0.0,0.0,0.0,0.0,0.0,0.0,0.0,0.0,0.0,0.0,0.0,0.0,0.0,0.0,0.0,0.0,0.0,0.0,0.0,0.0,0.0,0.0,0.0,0.0,0.0,0.0,0.0,0.0,0.0,0.0,0.0,0.0,0.0,0.0,0.0,0.0,0.0,0.0,0.0,0.0,0.0,0.0,0.0,0.0,0.0,0.0,0.0,0.0,0.0,0.0,0.0,0.0,0.0,0.0,0.0,0.0,0.0,0.0,0.0,0.0,0.0,0.0,0.0,0.0,0.0,0.0,0.0,0.0,0.0,0.0,0.0,0.0,0.0,0.0,0.0,0.0,0.0,0.0,0.0,0.0,0.0,0.0,0.0,0.0,0.0,0.0,0.0,0.0,0.0,0.0,0.0,0.0,0.0,0.0,0.0,0.0,0.0,0.0,0.0,0.0,0.0,0.0,0.0,0.0,0.0,0.0,0.0,0.0,0.0,0.0,0.0,0.0,0.0,0.0,0.0,0.0,0.0,0.0,0.0,0.0,0.0,0.0,0.0,0.0,0.0,0.0,0.0,0.0,0.0,0.0,0.0,0.0,0.0,0.0,0.0,0.0,0.0,0.0,0.0,0.0,0.0,0.0,0.0,0.0,0.0,0.0,0.0,0.0,0.0,0.0,0.0,0.0,0.0,0.0,0.0,0.0,0.0,0.0,0.0,0.0,0.0,0.0,0.0,0.0,0.0,0.0,0.0,0.0,0.0,0.0,0.0,0.0,0.0,0.0,0.0,0.0,0.0,0.0,0.0,0.0,0.0,0.0,0.0,0.0,0.0,0.0,0.0,0.0,0.0,0.0,0.0,0.0,0.0,0.0,0.0,0.0,0.0,0.0,0.0,0.0,0.0,0.0,0.0,0.0,0.0,0.0,0.0,0.0,0.0,0.0,0.0,0.0,0.0,0.0,0.0,0.0,0.0,0.0,0.0,0.0,0.0,0.0,0.0,0.0,0.0,0.0,0.0,0.0,0.0,0.0,0.0,0.0,0.0,0.0,0.0,0.0,0.0,0.0,0.0,0.0,0.0,0.0,0.0,0.0,0.0,0.0,0.0,0.0,0.0,0.0,0.0,0.0,0.0,0.0,0.0,0.0,0.0,0.0,0.0,0.0,0.0,0.0,0.0,0.0,0.0,0.0,0.0,0.0,0.0,0.0,0.0,0.0,0.0,0.0,0.0,0.0,0.0,0.0,0.0,0.0,0.0,0.0,0.0,0.0,0.0,0.0,0.0,0.0,0.0,0.0,0.0,0.0,0.0,0.0,0.0,0.0,0.0,0.0,0.0,0.0,0.0,0.0,0.0,0.0,0.0,0.0,0.0,0.0,0.0,0.0,0.0,0.0,0.0,0.0,0.0,0.0,0.0,0.0,0.0,0.0,0.0,0.0,0.0,0.0,0.0,0.0,0.0,0.0,0.0,0.0,0.0,0.0,0.0,0.0,0.0,0.0,0.0,0.0,0.0,0.0,0.0,0.0,0.0,0.0,0.0,0.0,0.0,0.0,0.0,0.0,0.0,0.0,0.0,0.0,0.0,0.0,0.0,0.0,0.0,0.0,0.0,0.0,0.0,0.0,0.0,0.0,0.0,0.0,0.0,0.0,0.0,0.0,0.0,0.0,0.0,0.0,0.0,0.0,0.0,0.0,0.0,0.0,0.0,0.0,0.0,0.0,0.0,0.0,0.0,0.0,0.0,0.0,0.0,0.0,0.0,0.0,0.0,0.0,0.0,0.0,0.0,0.0,0.0,0.0,0.0,0.0,0.0,0.0,0.0,0.0,0.0,0.0,0.0,0.0,0.0,0.0,0.0,0.0,0.0,0.0,0.0,0.0,0.0,0.0,0.0,0.0,0.0,0.0,0.0,0.0,0.0,0.0,0.0,0.0,0.0,0.0,0.0,0.0,0.0,0.0,0.0,0.0,0.0,0.0,0.0,0.0,0.0,0.0,0.0,0.0,0.0,0.0,0.0,0.0,0.0,0.0,0.0,0.0,0.0,0.0,0.0,0.0,0.0,0.0,0.0,0.0,0.0,0.0,0.0,0.0,0.0,0.0,0.0,0.0,0.0,0.0,0.0,0.0,0.0,0.0,0.0,0.0,0.0,0.0,0.0,0.0,0.0,0.0,0.0,0.0,0.0,0.0,0.0,0.0,0.0,0.0,0.0,0.0,0.0,0.0,0.0,0.0,0.0,0.0,0.0,0.0,0.0,0.0,0.0,0.0,0.0,0.0,0.0,0.0,0.0,0.0,0.0,0.0,0.0,0.0,0.0,0.0,0.0,0.0,0.0,0.0,0.0,0.0,0.0,0.0,0.0,0.0,0.0,0.0,0.0,0.0,0.0,0.0,0.0,0.0,0.0,0.0,0.0,0.0,0.0,0.0,0.0,0.0,0.0,0.0,0.0,0.0,0.0,0.0,0.0,0.0,0.0,0.0,0.0,0.0,0.0,0.0,0.0,0.0,0.0,0.0,0.0,0.0,0.0,0.0,0.0,0.0,0.0,0.0,0.0,0.0,0.0,0.0,0.0,0.0,0.0,0.0,0.0,0.0,0.0,0.0,0.0,0.0,0.0,0.0,0.0,0.0,0.0,0.0,0.0,0.0,0.0,0.0,0.0,0.0,0.0,0.0,0.0,0.0,0.0,0.0,0.0,0.0,0.0,0.0,0.0,0.0,0.0,0.0,0.0,0.0,0.0,0.0,0.0,0.0,0.0,0.0,0.0,0.0,0.0,0.0,0.0,0.0,0.0,0.0,0.0,0.0,0.0,0.0,0.0,0.0,0.0,0.0,0.0,0.0,0.0,0.0,0.0,0.0,0.0,0.0,0.0,0.0,0.0,0.0,0.0,0.0,0.0,0.0,0.0,0.0,0.0,0.0,0.0,0.0,0.0,0.0,0.0,0.0,0.0,0.0,0.0,0.0,0.0,0.0,0.0,0.0,0.0,0.0,0.0,0.0,0.0,0.0,0.0,0.0,0.0,0.0,0.0,0.0,0.0,0.0,0.0,0.0,0.0,0.0,0.0,0.0,0.0,0.0,0.0,0.0,0.0,0.0,0.0,0.0,0.0,0.0,0.0,-2.7577,0.0,0.0,0.0,0.0,0.0,0.0,0.0,0.0,0.0,0.0,0.0,0.0,0.0,0.0,0.0,0.0,0.0,0.0,0.0,0.0,0.0,0.0,0.0,0.0,0.0,0.0,0.0,0.0,0.0,0.0,0.0,0.0,0.0,0.0,0.0,0.0,0.0,0.0,0.0,0.0,0.0,0.0,0.0,0.0,0.0,0.0,0.0,0.0,0.0,0.0,0.0,0.0,0.0,0.0,0.0,0.0,0.0,0.0,0.0,0.0,0.0,0.0,0.0,0.0,0.0,0.0,0.0,0.0,0.0,0.0,0.0,0.0,0.0,0.0,0.0,0.0,0.0,0.0,0.0,0.0,0.0,0.0,0.0,0.0,0.0,0.0,0.0,0.0,0.0,0.0,0.0,0.0,0.0,0.0,0.0,0.0,0.0,0.0,0.0,0.0,0.0,0.0,0.0,0.0,0.0,0.0,0.0,0.0,0.0,0.0,-2.9978,-2.8444,-2.8231,-2.7518,-2.6253,0.0,0.0,0.0,0.0,0.0,0.0,0.0,0.0,0.0,0.0,0.0,0.0,0.0,0.0,0.0,0.0,0.0,0.0,0.0,0.0,0.0,0.0,0.0,0.0,0.0,0.0,0.0,0.0,0.0,0.0,0.0,0.0,0.0,0.0,0.0,0.0,0.0,0.0,0.0,0.0,0.0,0.0,0.0,0.0,0.0,0.0,0.0,0.0,0.0,0.0,0.0,0.0,0.0,0.0,0.0,0.0,0.0,0.0,0.0,0.0,0.0,0.0,0.0,0.0,0.0,0.0,0.0,0.0,0.0,0.0,0.0,0.0,0.0,0.0,0.0,0.0,0.0,0.0,0.0,0.0,0.0,0.0,0.0,0.0,0.0,0.0,0.0,0.0,0.0,0.0,0.0,0.0,0.0,0.0,0.0,0.0,0.0,0.0,0.0,0.0,0.0,0.0,0.0,0.0,0.0,0.0,0.0,0.0,0.0,0.0,0.0,0.0,-2.7871,-2.7274,-2.5303,0.0,0.0,0.0,0.0,0.0,0.0,0.0,0.0,0.0,0.0,0.0,0.0,0.0,0.0,0.0,0.0,0.0,0.0,0.0,0.0,0.0,0.0,0.0,0.0,0.0,0.0,0.0,0.0,0.0,0.0,0.0,0.0,0.0,0.0,0.0,0.0,0.0,0.0,0.0,0.0,0.0,0.0,0.0,0.0,0.0,0.0,0.0,0.0,0.0,0.0,0.0,0.0,0.0,0.0,0.0,0.0,0.0,0.0,0.0,0.0,0.0,0.0,0.0,0.0,0.0,0.0,0.0,0.0,0.0,0.0,0.0,0.0,0.0,0.0,0.0,0.0,0.0,0.0,0.0,0.0,0.0,0.0,0.0,0.0,0.0,0.0,0.0,0.0,0.0,0.0,0.0,0.0,0.0,0.0,0.0,0.0,0.0,0.0,0.0,0.0,0.0,0.0,0.0,0.0,0.0,0.0,0.0,0.0,0.0,0.0,-2.8528,-2.8921,-2.8507,0.0,-2.5805,0.0,0.0,0.0,0.0,0.0,0.0,0.0,0.0,0.0,0.0,0.0,0.0,0.0,0.0,0.0,0.0,0.0,0.0,0.0,0.0,0.0,0.0,0.0,0.0,0.0,0.0,0.0,0.0,0.0,0.0,0.0,0.0,0.0,0.0,0.0,0.0,0.0,0.0,0.0,0.0,0.0,0.0,0.0,0.0,0.0,0.0,0.0,0.0,0.0,0.0,0.0,0.0,0.0,0.0,0.0,0.0,0.0,0.0,0.0,0.0,0.0,0.0,0.0,0.0,0.0,0.0,0.0,0.0,0.0,0.0,0.0,0.0,0.0,0.0,0.0,0.0,0.0,0.0,0.0,0.0,0.0,0.0,0.0,0.0,0.0,0.0,0.0,0.0,0.0,0.0,0.0,0.0,0.0,0.0,0.0,0.0,0.0,0.0,0.0,0.0,0.0,0.0,0.0,0.0,0.0,0.0,0.0,0.0,0.0,0.0,-2.8033,-2.8412,-2.7482,-2.6294,0.0,0.0,0.0,0.0,0.0,0.0,0.0,0.0,0.0,0.0,0.0,0.0,0.0,0.0,0.0,0.0,0.0,0.0,0.0,0.0,0.0,0.0,0.0,0.0,0.0,0.0,0.0,0.0,0.0,0.0,0.0,0.0,0.0,0.0,0.0,0.0,0.0,0.0,0.0,0.0,0.0,0.0,0.0,0.0,0.0,0.0,0.0,0.0,0.0,0.0,0.0,0.0,0.0,0.0,0.0,0.0,0.0,0.0,0.0,0.0,0.0,0.0,0.0,0.0,0.0,0.0,0.0,0.0,0.0,0.0,0.0,0.0,0.0,0.0,0.0,0.0,0.0,0.0,0.0,0.0,0.0,0.0,0.0,0.0,0.0,0.0,0.0,0.0,0.0,0.0,0.0,0.0,0.0,0.0,0.0,0.0,0.0,0.0,0.0,0.0,0.0,0.0,0.0,0.0,0.0,0.0,0.0,0.0,0.0,0.0,-2.9183,-2.8416,-2.8513,-2.6636,-2.5313,-2.479,0.0,0.0,0.0,0.0,0.0,0.0,0.0,0.0,0.0,0.0,0.0,0.0,0.0,0.0,0.0,0.0,0.0,0.0,0.0,0.0,0.0,0.0,0.0,0.0,0.0,0.0,0.0,0.0,0.0,0.0,0.0,0.0,0.0,0.0,0.0,0.0,0.0,0.0,0.0,0.0,0.0,0.0,0.0,0.0,0.0,0.0,0.0,0.0,0.0,0.0,0.0,0.0,0.0,0.0,0.0,0.0,0.0,0.0,0.0,0.0,0.0,0.0,0.0,0.0,0.0,0.0,0.0,0.0,0.0,0.0,0.0,0.0,0.0,0.0,0.0,0.0,0.0,0.0,0.0,0.0,0.0,0.0,0.0,0.0,0.0,0.0,0.0,0.0,0.0,0.0,0.0,0.0,0.0,0.0,0.0,0.0,0.0,0.0,0.0,0.0,0.0,0.0,0.0,0.0,0.0,0.0,0.0,0.0,-3.4581,-3.1422,-2.996,-3.0237,-2.6509,-2.4984,0.0,0.0,0.0,0.0,0.0,0.0,0.0,0.0,0.0,0.0,0.0,0.0,0.0,0.0,0.0,0.0,0.0,0.0,0.0,0.0,0.0,0.0,0.0,0.0,0.0,0.0,0.0,0.0,0.0,0.0,0.0,0.0,0.0,0.0,0.0,0.0,0.0,0.0,0.0,0.0,0.0,0.0,0.0,0.0,0.0,0.0,0.0,0.0,0.0,0.0,0.0,0.0,0.0,0.0,0.0,0.0,0.0,0.0,0.0,0.0,0.0,0.0,0.0,0.0,0.0,0.0,0.0,0.0,0.0,0.0,0.0,0.0,0.0,0.0,0.0,0.0,0.0,0.0,0.0,0.0,0.0,0.0,0.0,0.0,0.0,0.0,0.0,0.0,0.0,0.0,0.0,0.0,0.0,0.0,0.0,0.0,0.0,0.0,0.0,0.0,0.0,0.0,0.0,0.0,0.0,0.0,0.0,0.0,0.0,-3.1371,-2.9128,-2.8034,-2.8202,-2.6082,-2.5165,0.0,0.0,0.0,0.0,0.0,0.0,0.0,0.0,0.0,0.0,0.0,0.0,0.0,0.0,0.0,0.0,0.0,0.0,0.0,0.0,0.0,0.0,0.0,0.0,0.0,0.0,0.0,0.0,0.0,0.0,0.0,0.0,0.0,0.0,0.0,0.0,0.0,0.0,0.0,0.0,0.0,0.0,0.0,0.0,0.0,0.0,0.0,0.0,0.0,0.0,0.0,0.0,0.0,0.0,0.0,0.0,0.0,0.0,0.0,0.0,0.0,0.0,0.0,0.0,0.0,0.0,0.0,0.0,0.0,0.0,0.0,0.0,0.0,0.0,0.0,0.0,0.0,0.0,0.0,0.0,0.0,0.0,0.0,0.0,0.0,0.0,0.0,0.0,0.0,0.0,0.0,0.0,0.0,0.0,0.0,0.0,0.0,0.0,0.0,0.0,0.0,0.0,0.0,0.0,0.0,0.0,0.0,0.0,0.0,-2.9331,0.0,-2.7319,-2.6888,-2.5418,-2.4728,0.0,0.0,0.0,0.0,0.0,0.0,0.0,0.0,0.0,0.0,0.0,0.0,0.0,0.0,0.0,0.0,0.0,0.0,0.0,0.0,0.0,0.0,0.0,0.0,0.0,0.0,0.0,0.0,0.0,0.0,0.0,0.0,0.0,0.0,0.0,0.0,0.0,0.0,0.0,0.0,0.0,0.0,0.0,0.0,0.0,0.0,0.0,0.0,0.0,0.0,0.0,0.0,0.0,0.0,0.0,0.0,0.0,0.0,0.0,0.0,0.0,0.0,0.0,0.0,0.0,0.0,0.0,0.0,0.0,0.0,0.0,0.0,0.0,0.0,0.0,0.0,0.0,0.0,0.0,0.0,0.0,0.0,0.0,0.0,0.0,0.0,0.0,0.0,0.0,0.0,0.0,0.0,0.0,0.0,0.0,0.0,0.0,0.0,0.0,0.0,0.0,0.0,0.0,0.0,0.0,0.0,0.0,0.0,-3.089,-2.9185,-2.9101,-2.815,-2.6693,-2.4466,-2.3558,0.0,0.0,0.0,0.0,0.0,0.0,0.0,0.0,0.0,0.0,0.0,0.0,0.0,0.0,0.0,0.0,0.0,0.0,0.0,0.0,0.0,0.0,0.0,0.0,0.0,0.0,0.0,0.0,0.0,0.0,0.0,0.0,0.0,0.0,0.0,0.0,0.0,0.0,0.0,0.0,0.0,0.0,0.0,0.0,0.0,0.0,0.0,0.0,0.0,0.0,0.0,0.0,0.0,0.0,0.0,0.0,0.0,0.0,0.0,0.0,0.0,0.0,0.0,0.0,0.0,0.0,0.0,0.0,0.0,0.0,0.0,0.0,0.0,0.0,0.0,0.0,0.0,0.0,0.0,0.0,0.0,0.0,0.0,0.0,0.0,0.0,0.0,0.0,0.0,0.0,0.0,0.0,0.0,0.0,0.0,0.0,0.0,0.0,0.0,0.0,0.0,0.0,0.0,0.0,0.0,0.0,0.0,0.0,0.0,-2.7242,-2.7045,-2.6854,-2.6389,-2.4613,-2.4348,0.0,0.0,0.0,0.0,0.0,0.0,0.0,0.0,0.0,0.0,0.0,0.0,0.0,0.0,0.0,0.0,0.0,0.0,0.0,0.0,0.0,0.0,0.0,0.0,0.0,0.0,0.0,0.0,0.0,0.0,0.0,0.0,0.0,0.0,0.0,0.0,0.0,0.0,0.0,0.0,0.0,0.0,0.0,0.0,0.0,0.0,0.0,0.0,0.0,0.0,0.0,0.0,0.0,0.0,0.0,0.0,0.0,0.0,0.0,0.0,0.0,0.0,0.0,0.0,0.0,0.0,0.0,0.0,0.0,0.0,0.0,0.0,0.0,0.0,0.0,0.0,0.0,0.0,0.0,0.0,0.0,0.0,0.0,0.0,0.0,0.0,0.0,0.0,0.0,0.0,0.0,0.0,0.0,0.0,0.0,0.0,0.0,0.0,0.0,0.0,0.0,0.0,0.0,0.0,0.0,0.0,0.0,0.0,0.0,-2.8133,-2.7475,-2.6765,-2.5992,-2.4354,-2.4444,-2.6403,0.0,0.0,0.0,0.0,0.0,0.0,0.0,0.0,0.0,0.0,0.0,0.0,0.0,0.0,0.0,0.0,0.0,0.0,0.0,0.0,0.0,0.0,0.0,0.0,0.0,0.0,0.0,0.0,0.0,0.0,0.0,0.0,0.0,0.0,0.0,0.0,0.0,0.0,0.0,0.0,0.0,0.0,0.0,0.0,0.0,0.0,0.0,0.0,0.0,0.0,0.0,0.0,0.0,0.0,0.0,0.0,0.0,0.0,0.0,0.0,0.0,0.0,0.0,0.0,0.0,0.0,0.0,0.0,0.0,0.0,0.0,0.0,0.0,0.0,0.0,0.0,0.0,0.0,0.0,0.0,0.0,0.0,0.0,0.0,0.0,0.0,0.0,0.0,0.0,0.0,0.0,0.0,0.0,0.0,0.0,0.0,0.0,0.0,0.0,0.0,0.0,0.0,0.0,0.0,0.0,0.0,0.0,0.0,-3.1248,-2.9917,-2.8058,-2.552,-2.4164,-2.4159,0.0,0.0,0.0,0.0,0.0,0.0,0.0,0.0,0.0,0.0,0.0,0.0,0.0,0.0,0.0,0.0,0.0,0.0,0.0,0.0,0.0,0.0,0.0,0.0,0.0,0.0,0.0,0.0,0.0,0.0,0.0,0.0,0.0,0.0,0.0,0.0,0.0,0.0,0.0,0.0,0.0,0.0,0.0,0.0,0.0,0.0,0.0,0.0,0.0,0.0,0.0,0.0,0.0,0.0,0.0,0.0,0.0,0.0,0.0,0.0,0.0,0.0,0.0,0.0,0.0,0.0,0.0,0.0,0.0,0.0,0.0,0.0,0.0,0.0,0.0,0.0,0.0,0.0,0.0,0.0,0.0,0.0,0.0,0.0,0.0,0.0,0.0,0.0,0.0,0.0,0.0,0.0,0.0,0.0,0.0,0.0,0.0,0.0,0.0,0.0,0.0,0.0,0.0,0.0,0.0,0.0,0.0,0.0,0.0,-3.1908,-3.1803,-3.0882,-2.9055,-2.7117,-2.6927,0.0,0.0,0.0,0.0,0.0,0.0,0.0,0.0,0.0,0.0,0.0,0.0,0.0,0.0,0.0,0.0,0.0,0.0,0.0,0.0,0.0,0.0,0.0,0.0,0.0,0.0,0.0,0.0,0.0,0.0,0.0,0.0,0.0,0.0,0.0,0.0,0.0,0.0,0.0,0.0,0.0,0.0,0.0,0.0,0.0,0.0,0.0,0.0,0.0,0.0,0.0,0.0,0.0,0.0,0.0,0.0,0.0,0.0,0.0,0.0,0.0,0.0,0.0,0.0,0.0,0.0,0.0,0.0,0.0,0.0,0.0,0.0,0.0,0.0,0.0,0.0,0.0,0.0,0.0,0.0,0.0,0.0,0.0,0.0,0.0,0.0,0.0,0.0,0.0,0.0,0.0,0.0,0.0,0.0,0.0,0.0,0.0,0.0,0.0,0.0,0.0,0.0,0.0,0.0,0.0,0.0,0.0,0.0,-3.3009,-3.363,-3.3532,-3.3275,-3.2947,-3.0443,-2.9432,0.0,0.0,0.0,0.0,0.0,0.0,0.0,0.0,0.0,0.0,0.0,0.0,0.0,0.0,0.0,0.0,0.0,0.0,0.0,0.0,0.0,0.0,0.0,0.0,0.0,0.0,0.0,0.0,0.0,0.0,0.0,0.0,0.0,0.0,0.0,0.0,0.0,0.0,0.0,0.0,0.0,0.0,0.0,0.0,0.0,0.0,0.0,0.0,0.0,0.0,0.0,0.0,0.0,0.0,0.0,0.0,0.0,0.0,0.0,0.0,0.0,0.0,0.0,0.0,0.0,0.0,0.0,0.0,0.0,0.0,0.0,0.0,0.0,0.0,0.0,0.0,0.0,0.0,0.0,0.0,0.0,0.0,0.0,0.0,0.0,0.0,0.0,0.0,0.0,0.0,0.0,0.0,0.0,0.0,0.0,0.0,0.0,0.0,0.0,0.0,0.0,0.0,0.0,0.0,0.0,0.0,0.0,0.0,-3.39,-3.5743,-3.504,-3.5315,-3.6459,-3.3591,-3.169,0.0,0.0,0.0,0.0,0.0,0.0,0.0,0.0,0.0,0.0,0.0,0.0,0.0,0.0,0.0,0.0,0.0,0.0,0.0,0.0,0.0,0.0,0.0,0.0,0.0,0.0,0.0,0.0,0.0,0.0,0.0,0.0,0.0,0.0,0.0,0.0,0.0,0.0,0.0,0.0,0.0,0.0,0.0,0.0,0.0,0.0,0.0,0.0,0.0,0.0,0.0,0.0,0.0,0.0,0.0,0.0,0.0,0.0,0.0,0.0,0.0,0.0,0.0,0.0,0.0,0.0,0.0,0.0,0.0,0.0,0.0,0.0,0.0,0.0,0.0,0.0,0.0,0.0,0.0,0.0,0.0,0.0,0.0,0.0,0.0,0.0,0.0,0.0,0.0,0.0,0.0,0.0,0.0,0.0,0.0,0.0,0.0,0.0,0.0,0.0,0.0,0.0,0.0,0.0,0.0,0.0,0.0,0.0,-3.5106,-3.622,-3.6352,-3.6799,-3.775,-3.4945,-3.3129,0.0,0.0,0.0,0.0,0.0,0.0,0.0,0.0,0.0,0.0,0.0,0.0,0.0,0.0,0.0,0.0,0.0,0.0,0.0,0.0,0.0,0.0,0.0,0.0,0.0,0.0,0.0,0.0,0.0,0.0,0.0,0.0,0.0,0.0,0.0,0.0,0.0,0.0,0.0,0.0,0.0,0.0,0.0,0.0,0.0,0.0,0.0,0.0,-4.0611,0.0,0.0,0.0,0.0,0.0,0.0,0.0,0.0,0.0,0.0,0.0,0.0,0.0,0.0,0.0,0.0,0.0,0.0,0.0,0.0,0.0,0.0,0.0,0.0,0.0,0.0,0.0,0.0,0.0,0.0,0.0,0.0,0.0,0.0,0.0,0.0,0.0,0.0,0.0,0.0,0.0,0.0,0.0,0.0,0.0,0.0,0.0,0.0,0.0,0.0,0.0,0.0,0.0,0.0,0.0,0.0,0.0,0.0,0.0,-3.5485,-3.6942,-3.6833,-3.7239,-3.8109,-3.6729,-3.5308,0.0,0.0,0.0,0.0,0.0,0.0,0.0,0.0,0.0,0.0,0.0,0.0,0.0,0.0,0.0,0.0,0.0,0.0,0.0,0.0,0.0,0.0,0.0,0.0,0.0,0.0,0.0,0.0,0.0,0.0,0.0,0.0,0.0,0.0,0.0,0.0,0.0,0.0,0.0,0.0,0.0,0.0,0.0,0.0,0.0,0.0,0.0,0.0,0.0,0.0,0.0,0.0,0.0,0.0,0.0,0.0,0.0,0.0,0.0,0.0,0.0,0.0,0.0,0.0,0.0,0.0,0.0,0.0,0.0,0.0,0.0,0.0,0.0,0.0,0.0,0.0,0.0,0.0,0.0,0.0,0.0,0.0,0.0,0.0,0.0,0.0,0.0,0.0,0.0,0.0,0.0,0.0,0.0,0.0,0.0,0.0,0.0,0.0,0.0,0.0,0.0,0.0,0.0,0.0,0.0,0.0,0.0,-3.5216,-3.5711,-3.7713,-3.7103,-3.7281,-3.8253,-3.8357,-3.7353,-3.5261,0.0,0.0,0.0,0.0,0.0,0.0,0.0,0.0,0.0,0.0,0.0,0.0,0.0,0.0,0.0,0.0,0.0,0.0,0.0,0.0,0.0,0.0,0.0,0.0,0.0,0.0,0.0,0.0,0.0,0.0,0.0,0.0,0.0,0.0,0.0,0.0,0.0,0.0,-4.5003,-4.4609,0.0,0.0,0.0,0.0,0.0,0.0,0.0,0.0,-4.0071,0.0,0.0,0.0,0.0,0.0,0.0,0.0,0.0,0.0,0.0,0.0,0.0,0.0,0.0,0.0,0.0,0.0,0.0,0.0,0.0,0.0,0.0,0.0,0.0,0.0,0.0,0.0,0.0,0.0,0.0,0.0,0.0,0.0,0.0,0.0,0.0,0.0,0.0,0.0,0.0,0.0,0.0,0.0,0.0,0.0,0.0,0.0,0.0,0.0,0.0,0.0,0.0,0.0,0.0,0.0,0.0,-3.7216,-3.5723,-3.5945,-3.8326,-3.7377,-3.7425,-3.8688,-3.9123,-3.8291,-3.6237,0.0,0.0,0.0,0.0,0.0,0.0,0.0,0.0,0.0,0.0,0.0,0.0,0.0,0.0,0.0,0.0,0.0,0.0,0.0,0.0,0.0,0.0,0.0,0.0,0.0,0.0,0.0,0.0,0.0,0.0,0.0,0.0,0.0,0.0,0.0,0.0,0.0,0.0,0.0,-4.6629,-4.5962,0.0,0.0,0.0,0.0,0.0,0.0,0.0,0.0,-4.0996,0.0,0.0,0.0,0.0,0.0,0.0,0.0,0.0,0.0,0.0,0.0,0.0,0.0,0.0,0.0,0.0,0.0,0.0,0.0,0.0,0.0,0.0,0.0,0.0,0.0,0.0,0.0,0.0,0.0,0.0,0.0,0.0,0.0,0.0,0.0,0.0,0.0,0.0,0.0,0.0,0.0,0.0,0.0,0.0,0.0,0.0,0.0,0.0,0.0,0.0,0.0,0.0,0.0,0.0,0.0,-3.7099,-3.692,-3.7519,-3.8984,-3.8248,-3.8077,-3.8771,-3.815,-3.7398,0.0,0.0,0.0,0.0,0.0,0.0,0.0,0.0,0.0,0.0,0.0,0.0,0.0,0.0,0.0,0.0,0.0,0.0,0.0,0.0,0.0,0.0,0.0,0.0,0.0,0.0,0.0,0.0,0.0,0.0,0.0,0.0,0.0,0.0,0.0,0.0,0.0,0.0,0.0,0.0,-4.6521,-4.6125,-4.6153,0.0,0.0,0.0,0.0,0.0,0.0,-4.0709,-4.1002,0.0,0.0,0.0,0.0,0.0,0.0,0.0,0.0,0.0,0.0,0.0,0.0,0.0,0.0,0.0,0.0,0.0,0.0,0.0,0.0,0.0,0.0,0.0,0.0,0.0,0.0,0.0,0.0,0.0,0.0,0.0,0.0,0.0,0.0,0.0,0.0,0.0,0.0,0.0,0.0,0.0,0.0,0.0,0.0,0.0,0.0,0.0,0.0,0.0,0.0,0.0,0.0,0.0,0.0,0.0,-3.713,-3.8016,-3.9008,-4.0011,-3.934,-3.9169,-3.939,-3.7953,-3.7288,0.0,0.0,0.0,0.0,0.0,0.0,0.0,0.0,0.0,0.0,0.0,0.0,0.0,0.0,0.0,0.0,0.0,0.0,0.0,0.0,0.0,0.0,0.0,0.0,0.0,0.0,0.0,0.0,0.0,0.0,0.0,0.0,0.0,0.0,0.0,0.0,0.0,0.0,0.0,0.0,0.0,-4.6364,-4.6859,-4.4157,0.0,0.0,0.0,0.0,-4.1305,-4.1825,0.0,0.0,0.0,0.0,0.0,0.0,0.0,0.0,0.0,0.0,0.0,0.0,0.0,0.0,0.0,0.0,0.0,0.0,0.0,0.0,0.0,0.0,0.0,0.0,0.0,0.0,0.0,0.0,0.0,0.0,0.0,0.0,0.0,0.0,0.0,0.0,0.0,0.0,0.0,0.0,0.0,0.0,0.0,0.0,0.0,0.0,0.0,0.0,0.0,0.0,0.0,0.0,0.0,0.0,0.0,0.0,-3.7652,-3.8063,-3.9202,-4.1387,-4.0575,-4.0632,-4.161,-4.1022,-4.0273,0.0,0.0,0.0,0.0,0.0,0.0,0.0,0.0,0.0,0.0,0.0,0.0,0.0,0.0,0.0,0.0,0.0,0.0,0.0,0.0,0.0,0.0,0.0,0.0,0.0,0.0,0.0,0.0,0.0,0.0,0.0,0.0,0.0,0.0,0.0,0.0,0.0,0.0,0.0,0.0,0.0,-4.7791,-4.6533,-4.4952,-4.3953,0.0,0.0,-4.4512,-4.3868,-4.6019,0.0,0.0,0.0,0.0,0.0,0.0,0.0,0.0,0.0,0.0,0.0,0.0,0.0,0.0,0.0,0.0,0.0,0.0,0.0,0.0,0.0,0.0,0.0,0.0,0.0,0.0,0.0,0.0,0.0,0.0,0.0,0.0,0.0,0.0,0.0,0.0,0.0,0.0,0.0,0.0,0.0,0.0,0.0,0.0,0.0,0.0,0.0,0.0,0.0,0.0,0.0,0.0,0.0,0.0,0.0,-3.5652,-3.7874,-3.9107,-4.045,-4.2002,-4.1789,-4.1852,-4.2094,-4.0542,-3.9966,0.0,0.0,0.0,0.0,0.0,0.0,0.0,0.0,0.0,0.0,0.0,0.0,0.0,0.0,0.0,0.0,0.0,0.0,0.0,0.0,0.0,0.0,0.0,0.0,0.0,0.0,0.0,0.0,0.0,0.0,0.0,0.0,0.0,0.0,0.0,0.0,0.0,0.0,0.0,0.0,0.0,0.0,-4.7284,-4.6061,0.0,0.0,0.0,-4.5576,-4.457,0.0,0.0,0.0,0.0,0.0,0.0,0.0,0.0,0.0,0.0,0.0,0.0,0.0,0.0,0.0,0.0,0.0,0.0,0.0,0.0,0.0,0.0,0.0,0.0,0.0,0.0,0.0,0.0,0.0,0.0,0.0,0.0,0.0,0.0,0.0,0.0,0.0,0.0,0.0,0.0,0.0,0.0,0.0,0.0,0.0,0.0,0.0,0.0,0.0,0.0,0.0,0.0,0.0,0.0,0.0,0.0,0.0,-3.8318,-4.0109,-4.1567,-4.2674,-4.2974,-4.302,-4.2688,-4.0721,0.0,0.0,0.0,0.0,0.0,0.0,0.0,0.0,0.0,0.0,0.0,0.0,0.0,0.0,0.0,0.0,0.0,0.0,0.0,0.0,0.0,0.0,0.0,0.0,0.0,0.0,0.0,-4.174,0.0,0.0,0.0,0.0,0.0,0.0,0.0,0.0,0.0,0.0,0.0,0.0,0.0,0.0,-4.706,-4.7915,-4.7207,-4.6781,0.0,0.0,-4.7023,-4.6091,-4.7908,-4.8324,0.0,0.0,0.0,0.0,0.0,0.0,0.0,0.0,0.0,0.0,0.0,0.0,0.0,0.0,0.0,0.0,0.0,0.0,0.0,0.0,0.0,0.0,0.0,0.0,0.0,0.0,0.0,0.0,0.0,0.0,0.0,0.0,0.0,0.0,0.0,0.0,0.0,0.0,0.0,0.0,0.0,0.0,0.0,0.0,0.0,0.0,0.0,0.0,0.0,0.0,0.0,0.0,0.0,0.0,0.0,-3.9442,-4.0697,-4.2242,-4.41,-4.4229,-4.4318,-4.4433,-4.3373,-4.2332,0.0,0.0,0.0,0.0,0.0,0.0,0.0,0.0,0.0,0.0,0.0,0.0,0.0,0.0,0.0,0.0,0.0,0.0,0.0,0.0,0.0,0.0,0.0,0.0,0.0,0.0,0.0,0.0,0.0,0.0,0.0,0.0,0.0,0.0,0.0,0.0,0.0,0.0,0.0,0.0,0.0,-4.7197,-4.7846,-4.8356,-4.9085,0.0,0.0,-5.0431,-4.9849,-5.2348,-5.2356,-4.6837,0.0,0.0,0.0,0.0,0.0,0.0,0.0,0.0,0.0,0.0,0.0,0.0,0.0,0.0,0.0,0.0,0.0,0.0,0.0,0.0,0.0,0.0,0.0,0.0,0.0,0.0,0.0,0.0,0.0,0.0,0.0,0.0,0.0,0.0,0.0,0.0,0.0,0.0,0.0,0.0,0.0,0.0,0.0,0.0,0.0,0.0,0.0,0.0,0.0,0.0,0.0,0.0,0.0,-3.7639,-3.9599,-4.1089,-4.2684,-4.4401,-4.4193,-4.4089,-4.4214,-4.3124,-4.1801,0.0,0.0,0.0,0.0,0.0,0.0,0.0,0.0,0.0,0.0,0.0,0.0,0.0,0.0,0.0,0.0,0.0,0.0,0.0,0.0,0.0,0.0,0.0,0.0,0.0,0.0,0.0,0.0,-3.7535,-3.6864,-3.7448,0.0,0.0,0.0,0.0,0.0,0.0,0.0,0.0,0.0,0.0,-4.76,-4.9677,-5.0205,0.0,0.0,-5.1558,-5.1124,-5.0895,-5.087,-4.9889,-4.6914,-4.579,0.0,0.0,0.0,0.0,0.0,0.0,0.0,0.0,0.0,0.0,0.0,0.0,0.0,0.0,0.0,0.0,0.0,0.0,0.0,0.0,0.0,0.0,0.0,0.0,0.0,0.0,0.0,0.0,0.0,0.0,0.0,0.0,0.0,0.0,0.0,0.0,0.0,0.0,0.0,0.0,0.0,0.0,0.0,0.0,0.0,0.0,0.0,0.0,0.0,0.0,0.0,0.0,-3.8031,-3.9599,-4.1298,-4.2997,-4.4696,-4.433,-4.4042,-4.3859,-4.2944,-4.1712,0.0,0.0,0.0,0.0,0.0,0.0,0.0,0.0,0.0,0.0,0.0,0.0,0.0,0.0,0.0,0.0,0.0,0.0,0.0,0.0,0.0,0.0,0.0,0.0,0.0,0.0,0.0,0.0,-3.6773,-3.6269,-3.6937,0.0,0.0,0.0,0.0,0.0,0.0,0.0,0.0,0.0,0.0,-4.7962,-5.0266,-5.0996,-5.1408,-5.1998,-5.128,-5.0818,-5.0818,-5.0097,-4.876,-4.6926,0.0,0.0,0.0,0.0,0.0,0.0,0.0,0.0,0.0,0.0,0.0,0.0,0.0,0.0,0.0,0.0,0.0,0.0,0.0,0.0,0.0,0.0,0.0,0.0,0.0,0.0,0.0,0.0,0.0,0.0,0.0,0.0,0.0,0.0,0.0,0.0,0.0,0.0,0.0,0.0,0.0,0.0,0.0,0.0,0.0,0.0,0.0,0.0,0.0,0.0,0.0,0.0,0.0,-3.8449,-3.9625,-4.1324,-4.3023,-4.467,-4.4696,-4.4408,-4.3859,-4.3284,-4.2364,-4.1186,0.0,0.0,0.0,0.0,0.0,0.0,0.0,0.0,0.0,0.0,0.0,0.0,0.0,0.0,0.0,0.0,0.0,0.0,0.0,0.0,0.0,0.0,0.0,0.0,0.0,0.0,-3.9906,-3.7958,-3.6568,0.0,0.0,0.0,0.0,0.0,0.0,0.0,0.0,0.0,0.0,-4.5941,-4.8117,-4.9282,-5.0172,-5.0972,-5.1408,-5.0352,-4.9515,-4.9541,-5.0684,-5.0384,0.0,0.0,0.0,0.0,0.0,0.0,0.0,0.0,0.0,0.0,0.0,0.0,0.0,0.0,0.0,0.0,0.0,0.0,0.0,0.0,0.0,0.0,0.0,0.0,0.0,0.0,0.0,-3.4578,-3.4383,0.0,0.0,0.0,0.0,0.0,0.0,0.0,0.0,0.0,0.0,0.0,-4.0775,-4.1324,0.0,0.0,0.0,0.0,0.0,0.0,0.0,0.0,0.0,0.0,0.0,0.0,-3.8658,-4.0148,-4.1847,-4.3389,-4.4643,-4.399,-4.3493,-4.331,-4.2308,-4.1549,-4.105,0.0,0.0,0.0,0.0,0.0,0.0,0.0,0.0,0.0,0.0,0.0,0.0,0.0,0.0,0.0,0.0,0.0,0.0,0.0,0.0,0.0,0.0,0.0,0.0,0.0,-3.8489,0.0,0.0,0.0,0.0,0.0,0.0,0.0,0.0,0.0,0.0,0.0,-4.4132,-4.5282,-4.8273,-5.0703,-5.1734,-5.2607,-5.3087,0.0,0.0,0.0,0.0,0.0,0.0,0.0,0.0,0.0,0.0,0.0,0.0,0.0,0.0,-5.4926,-5.0698,-4.9334,-4.8966,-4.9108,0.0,0.0,0.0,0.0,0.0,0.0,0.0,0.0,0.0,0.0,0.0,0.0,0.0,0.0,0.0,0.0,-3.6319,0.0,0.0,0.0,0.0,0.0,0.0,0.0,0.0,-4.1298,-4.2498,-4.3071,-4.3048,-4.3126,0.0,-4.2383,-4.1037,0.0,0.0,0.0,0.0,0.0,0.0,0.0,0.0,-3.9376,-4.0605,-4.2325,-4.3674,-4.4573,-4.3912,-4.3436,-4.3198,-4.1994,-4.1311,-4.09,-3.9365,-3.8613,0.0,0.0,0.0,0.0,0.0,0.0,0.0,0.0,0.0,0.0,0.0,0.0,0.0,0.0,0.0,0.0,0.0,0.0,0.0,0.0,0.0,0.0,0.0,-3.7226,0.0,0.0,0.0,0.0,0.0,0.0,0.0,0.0,0.0,-4.2824,-4.4698,-4.6461,-4.7564,-4.9983,-5.179,-5.2378,0.0,0.0,0.0,0.0,0.0,0.0,0.0,-5.0644,-5.1119,-5.1046,-5.0943,-5.1394,-5.4162,-5.6143,-5.553,0.0,0.0,-5.2977,-5.1698,-5.1241,-5.1478,-5.1389,-5.1511,-5.2209,-5.2395,-5.2273,0.0,0.0,0.0,0.0,0.0,0.0,0.0,0.0,-3.5726,-3.6858,0.0,-3.7721,0.0,0.0,0.0,0.0,0.0,0.0,0.0,0.0,-4.2917,-4.4336,-4.4729,-4.373,-4.4042,-4.556,-4.5042,-4.4372,-4.3579,-3.9932,0.0,0.0,0.0,0.0,0.0,0.0,-4.0485,-4.1191,-4.2873,-4.404,-4.4563,-4.4536,-4.4211,-4.3606,-4.245,-4.1542,-4.0935,-4.0709,-4.0067,-3.8946,-3.9867,0.0,0.0,0.0,0.0,0.0,0.0,0.0,0.0,0.0,0.0,0.0,0.0,0.0,0.0,0.0,0.0,0.0,0.0,0.0,0.0,-3.8319,0.0,0.0,0.0,0.0,0.0,0.0,0.0,0.0,0.0,0.0,-4.5025,-4.7543,-4.9709,-4.9992,0.0,0.0,0.0,0.0,-5.1811,-5.1948,-5.192,-5.2146,-5.282,-5.3231,-5.326,-5.2264,0.0,0.0,-5.3277,-5.4673,-5.5682,-5.466,-5.5547,-5.6739,-5.7809,-5.628,-5.518,-5.5435,-5.4421,-5.3806,-5.3806,-5.4237,-5.4268,-3.8711,0.0,0.0,0.0,0.0,-3.7303,-3.7973,-3.8873,-3.9773,-3.9855,-3.9515,-4.0195,0.0,0.0,0.0,0.0,0.0,0.0,-4.3372,-4.356,-4.5039,-4.598,-4.6596,-4.6652,-4.6759,-4.6781,-4.6164,-4.5353,-4.4312,-4.2463,-4.0737,-3.9402,0.0,0.0,0.0,0.0,-4.0892,-4.2331,-4.3253,-4.4013,-4.4536,-4.423,-4.3405,-4.234,-4.1975,-4.1501,-4.0765,-4.0293,-4.0097,-4.0124,-3.9518,0.0,0.0,0.0,0.0,0.0,0.0,0.0,0.0,0.0,0.0,0.0,0.0,0.0,0.0,0.0,0.0,0.0,0.0,0.0,-3.8781,-3.7275,-3.6967,0.0,0.0,0.0,0.0,0.0,0.0,0.0,0.0,0.0,-4.8445,-4.9551,-5.0498,0.0,0.0,-5.3965,-5.3318,-5.3789,-5.42,-5.42,0.0,0.0,0.0,-5.3989,-5.3704,-5.3862,-5.4436,-5.488,-5.5292,-5.578,-5.6066,-5.5371,-5.565,-5.5896,-5.5773,-5.5743,-5.5589,-5.5653,-5.5376,-5.513,-5.513,-5.5284,-5.5007,-4.0571,-3.9239,-3.8642,-3.8505,-3.862,-3.9058,-3.9686,-4.0426,-4.1801,-4.2117,-4.1769,-4.2671,-4.2631,-4.1843,-4.1719,0.0,0.0,0.0,-4.4738,-4.5146,-4.5994,-4.6859,-4.7616,-4.7566,-4.7673,-4.7906,-4.6654,-4.5888,-4.5568,-4.4235,-4.2968,-4.1893,0.0,0.0,-4.0357,-4.1141,-4.2086,-4.3066,-4.3671,-4.4166,-4.4523,-4.3918,-4.3283,-4.2481,-4.198,-4.1546,-4.1081,-4.0463,-4.0435,-4.1022,-4.0071,-3.9624,0.0,0.0,0.0,0.0,0.0,0.0,0.0,0.0,0.0,0.0,0.0,-4.0293,-3.977,0.0,0.0,0.0,-3.8781,-3.8689,-3.8502,-3.8211,0.0,0.0,0.0,0.0,0.0,0.0,0.0,-4.757,-4.8849,-4.9851,-5.0727,-5.1289,-5.1816,-5.2368,-5.3456,-5.3961,-5.3473,0.0,-5.4201,-5.457,-5.484,-5.518,-5.5421,-5.4677,-5.4238,-5.4455,-5.4679,-5.4992,-5.5551,-5.5674,-5.5616,-5.5343,-5.5315,-5.5099,-5.4453,-5.4637,-5.5007,-5.5253,-5.5315,-5.5315,-5.5315,-5.5315,-5.4976,-4.2063,-4.1512,-4.0135,-3.9633,-3.9988,-4.0476,-4.0828,-4.0971,-4.253,-4.3771,-4.4673,-4.5166,-4.542,-4.5499,-4.4466,0.0,0.0,-4.5302,-4.582,-4.5847,-4.6234,-4.712,-4.8089,-4.696,-4.7273,-4.8733,-4.6623,-4.6067,-4.6954,-4.5296,-4.4453,-4.4397,-4.2786,-4.2021,-4.1993,-4.3006,-4.3526,-4.3582,-4.4088,-4.4312,-4.4256,-4.3778,-4.3441,-4.3329,-4.2177,-4.1618,-4.1533,-4.0998,-4.0996,-4.1439,-4.0842,-4.0457,-4.0392,0.0,0.0,0.0,0.0,0.0,0.0,0.0,0.0,0.0,0.0,0.0,0.0,0.0,0.0,0.0,-3.843,0.0,-3.9183,-4.04,0.0,0.0,0.0,-4.4527,-4.6052,-4.6689,-4.7623,-4.89,0.0,0.0,0.0,0.0,-5.2973,-5.3295,-5.2928,-5.2592,-5.2372,-5.2592,-5.2838,-5.3471,-5.4177,-5.4849,-5.5152,-5.4728,-5.4253,-5.4049,-5.4236,-5.4206,-5.4237,-5.433,-5.4391,-5.4299,-5.4391,-5.4176,-5.356,-5.3406,-5.3683,-5.4206,-5.4453,-5.4545,-5.4422,-5.436,-5.4145,-4.227,-4.2132,-4.1765,-4.1397,-4.1299,-4.1906,-4.2433,-4.3255,-4.5266,-4.5923,-4.5525,-4.6432,-4.637,-4.5558,-4.5751,-4.6034,-4.6389,-4.7141,-4.7503,-4.7476,-4.7169,-4.7438,-4.8098,-4.7382,-4.7186,-4.76,-4.7079,-4.6364,-4.5774,-4.5324,-4.4874,-4.4425,-4.4023,-4.3538,-4.309,-4.3322,-4.3722,-4.4172,-4.3863,-4.3497,-4.3048,-4.3329,-4.302,-4.2064,-4.1738,-4.1367,-4.0965,-4.1203,-4.12,-4.0871,-4.0234,-3.9854,-3.9839,-3.913,0.0,0.0,0.0,0.0,0.0,0.0,0.0,0.0,0.0,-4.1093,-3.8692,0.0,-4.1054,0.0,-3.8952,-3.9936,-4.1227,-4.1499,0.0,0.0,-4.5535,-4.6234,-4.8279,-4.8019,-4.8225,-4.942,-4.9616,-4.9861,-5.0217,-5.08,-5.1203,-5.1088,-5.2518,-5.3512,-5.3481,-5.3058,-5.291,-5.3001,-5.2819,-5.2667,-5.2819,-5.2459,-5.2185,-5.2242,-5.2021,-5.1652,-5.1652,-5.1652,-5.1652,-5.1652,-5.1652,-5.159,-5.1498,-5.1405,-5.1498,-5.1682,-5.2452,-5.3037,-5.2544,-5.2452,-5.2236,-4.2339,-4.2339,-4.2339,-4.2282,-4.2154,-4.2654,-4.3293,-4.4151,-4.6307,-4.6746,-4.6316,-4.7296,-4.7335,-4.6723,-4.703,-4.7298,-4.7628,-4.7965,-4.7965,-4.7712,-4.7375,-4.7235,-4.7291,-4.6954,-4.6813,-4.6785,-4.6504,-4.6026,-4.5352,-4.5043,-4.4734,-4.4425,-4.4425,-4.4256,-4.3919,-4.3891,-4.4088,-4.4397,-4.3807,-4.3329,-4.2992,-4.3036,-4.2584,-4.1615,-4.1564,-4.1198,-4.0268,-4.0587,-4.0654,-4.0604,-3.9918,-3.9617,-3.9525,-3.9168,-3.8662,0.0,0.0,0.0,0.0,0.0,0.0,0.0,0.0,0.0,0.0,0.0,-4.1361,0.0,-4.0933,0.0,-4.3634,-4.3968,-4.497,-4.7175,-4.7167,-4.7668,-4.9358,-4.9059,-4.912,-5.0051,-5.0027,-4.9941,-5.0143,-5.0451,-5.0667,-5.0493,-5.1603,-5.2337,-5.2123,-5.1911,-5.1698,-5.1759,-5.1484,-5.1361,-5.1361,-5.09,-5.0739,-5.1097,-5.042,-4.9959,-5.0574,-5.042,-5.0328,-5.0605,-5.0697,-5.0574,-5.0328,-5.0236,-5.0143,-4.9928,-5.0359,-5.0913,-5.119,-5.1251,-5.1097,-4.2339,-4.2339,-4.2339,-4.2546,-4.2958,-4.3208,-4.3707,-4.4523,-4.6254,-4.7066,-4.71,-4.7757,-4.8134,-4.8134,-4.8134,-4.8134,-4.8134,-4.8134,-4.7825,-4.7319,-4.7178,-4.6841,-4.642,-4.6251,-4.6139,-4.6026,-4.5464,-4.5127,-4.4959,-4.4425,-4.4172,-4.4172,-4.4088,-4.4059,-4.4124,-4.4068,-4.4096,-4.4265,-4.3899,-4.368,-4.3517,-4.3026,-4.2424,-4.1794,-4.1593,-4.0891,-3.9758,-3.9689,-3.9966,-4.039,-4.0009,-3.9646,-3.9487,-3.9524,-3.9216,0.0,-3.9708,0.0,0.0,0.0,0.0,0.0,0.0,0.0,0.0,-4.0693,-4.1546,-4.3227,-4.3229,-4.3944,-4.5779,-4.6589,-4.7311,-4.821,-4.8363,-4.8837,-4.962,-4.9682,-4.9866,-5.0359,-5.042,-5.042,-5.0205,-5.0359,-5.042,-5.0205,-5.0236,-5.0095,-4.9657,-4.9957,-5.0345,-5.0161,-5.015,-4.9904,-4.9904,-4.962,-4.9435,-4.9835,-4.9158,-4.882,-4.9805,-4.9589,-4.9435,-4.9928,-4.9866,-4.9712,-4.9343,-4.9189,-4.8943,-4.845,-4.8419,-4.8881,-5.002,-5.0359,-5.0389,-4.2339,-4.2339,-4.257,-4.3044,-4.3601,-4.3771,-4.416,-4.4858,-4.6076,-4.7389,-4.852,-4.8238,-4.8134,-4.8134,-4.8134,-4.8134,-4.8134,-4.8134,-4.805,-4.7909,-4.6926,-4.6673,-4.6954,-4.597,-4.524,-4.4762,-4.465,-4.4088,-4.3104,-4.2992,-4.2935,-4.2907,-4.2402,-4.2386,0.0,0.0,0.0,0.0,-4.4662,-4.4642,-4.3682,-4.343,-4.3054,-4.2427,-4.1377,0.0,-3.9725,-4.0081,-4.017,-3.9749,-4.0086,0.0,0.0,0.0,0.0,0.0,0.0,0.0,0.0,0.0,0.0,0.0,-4.1463,-4.0878,-4.0601,-4.1555,-4.2744,-4.4006,-4.4083,-4.4616,-4.5809,-4.6245,-4.6956,-4.8149,-4.8959,-4.9558,-4.9682,-4.9682,-4.9528,-4.9035,-4.9004,-4.882,-4.8358,-4.8666,-4.8789,-4.8358,-4.8204,-4.7958,-4.7334,-4.8736,-4.9505,-4.9013,-4.8173,-4.7465,-4.7373,-4.7311,-4.7311,-4.7281,-4.7219,-4.7127,-4.7404,-4.7373,-4.7219,-4.7465,-4.6942,-4.6788,-4.7157,-4.6757,-4.6634,-4.6911,-4.7004,-4.7373,-4.8696,-4.9004,-4.885,-4.2339,0.0,-4.3075,-4.3636,0.0,-4.4087,-4.4655,-4.5668,-4.6247,-4.7055,-4.8134,-4.7797,-4.7684,-4.7684,-4.7993,-4.7965,-4.7684,-4.7684,-4.7347,-4.6729,-4.6111,-4.5661,-4.5352,-4.4734,-4.4116,-4.3526,-4.3497,-4.3188,-4.2598,-4.2598,-4.2749,-4.3076,-4.2335,-4.2367,-4.2934,-4.2655,-4.2655,-4.2963,-4.4036,-4.4062,-4.3166,-4.3372,-4.3078,-4.2187,0.0,0.0,0.0,0.0,0.0,0.0,0.0,0.0,0.0,0.0,0.0,-3.9093,-4.0293,-4.0909,-4.0601,-4.1463,-4.2048,-4.2109,-4.2386,-4.2294,-4.1586,-4.2479,-4.3494,-4.4327,-4.4726,-4.5217,-4.5703,-4.618,-4.672,-4.7395,-4.7876,-4.8173,-4.8173,-4.8173,-4.8019,-4.7711,-4.7619,-4.7465,-4.7157,-4.7373,-4.7465,-4.7157,-4.7096,-4.6973,-4.6757,-4.7465,-4.7896,-4.7219,-4.6634,-4.6111,-4.6049,-4.5772,-4.5895,-4.6357,-4.6049,-4.5926,-4.648,-4.6049,-4.5772,-4.6326,-4.5772,-4.5403,-4.6296,-4.6049,-4.5772,-4.6467,-4.6888,-4.7279,-4.8026,-4.7831,-4.7527,-4.2339,-4.2466,-4.3451,-4.4055,-4.4354,-4.4495,-4.5219,-4.6278,0.0,0.0,0.0,-4.7319,-4.7319,-4.7263,-4.774,-4.7684,-4.7207,-4.7094,-4.6504,-4.5493,-4.538,-4.4734,-4.3666,-4.3554,-4.3104,-4.243,-4.243,-4.2435,-4.2411,-4.2411,-4.2763,-4.3257,-4.2565,-4.2436,-4.2858,-4.3079,-4.2809,-4.2199,-4.3234,-4.3501,-4.304,-4.3498,-4.3169,-4.2,-4.2301,-4.1311,-3.8832,-3.9253,-3.9277,-3.8754,-3.9339,-3.9647,-3.9554,-4.017,-4.0232,-3.9677,-4.1287,-4.1873,-4.0886,-4.2335,-4.2921,-4.1986,-4.294,-4.3402,-4.2971,-4.3433,-4.3987,-4.4541,-4.5095,-4.5434,-4.5588,-4.608,-4.648,-4.6573,-4.6603,-4.6634,-4.6634,-4.6603,-4.6634,-4.648,-4.6573,-4.6542,-4.6449,-4.6573,-4.6511,-4.6449,-4.6419,-4.6265,-4.6142,-4.6142,-4.608,-4.5434,-4.5064,-4.5003,-4.4972,-4.4603,-4.4726,-4.5434,-4.4849,-4.4695,-4.5372,-4.4972,-4.4787,-4.5464,-4.4818,-4.4709,-4.565,-4.5356,-4.5356,-4.6098,-4.6554,-4.6982,-4.6909,-4.6366,-4.605,-4.2339,-4.2466,-4.3678,-4.4232,-4.4419,-4.5067,-4.5701,-4.6461,-4.6906,-4.7142,-4.7235,-4.7769,-4.7712,-4.7207,-4.7291,-4.7291,-4.7178,-4.6673,-4.6335,0.0,-4.5577,-4.4959,-4.4284,-4.375,-4.2879,-4.1812,-4.1755,-4.1707,-4.1851,-4.1793,-4.2129,-4.2532,-4.1557,-4.0749,-4.0364,-4.1309,-4.1495,-4.0903,-4.3102,-4.4357,-4.4297,-4.4346,-4.4043,-4.3363,-4.2283,-4.0993,-3.945,-3.9456,-3.9462,-3.94,-4.0016,-4.0139,-3.9585,-4.017,-4.0232,-3.9616,-4.0665,-4.1454,-4.1828,-4.214,-4.259,-4.326,-4.3464,-4.3771,-4.4264,-4.4387,-4.4479,-4.4572,-4.4633,-4.4972,-4.5495,-4.5618,-4.5865,-4.6419,-4.6542,-4.6573,-4.6449,-4.6449,-4.6203,-4.5711,-4.6265,-4.6265,-4.5741,-4.608,-4.6142,-4.5834,-4.5526,-4.528,-4.4418,-4.4479,-4.4541,-4.3956,-4.3371,-4.3063,-4.3063,-4.2971,-4.3002,-4.3094,-4.3094,-4.3033,-4.334,-4.3187,-4.3094,-4.3187,-4.2736,-4.2736,-4.3756,-4.3466,-4.3706,-4.4564,-4.4677,-4.4393,-4.4558,-4.3943,-4.4096,-4.257,-4.3153,-4.3986,-4.4664,-4.5229,-4.61,-4.6571,-4.6846,-4.7161,-4.7287,-4.7263,-4.7516,-4.7291,-4.6757,-4.7066,-4.6841,-4.6167,-4.5886,-4.5605,-4.5268,-4.4959,-4.4312,-4.3441,-4.3466,-4.282,-4.1768,-4.2021,-4.1926,-4.1703,-4.1645,-4.1792,-4.196,-4.1113,-4.0189,-3.9324,-4.0141,-4.0609,-4.0629,-4.2528,-4.3318,-4.3002,-4.3318,-4.3013,-4.1955,-4.1309,-4.0355,-3.9031,-3.9339,-3.9524,-3.9524,-4.017,-4.0454,-4.038,-4.0696,-4.0795,-4.0685,-4.1068,-4.157,-4.2053,-4.2248,-4.2602,-4.2971,-4.3033,-4.3156,-4.3494,-4.3833,-4.3895,-4.3556,-4.3494,-4.3648,-4.3925,-4.3987,-4.411,-4.4387,-4.4449,-4.4418,-4.4418,-4.4449,-4.4326,-4.4048,-4.4233,-4.4295,-4.4018,-4.4233,-4.4356,-4.4018,-4.3987,-4.3587,-4.2663,-4.2417,-4.2448,-4.2448,-4.2263,-4.1894,-4.1555,-4.1494,-4.1494,-4.1494,-4.1832,-4.2017,-4.2048,-4.2048,-4.2048,-4.2058,-4.1465,-4.1372,-4.228,-4.2135,-4.243,-4.3138,-4.3581,-4.36,-4.3624,-4.3575,-4.3916,-4.2822,-4.3879,-4.433,-4.521,-4.6219,-4.6863,-4.7179,-4.726,-4.7427,-4.7403,-4.7403,-4.7291,-4.6869,-4.6364,-4.6813,-4.6307,-4.5212,-4.4987,-4.465,-4.4228,-4.42,-4.3786,-4.3093,-4.3398,-4.2998,-4.2212,-4.2356,-4.2158,-4.1873,-4.1696,-4.168,-4.173,-4.1213,-4.0407,-3.9461,-3.9601,-4.0088,-4.0915,-4.1584,-4.1965,-4.2048,-4.2294,-4.1863,-4.0878,-4.0478,-3.9801,-3.8846,-3.9247,-3.9585,-3.9739,-4.0262,-4.0646,-4.1055,-4.1086,-4.1194,-4.1302,-4.1401,-4.1459,-4.1502,-4.1876,-4.2058,-4.214,-4.2294,-4.2386,-4.2417,-4.2817,-4.3002,-4.2663,-4.2663,-4.2663,-4.2694,-4.2663,-4.2602,-4.2602,-4.2602,-4.2756,-4.2633,-4.2602,-4.2602,-4.2602,-4.2602,-4.2663,-4.2602,-4.2602,-4.2694,-4.2756,-4.2602,-4.2355,-4.1678,-4.097,-4.0786,-4.0909,-4.1001,-4.0662,-4.017,-4.0078,-4.0078,-4.0078,-4.0478,-4.0763,-4.0855,-4.1055,-4.1017,-4.0969,-4.0789,-4.0705,-4.1119,-4.1367,-4.1759,-4.2512,-4.2883,-4.3036,-4.2937,-4.3327,-4.3721,-4.2949,-4.3927,-4.4817,-4.5927,-4.7092,-4.6705,-4.6824,-4.7288,-4.7847,-4.8021,-4.7909,-4.7459,-4.6841,-4.6335,-4.6364,-4.5689,-4.4509,-4.3919,-4.3666,-4.361,-4.3582,-4.3862,-4.4117,-4.3717,-4.3487,-4.326,-4.2334,-4.206,-4.2346,-4.1836,-4.1866,-4.2395,-4.1853,-4.137,-4.1159,-4.0197,-4.0299,-4.143,-4.0523,-4.1085,-4.3217,-4.2263,-4.1617,-4.1494,-4.0262,-3.9554,-3.9308,-3.9493,-3.9801,-4.0385,-4.0478,-4.0646,-4.1055,-4.1122,-4.0974,-4.0704,-4.0928,-4.0769,-3.9882,-4.0094,-4.0479,-4.0693,-4.1278,-4.1617,-4.1617,-4.1709,-4.2048,-4.2355,-4.254,-4.2509,-4.2602,-4.2509,-4.2417,-4.2417,-4.2417,-4.2602,-4.2509,-4.2602,-4.2602,-4.2602,-4.2325,-4.2571,-4.2294,-4.2263,-4.2386,-4.2171,-4.2078,-4.1925,-4.134,-4.0662,-4.0047,-3.9708,-3.9247,-3.8877,-3.8754,-3.8692,-3.8754,-3.8723,-3.8754,-3.9071,-3.9396,-3.9624,-3.9597,-3.9846,-4.007,-4.049,-4.0717,-4.1181,-4.1832,-4.2072,-4.2121,-4.1716,-4.1287,-4.1728,-4.2466,-4.4051,-4.5476,-4.566,-4.6283,-4.719,-4.6675,-4.695,-4.7773,-4.7612,-4.7572,-4.7516,-4.6926,-4.6532,-4.6279,-4.5914,-4.5043,-4.3891,-4.361,-4.3273,-4.2992,-4.2964,-4.3097,-4.3314,-4.3485,-4.3431,-4.3101,-4.2861,-4.253,-4.1949,-4.1321,-4.0944,-4.0872,-4.0598,-4.0311,-4.001,-4.0184,-4.0721,-4.1595,-4.1511,-4.2138,-4.3156,-4.1463,-4.017,-3.9708,-3.8816,-3.8323,-3.8354,-3.8692,-3.9247,-3.9893,-4.0498,-4.08,-4.0727,-4.0988,-4.0928,-4.051,-4.0259,-3.9692,-3.8686,-3.8929,-3.9195,-3.9308,-3.9616,-3.977,-3.9801,-4.0139,-4.0509,-4.0755,-4.1124,-4.137,-4.137,-4.1032,-4.094,-4.1217,-4.1032,-4.094,-4.134,-4.1001,-4.0786,-4.0755,-4.0416,-4.0201,-4.017,-4.017,-4.0201,-4.0201,-4.0201,-4.0238,-3.9801,-3.9154,-3.8692,-3.8323,-3.7769,-3.7554,-3.78,-3.7923,-3.7833,-3.7777,-3.7996,-3.834,-3.8654,-3.9188,-3.9408,-3.9089,-3.9715,-4.0066,-3.9974,-4.0461,-4.1018,-4.1374,-4.1503,-4.1071,-4.0844,-4.1064,-4.1641,-4.5135,-4.6484,-4.632,-4.6915,-4.7728,-4.6964,-4.7157,-4.7976,-4.7656,-4.7375,-4.715,-4.656,-4.6195,-4.5942,-4.5352,-4.4425,-4.3329,-4.3048,-4.2739,-4.2345,-4.2317,-4.2502,-4.2883,-4.3182,-4.3138,-4.2952,-4.2952,-4.2417,-4.134,-4.0816,-4.0423,-4.0193,-4.0001,-3.9775,-3.9668,-4.0274,-4.0932,-4.1881,-4.2101,-4.2487,-4.2879,-4.0816,-3.9277,-3.8754,-3.7769,-3.7307,-3.7492,-3.7984,-3.8604,-3.9349,-4.0111,-4.0473,-4.0388,-4.0672,-4.0601,-4.0107,-3.9275,-3.8497,-3.7748,-3.8023,-3.8231,-3.8262,-3.8385,-3.8508,-3.86,-3.897,-3.9216,-3.9308,-3.9708,-4.0016,-4.0201,-3.9801,-3.9708,-3.9924,-3.9524,-3.9462,-3.9862,-3.9493,-3.9277,-3.9185,-3.9031,-3.8508,-3.8539,-3.8762,-3.902,-3.8989,-3.9025,-3.8996,-3.8902,-3.856,-3.8091,-3.7935,-3.7405,-3.7033,-3.7186,-3.7341,-3.7219,-3.7402,-3.7712,-3.8236,-3.8503,-3.9193,-3.9418,-3.9235,-3.9686,-3.9918,-3.994,-4.0172,-4.0504,-4.0714,-4.0858,-4.0905,-4.0871,-4.0905,-4.0905,-4.5743,-4.6764,-4.7057,-4.7891,-4.8838,-4.768,-4.7494,-4.8134,-4.805,-4.774,-4.7122,-4.6532,-4.5942,-4.5296,-4.4678,-4.3778,-4.2683,-4.2064,-4.1755,-4.1671,-4.1643,-4.2276,-4.3517,-4.3006,-4.2981,-4.327,-4.231,-4.1432,-4.0662,-4.057,-4.0878,-4.1361,-4.0808,-4.0832,-4.1113,-4.045,-4.0721,-4.2304,-4.1624,-4.148,-4.2252,-4.0601,-3.9493,-3.9216,-3.7584,-3.6876,-3.7369,-3.7523,-3.799,-3.8963,-3.9152,-3.9376,-3.9909,-4.0,-3.9649,-3.9042,-3.7834,-3.7124,-3.7125,-3.7374,-3.7554,-3.7615,-3.8046,-3.8446,-3.8323,-3.8477,-3.8539,-3.8539,-3.8662,-3.897,-3.94,-3.9339,-3.9154,-3.8785,-3.86,-3.86,-3.8662,-3.8662,-3.8569,-3.8539,-3.8415,-3.8262,-3.8385,-3.9029,-3.9062,-3.9251,-3.9747,-3.9987,-3.9734,-3.9436,-3.9082,-3.8862,-3.8302,-3.7535,-3.6847,-3.7002,-3.7275,-3.748,-3.7807,-3.8302,-3.8876,-3.9395,-3.9322,-3.9462,-3.9949,-4.0155,-4.0037,-4.017,-4.0583,-4.0823,-4.0823,-4.0871,-4.0871,-4.0871,-4.0871,-4.6203,-4.7136,-4.7611,-4.8083,-4.8314,-4.7647,-4.7624,-4.8078,-4.7684,-4.7207,-4.6588,-4.5942,-4.5099,-4.4116,-4.3526,-4.2992,-4.2542,-4.1896,-4.139,-4.1081,-4.1025,-4.1511,-4.217,-4.2056,-4.2276,-4.2711,-4.2068,-4.1217,-4.0601,-4.0539,-4.0662,-4.094,-4.1124,-4.1352,-4.1607,-4.2035,-4.2585,-4.3135,-4.2738,-4.264,-4.2417,-4.0601,-3.9339,-3.8816,-3.7338,-3.6599,-3.6846,-3.7277,-3.7679,-3.8054,-3.8618,-3.8936,-3.8685,-3.8489,-3.8362,-3.8275,-3.7496,-3.6877,-3.6724,-3.6785,-3.6846,-3.6876,-3.7061,-3.7246,-3.7277,-3.7584,-3.7861,-3.7923,-3.8292,-3.8508,-3.8231,-3.8231,-3.8323,-3.8415,-3.8138,-3.8015,-3.8292,-3.8138,-3.7861,-3.78,-3.7523,-3.7215,-3.7466,-3.7747,-3.8083,-3.8144,-3.8681,-3.903,-3.9055,-3.8796,-3.8813,-3.878,-3.8529,-3.8222,-3.8051,-3.7476,-3.7358,-3.7653,-3.8001,-3.8432,-3.8952,-3.9276,-3.9342,-3.9866,-4.0288,-4.0387,-4.0303,-4.0451,-4.0823,-4.0823,-4.0871,-4.0871,-4.0871,-4.0871,-4.0871,-4.7241,-4.7615,-4.8192,-4.8404,-4.8326,-4.7771,-4.7587,-4.7797,-4.7375,-4.6757,-4.597,-4.5324,-4.4453,-4.3469,-4.2654,-4.2261,-4.2233,-4.1783,-4.139,-4.1025,-4.1255,-4.1394,-4.1528,-4.1568,-4.173,-4.187,-4.1515,-4.097,-4.0632,-4.0755,-4.0878,-4.094,-4.1586,-4.1925,-4.2078,-4.2633,-4.3002,-4.3187,-4.3033,-4.2694,-4.2078,-4.0478,-3.9185,-3.8415,-3.7184,-3.6507,-3.6507,-3.6938,-3.7247,-3.7435,-3.7997,-3.8216,-3.7839,-3.7461,-3.7398,-3.7622,-3.7126,-3.6754,-3.6569,-3.6507,-3.6507,-3.6507,-3.6507,-3.6507,-3.6538,-3.6907,-3.7153,-3.7277,-3.7523,-3.7615,-3.7338,-3.7184,-3.7369,-3.7738,-3.7461,-3.7338,-3.7769,-3.743,-3.7215,-3.7123,-3.6971,-3.6816,-3.6876,-3.7535,-3.7918,-3.7911,-3.8502,-3.8941,-3.8865,-3.8941,-3.9049,-3.9102,-3.9135,-3.9135,-3.8995,-3.8613,-3.839,-3.8613,-3.8701,-3.892,-3.9169,-3.9382,-3.9644,-4.0238,-4.0485,-4.0534,-4.068,-4.0823,-4.0871,-4.0871,-4.0871,-4.0871,-4.0871,-4.0871,-4.0871,-4.8664,-4.8165,-4.8841,-4.8986,-4.8789,-4.8201,-4.774,-4.7319,-4.715,-4.6364,-4.5324,-4.4678,-4.4003,-4.3245,-4.2266,-4.1731,-4.1702,-4.1846,-4.1762,-4.162,-4.2253,-4.2249,-4.1807,-4.1852,-4.149,-4.1019,-4.0659,-4.0601,-4.0662,-4.1186,-4.1494,-4.1678,-4.2232,-4.2602,-4.2602,-4.2263,-4.214,-4.2582,-4.2243,-4.178,-4.1432,-4.0238,-3.919,-3.8512,-3.7278,-3.6538,-3.6507,-3.6538,-3.6724,-3.6939,-3.7032,-3.7152,-3.7367,-3.7152,-3.703,-3.7063,-3.6724,-3.6507,-3.6507,-3.6507,-3.6507,-3.6507,-3.6507,-3.6507,-3.6507,-3.6569,-3.6599,-3.663,-3.663,-3.6569,-3.6599,-3.6599,-3.6599,-3.6538,-3.663,-3.6661,-3.663,-3.6538,-3.6507,-3.6631,-3.6754,-3.715,-3.7621,-3.8165,-3.8645,-3.8974,-3.9558,-4.0054,-3.9799,-3.9952,-4.0337,-4.0337,-4.0104,-3.9901,-3.9901,-3.985,-3.9765,-3.9732,-3.9765,-3.985,-4.0003,-4.0204,-4.0204,-4.0631,-4.0631,-4.0728,-4.0728,-4.0871,-4.0871,-4.0871,-4.0871,-4.0871,-4.0871,-4.0871,-4.0871,-4.8244,-4.7213,-4.852,-4.877,-4.8359,-4.774,-4.7375,-4.7122,-4.6335,-4.5436,-4.4678,-4.4059,-4.3216,-4.2406,-4.2193,-4.2081,-4.1823,-4.2882,-4.2996,-4.2109,-4.2797,-4.3219,-4.3019,-4.2959,-4.2667,-4.1961,-4.1444,-4.1278,-4.1278,-4.1494,-4.1586,-4.1801,-4.2725,-4.3248,-4.3279,-4.3063,-4.3241,-4.3428,-4.2466,-4.2046,-4.2066,-4.0473,-3.9279,-3.8774,-3.753,-3.6754,-3.6507,-3.6507,-3.6538,-3.6693,-3.6631,-3.6879,-3.725,-3.694,-3.694,-3.7218,-3.6816,-3.6507,-3.6507,-3.6507,-3.6507,-3.6507,-3.6507,-3.6507,-3.6507,-3.6507,-3.6507,-3.6507,-3.6507,-3.6507,-3.6507,-3.6507,-3.6507,-3.6507,-3.6507,-3.6507,-3.6507,-3.6507,-3.6507,-3.6569,-3.6816,-3.715,-3.7621,-3.8222,-3.881,-3.9348,-3.985,-4.0138,-4.0288,-4.0387,-4.0534,-4.0583,-4.0485,-4.0485,-4.0436,-4.0353,-4.0353,-4.022,-4.0254,-4.0337,-4.0534,-4.068,-4.0728,-4.0776,-4.0823,-4.0823,-4.0823,-4.0823,-4.0871,-4.0871,-4.0871,-4.0871,-4.0871,-4.0871,-4.0871,-4.8192,-4.6955,-4.8116,-4.8331,-4.774,-4.7122,-4.6729,-4.6392,-4.5436,-4.465,-4.4003,-4.3432,-4.2729,-4.2194,-4.2478,-4.2528,-4.2582,-4.3994,-4.4078,-4.3353,-4.4174,-4.459,-4.4278,-4.3758,-4.3046,-4.2375,-4.2048,-4.1678,-4.1247,-4.1709,-4.1986,-4.2171,-4.3033,-4.371,-4.3908,-4.358,-4.3479,-4.3366,-4.2497,-4.1915,-4.1471,-4.0193,-3.9187,-3.8712,-3.753,-3.6755,-3.6507,-3.6507,-3.6507,-3.6507,-3.6507,-3.6722,-3.703,-3.6722,-3.6692,-3.6907,-3.6784,-3.6507,-3.6507,-3.6507,-3.6507,-3.6507,-3.6507,-3.6507,-3.6507,-3.6507,-3.6507,-3.6507,-3.6507,-3.6507,-3.6507,-3.6507,-3.6507,-3.6507,-3.6507,-3.6507,-3.6507,-3.6507,-3.6569,-3.6693,-3.6999,-3.7358,-3.7854,-3.8446,-3.8974,-3.9558,-4.0003,-4.0188,-4.0436,-4.0534,-4.068,-4.0728,-4.0728,-4.0776,-4.0823,-4.0871,-4.0871,-4.0645,-4.05,-4.05,-4.068,-4.068,-4.0728,-4.0823,-4.0871,-4.0871,-4.0871,-4.0871,-4.0871,-4.0871,-4.0871,-4.0871,-4.0871,-4.0871,-4.0871,-4.8353,-4.7426,-4.7829,-4.7825,-4.7207,-4.6616,-4.597,-4.5268,-4.465,-4.3975,-4.3279,-4.2879,-4.2596,-4.2507,-4.2626,-4.3064,-4.3685,-4.4531,-4.5132,-4.5552,-4.6207,-4.629,-4.5667,-4.4633,-4.3482,-4.2386,-4.2386,-4.1894,-4.094,-4.1832,-4.254,-4.2479,-4.3125,-4.3877,-4.4044,-4.3562,-4.3034,-4.2785,-4.2045,-4.135,-4.0814,-3.9773,-3.8994,-3.8608,-3.7527,-3.6754,-3.6507,-3.6507,-3.6507,-3.6507,-3.6507,-3.6507,-3.6538,-3.6507,-3.6507,-3.6569,-3.6507,-3.6507,-3.6507,-3.6507,-3.6507,-3.6507,-3.6507,-3.6507,-3.6507,-3.6507,-3.6507,-3.6507,-3.6507,-3.6507,-3.6507,-3.6507,-3.6507,-3.6507,-3.6507,-3.6507,-3.6507,-3.6507,-3.6662,-3.6968,-3.7298,-3.7738,-3.8446,-3.9156,-3.9506,-3.9868,-4.0353,-4.0485,-4.0534,-4.068,-4.0823,-4.0871,-4.0823,-4.0871,-4.0871,-4.0871,-4.0871,-4.0823,-4.0645,-4.0728,-4.0728,-4.0776,-4.0776,-4.0871,-4.0871,-4.0871,-4.0871,-4.0871,-4.0871,-4.0871,-4.0871,-4.0871,-4.0871,-4.0871,-4.0871,-4.7621,-4.737,-4.7894,-4.7769,-4.7178,-4.656,-4.5661,-4.465,-4.4003,-4.3132,-4.2382,-4.2453,-4.2449,-4.2045,-4.2909,-4.3498,-4.4028,-4.5334,-4.6092,-4.6517,-4.7558,-4.765,-4.7068,-4.6217,-4.5033,-4.3802,-4.3002,-4.2171,-4.1401,-4.1709,-4.1925,-4.1925,-4.2971,-4.3488,-4.3469,-4.323,-4.3113,-4.2884,-4.1996,-4.1654,-4.1462,-4.0606,-3.9689,-3.8867,-3.8494,-3.7684,-3.6692,-3.6507,-3.6507,-3.6507,-3.6507,-3.6507,-3.6507,-3.6507,-3.6507,-3.6507,-3.6507,-3.6507,-3.6507,-3.6507,-3.6507,-3.6507,-3.6507,-3.6507,-3.6507,-3.6507,-3.6507,-3.6507,-3.6507,-3.6507,-3.6507,-3.6507,-3.6507,-3.6507,-3.6538,-3.6538,-3.6569,-3.6507,-3.6723,-3.7358,-3.7738,-3.8367,-3.9102,-3.9525,-3.9868,-4.0303,-4.0534,-4.0583,-4.068,-4.0728,-4.0871,-4.0871,-4.0871,-4.0871,-4.0871,-4.0871,-4.0871,-4.0871,-4.0823,-4.0823,-4.0823,-4.0823,-4.0871,-4.0871,-4.0871,-4.0871,-4.0871,-4.0871,-4.0871,-4.0871,-4.0871,-4.0871,-4.0871,-4.0871,-4.0871,-4.7294,-4.7311,-4.7308,-4.715,-4.6729,-4.5886,-4.4931,-4.4124,-4.363,-4.2988,-4.2309,-4.2727,-4.2849,-4.2607,-4.3536,-4.4187,-4.463,-4.5953,-4.6726,-4.7219,-4.8112,-4.8173,-4.7619,-4.7127,-4.6172,-4.4633,-4.3802,-4.2971,-4.2109,-4.174,-4.174,-4.2048,-4.2479,-4.285,-4.3176,-4.2911,-4.2799,-4.2568,-4.21,-4.1785,-4.1393,-4.0729,-4.0031,-3.9303,-3.8924,-3.8147,-3.7061,-3.6907,-3.6815,-3.6599,-3.6507,-3.6507,-3.6507,-3.6507,-3.6507,-3.6507,-3.6507,-3.6507,-3.6507,-3.6507,-3.6507,-3.6507,-3.6507,-3.6507,-3.6507,-3.6507,-3.6507,-3.6507,-3.6507,-3.6507,-3.6507,-3.6507,-3.66,-3.6846,-3.6907,-3.6907,-3.6907,-3.6937,-3.7385,-3.7969,-3.8479,-3.881,-3.9662,-3.9817,-4.0104,-4.0485,-4.0583,-4.068,-4.0823,-4.0871,-4.0871,-4.0871,-4.0871,-4.0871,-4.0871,-4.0871,-4.0871,-4.0871,-4.0871,-4.0871,-4.0871,-4.0871,-4.0871,-4.0871,-4.0871,-4.0871,-4.0871,-4.0871,-4.0871,-4.0871,-4.0871,-4.0871,-4.0871,-4.0871,-4.0871,-4.7233,-4.7205,-4.6572,-4.6307,-4.6055,-4.5015,-4.4349,-4.3743,-4.3681,-4.3344,-4.2992,-4.3418,-4.3558,-4.3645,-4.4112,-4.488,-4.5464,-4.6203,-4.6942,-4.7496,-4.8081,-4.805,-4.7434,-4.7311,-4.6172,-4.4603,-4.4449,-4.3464,-4.2325,-4.1678,-4.1894,-4.2171,-4.2027,-4.2293,-4.2989,-4.2994,-4.2648,-4.2297,-4.2192,-4.1582,-4.0987,-4.0422,-3.9982,-3.9473,-3.8851,-3.8357,-3.7738,-3.7492,-3.7184,-3.6507,-3.6507,-3.6507,-3.6507,-3.6507,-3.6507,-3.6507,-3.6507,-3.6507,-3.6538,-3.6599,-3.6661,-3.6692,-3.6661,-3.6599,-3.6661,-3.6599,-3.6507,-3.6507,-3.6507,-3.6507,-3.6538,-3.6538,-3.6846,-3.7238,-3.7417,-3.7535,-3.7621,-3.7648,-3.8051,-3.892,-3.9189,-3.9401,-3.9714,-4.0054,-4.0387,-4.0583,-4.068,-4.0776,-4.0871,-4.0871,-4.0871,-4.0871,-4.0871,-4.0871,-4.0871,-4.0871,-4.0871,-4.0871,-4.0871,-4.0871,-4.0871,-4.0871,-4.0871,-4.0871,-4.0871,-4.0871,-4.0871,-4.0871,-4.0871,-4.0871,-4.0871,-4.0871,-4.0871,-4.0871,-4.0871,-4.6564,-4.6583,-4.6918,-4.6448,-4.5577,-4.524,-4.4761,-4.4257,-4.4292,-4.3979,-4.3725,-4.4107,-4.4067,-4.3645,-4.4266,-4.4664,-4.5003,-4.5988,-4.6942,-4.7558,-4.7711,-4.7434,-4.6911,-4.6788,-4.5711,-4.4326,-4.3833,-4.2848,-4.1586,-4.1678,-4.1678,-4.1863,-4.2478,-4.2887,-4.302,-4.3584,-4.3573,-4.2685,-4.2208,-4.1758,-4.0982,-4.0591,-4.0115,-3.9585,-3.8939,-3.8539,-3.8231,-3.7769,-3.7184,-3.6692,-3.6538,-3.6569,-3.6507,-3.6538,-3.6538,-3.6507,-3.6507,-3.6507,-3.6569,-3.6907,-3.7246,-3.7215,-3.7184,-3.7277,-3.7246,-3.6753,-3.6538,-3.6507,-3.6507,-3.6538,-3.6723,-3.6997,-3.7298,-3.7621,-3.8026,-3.8446,-3.8778,-3.8557,-3.8778,-3.9368,-3.968,-3.9885,-4.05,-4.0549,-4.0728,-4.081,-4.0823,-4.0871,-4.0871,-4.0871,-4.0871,-4.0871,-4.0871,-4.0871,-4.0871,-4.0871,-4.0871,-4.0871,-4.0871,-4.0871,-4.0871,-4.0871,-4.0871,-4.0871,-4.0871,-4.0871,-4.0871,-4.0871,-4.0871,-4.0871,-4.0871,-4.0871,-4.0871,-4.0871,-4.0871,-4.637,-4.638,-4.6612,-4.6223,-4.5352,-4.5364,-4.5081,-4.4729,-4.5201,-4.501,-4.4415,-4.4769,-4.4721,-4.4112,-4.4419,-4.4572,-4.4787,-4.5618,-4.648,-4.6973,-4.7096,-4.6757,-4.6111,-4.5834,-4.5095,-4.4418,-4.4172,-4.331,-4.2694,-4.214,-4.2263,-4.2448,-4.2788,-4.2652,-4.2771,-4.3545,-4.3082,-4.2202,-4.2066,-4.1704,-4.0907,-4.0578,-4.0447,-4.0047,-3.9616,-3.9339,-3.897,-3.8354,-3.7677,-3.7153,-3.6969,-3.6815,-3.663,-3.6784,-3.6815,-3.6538,-3.6507,-3.6507,-3.6661,-3.7092,-3.7492,-3.7523,-3.7523,-3.7492,-3.7338,-3.6876,-3.6538,-3.6538,-3.6785,-3.7029,-3.7385,-3.7706,-3.8051,-3.8446,-3.8778,-3.9262,-3.9714,-3.9473,-3.9368,-4.002,-4.0303,-4.05,-4.0776,-4.0871,-4.0871,-4.0823,-4.0823,-4.0871,-4.0871,-4.0871,-4.0871,-4.0871,-4.0871,-4.0871,-4.0871,-4.0871,-4.0871,-4.0871,-4.0871,-4.0871,-4.0871,-4.0871,-4.0871,-4.0871,-4.0871,-4.0871,-4.0871,-4.0871,-4.0871,-4.0871,-4.0871,-4.0871,-4.0871,-4.0871,-4.0871,-4.625,-4.6155,-4.6294,-4.5966,-4.544,-4.5551,-4.5486,-4.5259,-4.6211,-4.6056,-4.5152,-4.5554,-4.5325,-4.4695,-4.4572,-4.4603,-4.4941,-4.5464,-4.6265,-4.6388,-4.6449,-4.6049,-4.5464,-4.5033,-4.4941,-4.5311,-4.4603,-4.411,-4.3525,-4.331,-4.2756,-4.3094,-4.2994,-4.2798,-4.2567,-4.2895,-4.2958,-4.2077,-4.2288,-4.1938,-4.0978,-4.0786,-4.0755,-4.0693,-4.0416,-4.0262,-3.9801,-3.9154,-3.8415,-3.7861,-3.78,-3.743,-3.7123,-3.7215,-3.7461,-3.6876,-3.6969,-3.703,-3.7184,-3.7554,-3.7954,-3.78,-3.7861,-3.7769,-3.7615,-3.7153,-3.6847,-3.6938,-3.7178,-3.7796,-3.839,-3.8668,-3.8995,-3.9368,-3.961,-4.0054,-4.0436,-4.0254,-4.0269,-4.0534,-4.068,-4.0776,-4.0823,-4.0871,-4.0871,-4.0871,-4.0871,-4.0871,-4.0871,-4.0871,-4.0871,-4.0871,-4.0871,-4.0871,-4.0871,-4.0871,-4.0871,-4.0871,-4.0871,-4.0871,-4.0871,-4.0871,-4.0871,-4.0871,-4.0871,-4.0871,-4.0871,-4.0871,-4.0871,-4.0871,-4.0871,-4.0871,-4.0871,-4.0871,-4.0871,-4.6054,-4.5647,-4.6101,-4.6067,-4.5614,-4.6106,-4.6608,-4.707,-4.7237,-4.6993,-4.6321,-4.6309,-4.5649,-4.4849,-4.4572,-4.4849,-4.5311,-4.5803,-4.6018,-4.5834,-4.5741,-4.5403,-4.491,-4.4695,-4.4664,-4.451,-4.4141,-4.3464,-4.294,-4.2848,-4.3063,-4.2428,-4.2736,-4.3024,-4.3262,-4.3707,-4.3562,-4.2757,-4.3004,-4.252,-4.1678,-4.134,-4.1247,-4.1186,-4.0755,-4.0755,-4.0847,-4.0016,-3.9277,-3.9185,-3.9185,-3.8785,-3.8323,-3.8292,-3.8292,-3.8077,-3.7984,-3.7923,-3.8046,-3.8662,-3.9093,-3.9185,-3.9,-3.8754,-3.8323,-3.771,-3.7313,-3.7512,-3.7879,-3.839,-3.8502,-3.9156,-3.942,-3.9765,-4.0154,-4.0534,-4.0631,-4.068,-4.0645,-4.0823,-4.0871,-4.0871,-4.0871,-4.0871,-4.0871,-4.0871,-4.0871,-4.0871,-4.0871,-4.0871,-4.0871,-4.0871,-4.0871,-4.0871,-4.0871,-4.0871,-4.0871,-4.0871,-4.0871,-4.0871,-4.0871,-4.0871,-4.0871,-4.0965,-4.0918,-4.0871,-4.0871,-4.0871,-4.0871,-4.0871,-4.0871,-4.0871,-4.0871,-4.0871,-4.0871,-4.6422,-4.5958,-4.6557,-4.6368,-4.5772,-4.6609,-4.7219,-4.7533,-4.757,-4.7201,-4.6647,-4.6234,-4.5772,-4.5126,-4.4695,-4.4818,-4.5126,-4.5341,-4.5341,-4.5095,-4.5033,-4.4941,-4.4603,-4.4572,-4.4572,-4.451,-4.4202,-4.3771,-4.3248,-4.3771,-4.3618,-4.3445,-4.3406,-4.3314,-4.3229,-4.3592,-4.3376,-4.294,-4.3156,-4.3125,-4.214,-4.1832,-4.1463,-4.1032,-4.0847,-4.094,-4.1186,-4.0262,-3.9739,-3.9862,-3.9708,-3.937,-3.9216,-3.9247,-3.9216,-3.8723,-3.8569,-3.8539,-3.8631,-3.9123,-3.9462,-3.9431,-3.9277,-3.9093,-3.8697,-3.8214,-3.7859,-3.8351,-3.8799,-3.9315,-3.9662,-4.002,-4.0254,-4.0303,-4.0631,-4.0728,-4.081,-4.0871,-4.0871,-4.0871,-4.0871,-4.0871,-4.0871,-4.0871,-4.0871,-4.0871,-4.0871,-4.0871,-4.0871,-4.0871,-4.0871,-4.0871,-4.0871,-4.0871,-4.0918,-4.0918,-4.0965,-4.0918,-4.0965,-4.0965,-4.0965,-4.1012,-4.1059,-4.1071,-4.1059,-4.0965,-4.0918,-4.0918,-4.0918,-4.0871,-4.0871,-4.0871,-4.0871,-4.0871,-4.0871,-4.6907,-4.6373,-4.7014,-4.6732,-4.6048,-4.7189,-4.7849,-4.7813,-4.7834,-4.7496,-4.6757,-4.6296,-4.5926,-4.5495,-4.5064,-4.4756,-4.4633,-4.4756,-4.4849,-4.4664,-4.4633,-4.4603,-4.4572,-4.4572,-4.4572,-4.4572,-4.451,-4.4479,-4.411,-4.4356,-4.4387,-4.3833,-4.3525,-4.334,-4.3094,-4.3445,-4.2756,-4.2879,-4.3094,-4.3371,-4.2633,-4.1955,-4.134,-4.0816,-4.0755,-4.1124,-4.1678,-4.0786,-4.0385,-4.0416,-4.0201,-3.9739,-3.9831,-4.0232,-4.0016,-3.9154,-3.8939,-3.8908,-3.9093,-3.94,-3.9831,-3.9801,-3.9277,-3.9313,-3.9305,-3.8964,-3.8537,-3.9329,-3.9817,-4.007,-4.0402,-4.0776,-4.0823,-4.0823,-4.0823,-4.0871,-4.0871,-4.0871,-4.0871,-4.0871,-4.0871,-4.0871,-4.0871,-4.0871,-4.0871,-4.0871,-4.0871,-4.0871,-4.0871,-4.0871,-4.0871,-4.0871,-4.0871,-4.0871,-4.0918,-4.1012,-4.1012,-4.1059,-4.1152,-4.1198,-4.1198,-4.1244,-4.1244,-4.1255,-4.1117,-4.1059,-4.0965,-4.0918,-4.0965,-4.0965,-4.0918,-4.0871,-4.0871,-4.0871,-4.0871,-4.6854,-4.6383,-4.7186,-4.7052,-4.6676,-4.7859,-4.8438,-4.8377,-4.8306,-4.8112,-4.7311,-4.7219,-4.6449,-4.5711,-4.5495,-4.5095,-4.488,-4.5003,-4.5003,-4.4633,-4.4572,-4.4572,-4.4572,-4.4572,-4.4572,-4.4572,-4.4572,-4.4202,-4.411,-4.4418,-4.4018,-4.3371,-4.3556,-4.3494,-4.3371,-4.3464,-4.3802,-4.411,-4.4295,-4.3802,-4.2694,-4.1955,-4.1555,-4.1401,-4.1432,-4.1709,-4.2171,-4.1524,-4.1278,-4.1309,-4.0755,-4.0416,-4.0416,-4.0447,-4.0509,-4.0324,-4.0293,-4.0262,-4.017,-4.0232,-4.0331,-4.03,-4.0146,-4.0262,-4.0135,-4.0183,-3.9885,-3.9506,-4.0154,-4.0534,-4.068,-4.0823,-4.0871,-4.0871,-4.0871,-4.0871,-4.0871,-4.0871,-4.0871,-4.0871,-4.0871,-4.0871,-4.0871,-4.0871,-4.0871,-4.0871,-4.0871,-4.0871,-4.0871,-4.0871,-4.0965,-4.0965,-4.0918,-4.0871,-4.0918,-4.0965,-4.1012,-4.1105,-4.1244,-4.138,-4.138,-4.138,-4.1515,-4.1471,-4.1335,-4.1163,-4.1105,-4.1105,-4.1059,-4.1012,-4.0918,-4.0871,-4.0871,-4.0871,-4.0871,-4.7395,-4.6944,-4.7731,-4.7755,-4.7317,-4.8263,-4.8389,-4.8019,-4.7619,-4.7311,-4.688,-4.6172,-4.5526,-4.5187,-4.5372,-4.5218,-4.4756,-4.491,-4.488,-4.4664,-4.4572,-4.4572,-4.4572,-4.4572,-4.4572,-4.4572,-4.4541,-4.451,-4.4295,-4.4326,-4.4172,-4.3833,-4.3618,-4.3556,-4.3648,-4.3587,-4.371,-4.3864,-4.3925,-4.3494,-4.2694,-4.1955,-4.1432,-4.1093,-4.1401,-4.1955,-4.2294,-4.1986,-4.1863,-4.1832,-4.1186,-4.0539,-4.0539,-4.0539,-4.0509,-4.0509,-4.0509,-4.0509,-4.0509,-4.0539,-4.0715,-4.0899,-4.0782,-4.0451,-4.0572,-4.0955,-4.0961,-4.0306,-4.0583,-4.0776,-4.081,-4.0871,-4.0871,-4.0871,-4.0871,-4.0871,-4.0871,-4.0871,-4.0871,-4.0871,-4.0871,-4.0871,-4.0871,-4.0871,-4.0918,-4.0918,-4.0918,-4.0918,-4.0918,-4.0871,-4.1012,-4.1105,-4.1012,-4.0871,-4.0918,-4.0918,-4.0965,-4.1012,-4.1163,-4.13,-4.1391,-4.1436,-4.1604,-4.1692,-4.1569,-4.1436,-4.1255,-4.1117,-4.1012,-4.0965,-4.0871,-4.0871,-4.0871,-4.0871,-4.0871,-4.8137,-4.7619,-4.8209,-4.8162,-4.7691,-4.811,-4.8081,-4.7558,-4.6911,-4.6634,-4.6234,-4.5311,-4.4726,-4.4756,-4.4972,-4.4787,-4.4603,-4.4572,-4.4572,-4.4572,-4.4572,-4.4572,-4.4572,-4.4572,-4.4572,-4.4572,-4.4572,-4.451,-4.4541,-4.4541,-4.4541,-4.4541,-4.4079,-4.3895,-4.3833,-4.3895,-4.3956,-4.3956,-4.3771,-4.3279,-4.2633,-4.1955,-4.137,-4.1217,-4.1463,-4.2109,-4.2417,-4.2202,-4.2232,-4.1925,-4.1186,-4.0539,-4.0539,-4.0539,-4.0539,-4.0539,-4.0539,-4.0539,-4.0539,-4.0539,-4.0919,-4.117,-4.1629,-4.1573,-4.1365,-4.1816,-4.185,-4.1077,-4.0844,-4.0905,-4.0871,-4.0871,-4.0871,-4.0871,-4.0871,-4.0871,-4.0905,-4.094,-4.094,-4.0871,-4.0871,-4.0871,-4.0871,-4.0871,-4.0918,-4.0965,-4.1012,-4.1012,-4.1012,-4.1059,-4.1105,-4.1209,-4.1071,-4.0965,-4.0918,-4.0918,-4.0918,-4.1012,-4.1163,-4.13,-4.1391,-4.1569,-4.1701,-4.1788,-4.1701,-4.1525,-4.1209,-4.1071,-4.0965,-4.0918,-4.0871,-4.0871,-4.0871,-4.0871,-4.0871,-4.9044,-4.8443,-4.8471,-4.8177,-4.7661,-4.7681,-4.765,-4.7465,-4.6819,-4.6511,-4.6234,-4.5249,-4.488,-4.5003,-4.4295,-4.411,-4.4541,-4.4572,-4.4541,-4.4541,-4.4572,-4.4572,-4.4572,-4.4572,-4.4572,-4.4572,-4.4572,-4.4572,-4.4603,-4.4756,-4.4664,-4.4541,-4.4479,-4.451,-4.4418,-4.4326,-4.4326,-4.4172,-4.3802,-4.3187,-4.2571,-4.2017,-4.1555,-4.1678,-4.2109,-4.2571,-4.2633,-4.2509,-4.2294,-4.1925,-4.1032,-4.0539,-4.0539,-4.0539,-4.0539,-4.0539,-4.0539,-4.0539,-4.0539,-4.0646,-4.0956,-4.169,-4.2512,-4.3107,-4.2656,-4.2686,-4.2499,-4.1822,-4.125,-4.0905,-4.0871,-4.0871,-4.0871,-4.094,-4.1009,-4.1181,-4.1147,-4.1112,-4.1078,-4.094,-4.0871,-4.0871,-4.0871,-4.0871,-4.1012,-4.1024,-4.1209,-4.1244,-4.1346,-4.1346,-4.1255,-4.13,-4.1209,-4.1071,-4.0965,-4.0918,-4.0965,-4.1105,-4.1255,-4.1391,-4.148,-4.1657,-4.178,-4.1613,-4.148,-4.1346,-4.1209,-4.1105,-4.0965,-4.0918,-4.0871,-4.0871,-4.0871,-4.0871,-4.0871,-4.8853,-4.8004,-4.8401,-4.8446,-4.8204,-4.7773,-4.7373,-4.6911,-4.6265,-4.5711,-4.5341,-4.4818,-4.4479,-4.4141,-4.3556,-4.334,-4.3895,-4.3956,-4.4233,-4.4479,-4.4572,-4.4572,-4.4572,-4.4572,-4.4572,-4.4572,-4.4603,-4.4849,-4.5187,-4.5187,-4.5526,-4.5526,-4.5033,-4.4633,-4.4572,-4.4603,-4.4572,-4.4264,-4.3587,-4.2817,-4.2571,-4.1986,-4.1586,-4.1648,-4.2756,-4.3125,-4.3156,-4.2786,-4.2509,-4.2017,-4.1124,-4.0724,-4.0539,-4.0539,-4.0539,-4.0539,-4.0539,-4.0608,-4.0646,-4.0956,-4.1591,-4.2769,-4.3756,-4.427,-4.3668,-4.3306,-4.2702,-4.2043,-4.1319,-4.0905,-4.0871,-4.0871,-4.0905,-4.0974,-4.1181,-4.1423,-4.1423,-4.1319,-4.1285,-4.1181,-4.0974,-4.0871,-4.0871,-4.0871,-4.1024,-4.1163,-4.1346,-4.148,-4.1569,-4.1569,-4.148,-4.13,-4.1209,-4.1071,-4.0918,-4.0965,-4.1024,-4.1163,-4.13,-4.1346,-4.1391,-4.1604,-4.1604,-4.1471,-4.1255,-4.1163,-4.1105,-4.1059,-4.0965,-4.0918,-4.0871,-4.0871,-4.0871,-4.0871,-4.0871,-4.8743,-4.7742,-4.8327,-4.8358,-4.7989,-4.7496,-4.6911,-4.6265,-4.5588,-4.5064,-4.4541,-4.4387,-4.4172,-4.371,-4.3248,-4.334,-4.3833,-4.4018,-4.4233,-4.4418,-4.4572,-4.4572,-4.4572,-4.4572,-4.4572,-4.4603,-4.488,-4.5187,-4.5495,-4.5772,-4.608,-4.608,-4.5711,-4.528,-4.4849,-4.4664,-4.4572,-4.4264,-4.3371,-4.2633,-4.2509,-4.1986,-4.1832,-4.1986,-4.3002,-4.3618,-4.3618,-4.334,-4.2817,-4.2294,-4.1586,-4.0847,-4.0632,-4.0539,-4.0539,-4.0509,-4.0646,-4.0783,-4.0956,-4.1459,-4.2332,-4.3436,-4.4339,-4.4633,-4.4334,-4.3666,-4.2906,-4.2457,-4.1561,-4.0871,-4.0871,-4.0871,-4.0871,-4.0974,-4.1526,-4.1767,-4.1595,-4.1457,-4.1457,-4.1423,-4.1319,-4.1332,-4.1462,-4.1544,-4.1487,-4.1611,-4.1701,-4.1788,-4.1744,-4.1701,-4.1525,-4.1346,-4.1209,-4.1059,-4.0918,-4.0965,-4.0965,-4.1012,-4.1152,-4.1163,-4.1209,-4.1426,-4.1426,-4.1198,-4.1105,-4.1059,-4.1012,-4.0965,-4.0918,-4.0918,-4.0871,-4.0871,-4.0871,-4.0871,-4.0871,-4.8881,-4.7742,-4.8327,-4.7865,-4.6788,-4.6665,-4.6265,-4.568,-4.5003,-4.4633,-4.4479,-4.3987,-4.3987,-4.411,-4.3525,-4.3618,-4.411,-4.4326,-4.4449,-4.451,-4.4572,-4.4572,-4.4572,-4.4572,-4.4572,-4.4726,-4.5095,-4.5464,-4.568,-4.6296,-4.6603,-4.6806,-4.6621,-4.6128,-4.5526,-4.488,-4.4603,-4.4387,-4.3248,-4.2848,-4.2602,-4.2171,-4.2263,-4.2663,-4.334,-4.3987,-4.3895,-4.3525,-4.294,-4.2325,-4.1678,-4.1001,-4.0601,-4.0539,-4.0539,-4.0539,-4.1091,-4.1393,-4.1591,-4.2141,-4.2953,-4.3881,-4.4708,-4.4947,-4.4939,-4.4147,-4.3197,-4.2817,-4.1733,-4.1009,-4.0871,-4.0871,-4.0871,-4.1078,-4.1595,-4.194,-4.1733,-4.1664,-4.1664,-4.1919,-4.1988,-4.1988,-4.2168,-4.2253,-4.2135,-4.2079,-4.2143,-4.2044,-4.1874,-4.1701,-4.148,-4.1346,-4.1163,-4.1059,-4.0918,-4.0918,-4.0918,-4.0965,-4.1012,-4.0977,-4.1024,-4.1152,-4.1105,-4.0965,-4.0918,-4.0965,-4.0918,-4.0918,-4.0871,-4.0871,-4.0871,-4.0871,-4.0871,-4.0871,-4.0871,-4.8604,-4.7034,-4.8142,-4.7588,-4.6111,-4.6419,-4.6203,-4.5526,-4.491,-4.4572,-4.4418,-4.3864,-4.3648,-4.3648,-4.3433,-4.3402,-4.3864,-4.3925,-4.4018,-4.4541,-4.4572,-4.4572,-4.4572,-4.4572,-4.4572,-4.4756,-4.5249,-4.5926,-4.6296,-4.6942,-4.7527,-4.7742,-4.7459,-4.695,-4.5835,-4.517,-4.4949,-4.4524,-4.3771,-4.3248,-4.3217,-4.3002,-4.2971,-4.3248,-4.3833,-4.411,-4.3956,-4.3371,-4.2786,-4.2078,-4.1401,-4.0909,-4.057,-4.0539,-4.0509,-4.0646,-4.1158,-4.1981,-4.252,-4.3136,-4.3588,-4.4316,-4.4797,-4.5103,-4.5093,-4.4009,-4.3388,-4.2837,-4.1698,-4.1043,-4.0871,-4.0905,-4.094,-4.1043,-4.1457,-4.1836,-4.1871,-4.1905,-4.2023,-4.2383,-4.2555,-4.2901,-4.3126,-4.3161,-4.3022,-4.2447,-4.2361,-4.1972,-4.1692,-4.148,-4.13,-4.1209,-4.1071,-4.1012,-4.0918,-4.0918,-4.0871,-4.0918,-4.0918,-4.0918,-4.0965,-4.1012,-4.0965,-4.0918,-4.0918,-4.0871,-4.0871,-4.0871,-4.0871,-4.0871,-4.0871,-4.0871,-4.0871,-4.0871,-4.0871,-4.7681,-4.6419,-4.7434,-4.7034,-4.5834,-4.6326,-4.6111,-4.528,-4.4756,-4.4572,-4.4479,-4.411,-4.3956,-4.3833,-4.3556,-4.3433,-4.3925,-4.3956,-4.4018,-4.4541,-4.4572,-4.4572,-4.4572,-4.4572,-4.4572,-4.4787,-4.5495,-4.6203,-4.6573,-4.7527,-4.8081,-4.8286,-4.8115,-4.7105,-4.616,-4.568,-4.5348,-4.4768,-4.4044,-4.3494,-4.3494,-4.3494,-4.3494,-4.371,-4.4018,-4.4264,-4.3679,-4.3094,-4.2509,-4.174,-4.1155,-4.0724,-4.0632,-4.0715,-4.0783,-4.1024,-4.1852,-4.2831,-4.3706,-4.3997,-4.4373,-4.4852,-4.4961,-4.4932,-4.4783,-4.3786,-4.3062,-4.2408,-4.1464,-4.1223,-4.1133,-4.1133,-4.1237,-4.1374,-4.1733,-4.2147,-4.163,-4.1664,-4.1933,-4.2362,-4.3179,-4.3558,-4.4109,-4.4062,-4.3992,-4.3254,-4.2562,-4.2086,-4.1655,-4.1335,-4.1163,-4.1071,-4.1024,-4.0965,-4.0918,-4.0918,-4.0871,-4.0871,-4.0871,-4.0871,-4.0918,-4.0918,-4.0918,-4.0871,-4.0871,-4.0871,-4.0871,-4.0871,-4.0871,-4.0871,-4.0871,-4.0871,-4.0871,-4.0871,-4.0871,-4.6234,-4.5741,-4.6326,-4.6234,-4.5772,-4.6172,-4.5711,-4.4633,-4.4603,-4.4572,-4.4541,-4.4541,-4.4449,-4.451,-4.4479,-4.4449,-4.4449,-4.4479,-4.451,-4.4541,-4.4572,-4.4572,-4.4572,-4.4572,-4.4572,-4.5003,-4.5618,-4.6265,-4.6696,-4.7619,-4.8296,-4.8224,-4.765,-4.6998,-4.6454,-4.6066,-4.5628,-4.4949,-4.4291,-4.3908,-4.3833,-4.3741,-4.3771,-4.3956,-4.4233,-4.4141,-4.371,-4.3279,-4.2674,-4.2098,-4.1573,-4.1171,-4.1,-4.1225,-4.1393,-4.1885,-4.2916,-4.3714,-4.4461,-4.4572,-4.4906,-4.5069,-4.5069,-4.4765,-4.4302,-4.37,-4.2927,-4.2224,-4.1454,-4.1488,-4.1538,-4.1724,-4.1877,-4.2167,-4.2457,-4.2161,-4.1367,-4.1311,-4.1613,-4.2193,-4.3206,-4.4015,-4.507,-4.5211,-4.4729,-4.4085,-4.3337,-4.2532,-4.1997,-4.1279,-4.114,-4.0965,-4.0918,-4.0918,-4.0871,-4.0905,-4.0871,-4.0871,-4.0871,-4.0871,-4.0871,-4.0905,-4.0871,-4.0871,-4.0871,-4.0871,-4.0871,-4.0871,-4.0871,-4.0871,-4.0871,-4.0871,-4.0871,-4.0871,-4.0871,-4.6203,-4.568,-4.6326,-4.6203,-4.5588,-4.528,-4.491,-4.4603,-4.4572,-4.4572,-4.4572,-4.4572,-4.4572,-4.4572,-4.4572,-4.4572,-4.4572,-4.4572,-4.4541,-4.4572,-4.4572,-4.4572,-4.4572,-4.4572,-4.4572,-4.4849,-4.5434,-4.6172,-4.6634,-4.7558,-4.7558,-4.7145,-4.7184,-4.6749,-4.6454,-4.622,-4.5508,-4.4998,-4.437,-4.4308,-4.4202,-4.4202,-4.4202,-4.4326,-4.4387,-4.4202,-4.371,-4.3187,-4.2623,-4.2372,-4.1753,-4.1484,-4.2045,-4.2109,-4.2203,-4.2354,-4.2874,-4.3362,-4.4136,-4.4687,-4.5103,-4.5177,-4.5177,-4.5142,-4.4646,-4.3821,-4.286,-4.2124,-4.1594,-4.1594,-4.2003,-4.2259,-4.2377,-4.2615,-4.2748,-4.2196,-4.1436,-4.1232,-4.1568,-4.2603,-4.3617,-4.473,-4.5787,-4.5917,-4.5396,-4.4808,-4.4091,-4.3291,-4.2452,-4.1739,-4.1254,-4.1078,-4.0871,-4.0871,-4.0905,-4.0905,-4.0905,-4.0871,-4.0974,-4.1009,-4.1009,-4.0974,-4.0905,-4.0871,-4.0871,-4.0871,-4.0871,-4.0871,-4.0871,-4.0871,-4.0871,-4.0871,-4.0871,-4.0871,-4.0871,-4.5557,-4.528,-4.5618,-4.5557,-4.5157,-4.4756,-4.4572,-4.4572,-4.4572,-4.4572,-4.4572,-4.4572,-4.4572,-4.4572,-4.4572,-4.4572,-4.4572,-4.4572,-4.4572,-4.4572,-4.4572,-4.4572,-4.4572,-4.4572,-4.4572,-4.4818,-4.5218,-4.5834,-4.6296,-4.6819,-4.6973,-4.7096,-4.695,-4.6408,-4.6004,-4.5618,-4.5201,-4.4847,-4.4541,-4.4572,-4.4572,-4.4572,-4.4572,-4.4572,-4.4572,-4.4202,-4.3648,-4.3094,-4.294,-4.2685,-4.2094,-4.2107,-4.2587,-4.2737,-4.337,-4.3541,-4.3821,-4.4164,-4.4712,-4.4971,-4.5142,-4.5264,-4.5264,-4.523,-4.4662,-4.382,-4.2912,-4.2142,-4.1767,-4.1699,-4.2279,-4.2808,-4.2909,-4.3009,-4.2645,-4.2279,-4.1821,-4.136,-4.2114,-4.3149,-4.4212,-4.5397,-4.6035,-4.6152,-4.6014,-4.5326,-4.4674,-4.3988,-4.3128,-4.2265,-4.1733,-4.1429,-4.1099,-4.0871,-4.0974,-4.1216,-4.1354,-4.1423,-4.1457,-4.1457,-4.1285,-4.1043,-4.0905,-4.0871,-4.0871,-4.0871,-4.0871,-4.0871,-4.0871,-4.0871,-4.0871,-4.0871,-4.0871,-4.0871,-4.0871,-4.4603,-4.4603,-4.4572,-4.4664,-4.4572,-4.4572,-4.4572,-4.4541,-4.4479,-4.4479,-4.4449,-4.4387,-4.4326,-4.4295,-4.4356,-4.4479,-4.451,-4.4572,-4.4572,-4.4572,-4.4572,-4.4572,-4.4572,-4.4572,-4.4572,-4.4787,-4.5064,-4.5372,-4.5649,-4.6111,-4.6696,-4.7281,-4.622,-4.5511,-4.5465,-4.5094,-4.4771,-4.4709,-4.4572,-4.4572,-4.4572,-4.4572,-4.4572,-4.4572,-4.451,-4.4295,-4.3877,-4.3561,-4.3345,-4.2962,-4.2677,-4.2719,-4.3121,-4.333,-4.4136,-4.4388,-4.4399,-4.4574,-4.4767,-4.5026,-4.5198,-4.5302,-4.5371,-4.5318,-4.4783,-4.3991,-4.3117,-4.2723,-4.2415,-4.2535,-4.3049,-4.3666,-4.3907,-4.3579,-4.3197,-4.2624,-4.2016,-4.194,-4.2542,-4.3578,-4.4582,-4.5685,-4.6247,-4.6363,-4.6105,-4.561,-4.5199,-4.4578,-4.3975,-4.3044,-4.2477,-4.2083,-4.1822,-4.163,-4.163,-4.1871,-4.2043,-4.2112,-4.2078,-4.1871,-4.1698,-4.1319,-4.0871,-4.0871,-4.0871,-4.0871,-4.0871,-4.0871,-4.0871,-4.0871,-4.0871,-4.0871,-4.0871,-4.0871,-4.0871,-4.4572,-4.4572,-4.4572,-4.4572,-4.4572,-4.4572,-4.4541,-4.451,-4.4018,-4.3833,-4.3741,-4.3402,-4.3433,-4.3864,-4.3987,-4.4172,-4.451,-4.4572,-4.4572,-4.4572,-4.4572,-4.4572,-4.4572,-4.4572,-4.4572,-4.4603,-4.4756,-4.4941,-4.5157,-4.5526,-4.5618,-4.5403,-4.491,-4.4941,-4.491,-4.4572,-4.4572,-4.4572,-4.4572,-4.4648,-4.4723,-4.4648,-4.4572,-4.4617,-4.4555,-4.4675,-4.4328,-4.3934,-4.3959,-4.3936,-4.3518,-4.3641,-4.4236,-4.4122,-4.4121,-4.4284,-4.4216,-4.4406,-4.4665,-4.4837,-4.4975,-4.5285,-4.5389,-4.5371,-4.5008,-4.4215,-4.3717,-4.3407,-4.3287,-4.3442,-4.3665,-4.4284,-4.4714,-4.4234,-4.3715,-4.3005,-4.2293,-4.2626,-4.3029,-4.3935,-4.4983,-4.5676,-4.6224,-4.6315,-4.607,-4.5819,-4.5477,-4.5113,-4.4819,-4.4165,-4.3595,-4.3131,-4.2906,-4.2699,-4.2561,-4.2595,-4.2802,-4.2871,-4.2871,-4.2561,-4.2147,-4.1595,-4.1147,-4.094,-4.0871,-4.0871,-4.0871,-4.0871,-4.0871,-4.0871,-4.0871,-4.0871,-4.0871,-4.0871,-4.0871,-4.3956,-4.3741,-4.371,-4.371,-4.371,-4.371,-4.3864,-4.3956,-4.3433,-4.331,-4.3525,-4.3248,-4.3248,-4.3679,-4.3864,-4.411,-4.4541,-4.4572,-4.4572,-4.4572,-4.4572,-4.4572,-4.4572,-4.4572,-4.4572,-4.4572,-4.4603,-4.4726,-4.491,-4.4941,-4.4941,-4.488,-4.4787,-4.4572,-4.4572,-4.4572,-4.4572,-4.4572,-4.4648,-4.4799,-4.4993,-4.5067,-4.4849,-4.4818,-4.5144,-4.5217,-4.5182,-4.4941,-4.5034,-4.4918,-4.4384,-4.437,-4.4708,-4.4741,-4.4662,-4.4664,-4.4578,-4.4354,-4.463,-4.4768,-4.4768,-4.4975,-4.5389,-4.5336,-4.4941,-4.4216,-4.3993,-4.3683,-4.3751,-4.382,-4.3803,-4.4199,-4.487,-4.4837,-4.4164,-4.3489,-4.3013,-4.2952,-4.336,-4.3895,-4.4728,-4.5411,-4.5852,-4.607,-4.5819,-4.5649,-4.5423,-4.5423,-4.5164,-4.4973,-4.4509,-4.4113,-4.3768,-4.332,-4.3024,-4.3266,-4.3595,-4.3715,-4.3664,-4.3251,-4.2802,-4.1974,-4.1388,-4.1285,-4.1112,-4.0871,-4.0871,-4.0871,-4.0871,-4.0871,-4.0871,-4.0871,-4.0871,-4.0871,-4.0871,-4.3125,-4.2633,-4.2633,-4.2633,-4.2602,-4.2633,-4.294,-4.3279,-4.2786,-4.2786,-4.3187,-4.331,-4.3464,-4.3802,-4.4141,-4.4387,-4.4541,-4.4572,-4.4572,-4.4572,-4.4572,-4.4572,-4.4572,-4.4572,-4.4572,-4.4572,-4.4572,-4.488,-4.5187,-4.5003,-4.491,-4.5249,-4.5003,-4.4572,-4.4572,-4.4648,-4.4648,-4.4843,-4.4993,-4.5258,-4.5478,-4.5769,-4.5412,-4.5539,-4.5897,-4.6241,-4.6079,-4.5926,-4.6029,-4.5649,-4.4976,-4.498,-4.5015,-4.5074,-4.5214,-4.5129,-4.4854,-4.4975,-4.5216,-4.5079,-4.4768,-4.4699,-4.5147,-4.5147,-4.4699,-4.4509,-4.4285,-4.4182,-4.4199,-4.4268,-4.4165,-4.432,-4.4992,-4.5251,-4.4578,-4.3904,-4.3597,-4.3406,-4.3793,-4.4097,-4.4681,-4.5404,-4.5536,-4.5784,-4.5701,-4.5476,-4.5423,-4.5423,-4.5336,-4.5267,-4.4992,-4.4699,-4.4423,-4.3975,-4.3664,-4.3837,-4.4354,-4.4423,-4.4389,-4.394,-4.3354,-4.2423,-4.1836,-4.1733,-4.1526,-4.1043,-4.0871,-4.0871,-4.0871,-4.0905,-4.0871,-4.0871,-4.0871,-4.0871,-4.0871,-4.2725,-4.2602,-4.2602,-4.2602,-4.2571,-4.2571,-4.2694,-4.2663,-4.2109,-4.1894,-4.2294,-4.2663,-4.3033,-4.3587,-4.3648,-4.3987,-4.4572,-4.4572,-4.4572,-4.4572,-4.4572,-4.4572,-4.4572,-4.4572,-4.4572,-4.4603,-4.4603,-4.4695,-4.5033,-4.4787,-4.4633,-4.4787,-4.4756,-4.4572,-4.4572,-4.4723,-4.4918,-4.5216,-4.5551,-4.5841,-4.6198,-4.6308,-4.6166,-4.6089,-4.6011,-4.5885,-4.5632,-4.5242,-4.5065,-4.5016,-4.5117,-4.5152,-4.5177,-4.5318,-4.5371,-4.5267,-4.5079,-4.5113,-4.5182,-4.5044,-4.4665,-4.4458,-4.4837,-4.5026,-4.4906,-4.5026,-4.4819,-4.4647,-4.4664,-4.4973,-4.4992,-4.4992,-4.5389,-4.5216,-4.4734,-4.4162,-4.3687,-4.4028,-4.4474,-4.4782,-4.5264,-4.5536,-4.5629,-4.5752,-4.5649,-4.5528,-4.5423,-4.5423,-4.5423,-4.5423,-4.5458,-4.5147,-4.4872,-4.5147,-4.501,-4.4768,-4.5044,-4.5113,-4.5079,-4.463,-4.3871,-4.2733,-4.225,-4.2216,-4.163,-4.1043,-4.094,-4.0871,-4.0974,-4.1009,-4.0905,-4.0871,-4.0905,-4.0974,-4.1043]}]]